<?xml version="1.0" encoding="UTF-8" standalone="no" ?>
<gpx xmlns="http://www.topografix.com/GPX/1/1" creator="www.cicloide.com" version="1.1" xmlns:xsi="http://www.w3.org/2001/XMLSchema-instance" xsi:schemaLocation="http://www.topografix.com/GPX/1/1 http://www.topografix.com/GPX/1/1/gpx.xsd">
  <trk>
    <name>www.cicloide.com 9772</name>
    <desc>www.cicloide.com 9772</desc>
    <trkseg>
      <trkpt lat="41.605774000" lon="2.540374100">
        <ele>115.00</ele>
        <time>2012-07-22T07:27:25Z</time>
      </trkpt>
      <trkpt lat="41.605774000" lon="2.540374100">
        <ele>115.00</ele>
        <time>2012-07-22T07:27:44Z</time>
      </trkpt>
      <trkpt lat="41.605774000" lon="2.540374100">
        <ele>115.00</ele>
        <time>2012-07-22T07:28:00Z</time>
      </trkpt>
      <trkpt lat="41.605778000" lon="2.540373100">
        <ele>115.00</ele>
        <time>2012-07-22T07:28:35Z</time>
      </trkpt>
      <trkpt lat="41.605785000" lon="2.540387100">
        <ele>115.00</ele>
        <time>2012-07-22T07:29:03Z</time>
      </trkpt>
      <trkpt lat="41.605789000" lon="2.540380100">
        <ele>115.00</ele>
        <time>2012-07-22T07:29:04Z</time>
      </trkpt>
      <trkpt lat="41.606041000" lon="2.540354100">
        <ele>115.00</ele>
        <time>2012-07-22T07:29:15Z</time>
      </trkpt>
      <trkpt lat="41.606441000" lon="2.540498100">
        <ele>115.00</ele>
        <time>2012-07-22T07:29:25Z</time>
      </trkpt>
      <trkpt lat="41.606750000" lon="2.540662100">
        <ele>116.00</ele>
        <time>2012-07-22T07:29:36Z</time>
      </trkpt>
      <trkpt lat="41.607002000" lon="2.540766100">
        <ele>116.00</ele>
        <time>2012-07-22T07:29:43Z</time>
      </trkpt>
      <trkpt lat="41.607231000" lon="2.540828100">
        <ele>116.90</ele>
        <time>2012-07-22T07:29:50Z</time>
      </trkpt>
      <trkpt lat="41.607487000" lon="2.540839100">
        <ele>117.90</ele>
        <time>2012-07-22T07:29:58Z</time>
      </trkpt>
      <trkpt lat="41.607647000" lon="2.540831100">
        <ele>118.40</ele>
        <time>2012-07-22T07:30:04Z</time>
      </trkpt>
      <trkpt lat="41.607861000" lon="2.540818100">
        <ele>118.90</ele>
        <time>2012-07-22T07:30:11Z</time>
      </trkpt>
      <trkpt lat="41.608143000" lon="2.540810100">
        <ele>119.30</ele>
        <time>2012-07-22T07:30:19Z</time>
      </trkpt>
      <trkpt lat="41.608299000" lon="2.540755100">
        <ele>120.30</ele>
        <time>2012-07-22T07:30:24Z</time>
      </trkpt>
      <trkpt lat="41.608459000" lon="2.540693100">
        <ele>120.80</ele>
        <time>2012-07-22T07:30:30Z</time>
      </trkpt>
      <trkpt lat="41.608704000" lon="2.540649100">
        <ele>121.30</ele>
        <time>2012-07-22T07:30:37Z</time>
      </trkpt>
      <trkpt lat="41.609005000" lon="2.540605100">
        <ele>121.70</ele>
        <time>2012-07-22T07:30:45Z</time>
      </trkpt>
      <trkpt lat="41.609169000" lon="2.540587100">
        <ele>123.20</ele>
        <time>2012-07-22T07:30:51Z</time>
      </trkpt>
      <trkpt lat="41.609318000" lon="2.540576100">
        <ele>123.70</ele>
        <time>2012-07-22T07:30:59Z</time>
      </trkpt>
      <trkpt lat="41.609482000" lon="2.540561100">
        <ele>124.20</ele>
        <time>2012-07-22T07:31:06Z</time>
      </trkpt>
      <trkpt lat="41.609634000" lon="2.540523100">
        <ele>124.60</ele>
        <time>2012-07-22T07:31:10Z</time>
      </trkpt>
      <trkpt lat="41.609695000" lon="2.540509100">
        <ele>124.60</ele>
        <time>2012-07-22T07:31:13Z</time>
      </trkpt>
      <trkpt lat="41.609791000" lon="2.540475100">
        <ele>124.60</ele>
        <time>2012-07-22T07:31:17Z</time>
      </trkpt>
      <trkpt lat="41.610004000" lon="2.540385100">
        <ele>126.10</ele>
        <time>2012-07-22T07:31:24Z</time>
      </trkpt>
      <trkpt lat="41.610115000" lon="2.540324100">
        <ele>126.10</ele>
        <time>2012-07-22T07:31:29Z</time>
      </trkpt>
      <trkpt lat="41.610344000" lon="2.540201100">
        <ele>127.00</ele>
        <time>2012-07-22T07:31:36Z</time>
      </trkpt>
      <trkpt lat="41.610542000" lon="2.540093100">
        <ele>127.50</ele>
        <time>2012-07-22T07:31:43Z</time>
      </trkpt>
      <trkpt lat="41.610783000" lon="2.539983100">
        <ele>128.00</ele>
        <time>2012-07-22T07:31:52Z</time>
      </trkpt>
      <trkpt lat="41.610962000" lon="2.539901100">
        <ele>128.90</ele>
        <time>2012-07-22T07:31:57Z</time>
      </trkpt>
      <trkpt lat="41.611168000" lon="2.539789100">
        <ele>129.90</ele>
        <time>2012-07-22T07:32:04Z</time>
      </trkpt>
      <trkpt lat="41.611382000" lon="2.539654100">
        <ele>130.40</ele>
        <time>2012-07-22T07:32:11Z</time>
      </trkpt>
      <trkpt lat="41.611588000" lon="2.539471100">
        <ele>130.90</ele>
        <time>2012-07-22T07:32:18Z</time>
      </trkpt>
      <trkpt lat="41.611755000" lon="2.539275100">
        <ele>131.80</ele>
        <time>2012-07-22T07:32:25Z</time>
      </trkpt>
      <trkpt lat="41.611885000" lon="2.539141100">
        <ele>132.30</ele>
        <time>2012-07-22T07:32:30Z</time>
      </trkpt>
      <trkpt lat="41.612041000" lon="2.538967100">
        <ele>132.80</ele>
        <time>2012-07-22T07:32:37Z</time>
      </trkpt>
      <trkpt lat="41.612144000" lon="2.538828100">
        <ele>134.20</ele>
        <time>2012-07-22T07:32:46Z</time>
      </trkpt>
      <trkpt lat="41.612160000" lon="2.538812100">
        <ele>134.20</ele>
        <time>2012-07-22T07:32:54Z</time>
      </trkpt>
      <trkpt lat="41.612156000" lon="2.538807100">
        <ele>134.70</ele>
        <time>2012-07-22T07:33:17Z</time>
      </trkpt>
      <trkpt lat="41.612167000" lon="2.538806100">
        <ele>134.70</ele>
        <time>2012-07-22T07:35:05Z</time>
      </trkpt>
      <trkpt lat="41.612167000" lon="2.538806100">
        <ele>134.70</ele>
        <time>2012-07-22T07:35:26Z</time>
      </trkpt>
      <trkpt lat="41.612164000" lon="2.538804100">
        <ele>135.20</ele>
        <time>2012-07-22T07:35:45Z</time>
      </trkpt>
      <trkpt lat="41.612164000" lon="2.538798100">
        <ele>135.20</ele>
        <time>2012-07-22T07:36:16Z</time>
      </trkpt>
      <trkpt lat="41.612183000" lon="2.538736100">
        <ele>135.20</ele>
        <time>2012-07-22T07:36:56Z</time>
      </trkpt>
      <trkpt lat="41.612259000" lon="2.538557100">
        <ele>135.70</ele>
        <time>2012-07-22T07:37:02Z</time>
      </trkpt>
      <trkpt lat="41.612446000" lon="2.538246100">
        <ele>136.20</ele>
        <time>2012-07-22T07:37:10Z</time>
      </trkpt>
      <trkpt lat="41.612476000" lon="2.538191100">
        <ele>136.60</ele>
        <time>2012-07-22T07:37:12Z</time>
      </trkpt>
      <trkpt lat="41.612598000" lon="2.538079100">
        <ele>137.10</ele>
        <time>2012-07-22T07:37:17Z</time>
      </trkpt>
      <trkpt lat="41.612808000" lon="2.537837100">
        <ele>137.60</ele>
        <time>2012-07-22T07:37:26Z</time>
      </trkpt>
      <trkpt lat="41.613007000" lon="2.537607100">
        <ele>139.10</ele>
        <time>2012-07-22T07:37:33Z</time>
      </trkpt>
      <trkpt lat="41.613235000" lon="2.537420100">
        <ele>139.50</ele>
        <time>2012-07-22T07:37:40Z</time>
      </trkpt>
      <trkpt lat="41.613388000" lon="2.537222100">
        <ele>140.00</ele>
        <time>2012-07-22T07:37:45Z</time>
      </trkpt>
      <trkpt lat="41.613525000" lon="2.536957100">
        <ele>141.00</ele>
        <time>2012-07-22T07:37:52Z</time>
      </trkpt>
      <trkpt lat="41.613636000" lon="2.536654100">
        <ele>141.40</ele>
        <time>2012-07-22T07:37:59Z</time>
      </trkpt>
      <trkpt lat="41.613644000" lon="2.536596100">
        <ele>141.90</ele>
        <time>2012-07-22T07:37:59Z</time>
      </trkpt>
      <trkpt lat="41.613804000" lon="2.536153100">
        <ele>143.40</ele>
        <time>2012-07-22T07:38:08Z</time>
      </trkpt>
      <trkpt lat="41.613850000" lon="2.536046100">
        <ele>143.40</ele>
        <time>2012-07-22T07:38:10Z</time>
      </trkpt>
      <trkpt lat="41.613945000" lon="2.535843100">
        <ele>144.30</ele>
        <time>2012-07-22T07:38:13Z</time>
      </trkpt>
      <trkpt lat="41.614040000" lon="2.535527100">
        <ele>145.30</ele>
        <time>2012-07-22T07:38:20Z</time>
      </trkpt>
      <trkpt lat="41.614185000" lon="2.535070100">
        <ele>146.30</ele>
        <time>2012-07-22T07:38:29Z</time>
      </trkpt>
      <trkpt lat="41.614315000" lon="2.534684100">
        <ele>147.70</ele>
        <time>2012-07-22T07:38:36Z</time>
      </trkpt>
      <trkpt lat="41.614441000" lon="2.534246100">
        <ele>149.60</ele>
        <time>2012-07-22T07:38:46Z</time>
      </trkpt>
      <trkpt lat="41.614548000" lon="2.533887100">
        <ele>151.10</ele>
        <time>2012-07-22T07:38:53Z</time>
      </trkpt>
      <trkpt lat="41.614628000" lon="2.533561100">
        <ele>152.00</ele>
        <time>2012-07-22T07:39:02Z</time>
      </trkpt>
      <trkpt lat="41.614746000" lon="2.533188100">
        <ele>153.00</ele>
        <time>2012-07-22T07:39:12Z</time>
      </trkpt>
      <trkpt lat="41.614872000" lon="2.532786100">
        <ele>153.90</ele>
        <time>2012-07-22T07:39:21Z</time>
      </trkpt>
      <trkpt lat="41.614979000" lon="2.532422100">
        <ele>155.40</ele>
        <time>2012-07-22T07:39:30Z</time>
      </trkpt>
      <trkpt lat="41.615078000" lon="2.531975100">
        <ele>156.80</ele>
        <time>2012-07-22T07:39:42Z</time>
      </trkpt>
      <trkpt lat="41.615101000" lon="2.531586100">
        <ele>157.80</ele>
        <time>2012-07-22T07:39:51Z</time>
      </trkpt>
      <trkpt lat="41.615120000" lon="2.531249100">
        <ele>158.30</ele>
        <time>2012-07-22T07:39:59Z</time>
      </trkpt>
      <trkpt lat="41.615173000" lon="2.530699100">
        <ele>160.20</ele>
        <time>2012-07-22T07:40:10Z</time>
      </trkpt>
      <trkpt lat="41.615181000" lon="2.530185100">
        <ele>161.60</ele>
        <time>2012-07-22T07:40:22Z</time>
      </trkpt>
      <trkpt lat="41.615185000" lon="2.529795100">
        <ele>162.60</ele>
        <time>2012-07-22T07:40:31Z</time>
      </trkpt>
      <trkpt lat="41.615196000" lon="2.529469100">
        <ele>164.00</ele>
        <time>2012-07-22T07:40:39Z</time>
      </trkpt>
      <trkpt lat="41.615208000" lon="2.529105100">
        <ele>165.00</ele>
        <time>2012-07-22T07:40:48Z</time>
      </trkpt>
      <trkpt lat="41.615265000" lon="2.528733100">
        <ele>166.00</ele>
        <time>2012-07-22T07:40:57Z</time>
      </trkpt>
      <trkpt lat="41.615345000" lon="2.528379100">
        <ele>166.40</ele>
        <time>2012-07-22T07:41:06Z</time>
      </trkpt>
      <trkpt lat="41.615414000" lon="2.528017100">
        <ele>167.90</ele>
        <time>2012-07-22T07:41:14Z</time>
      </trkpt>
      <trkpt lat="41.615490000" lon="2.527632100">
        <ele>168.90</ele>
        <time>2012-07-22T07:41:25Z</time>
      </trkpt>
      <trkpt lat="41.615559000" lon="2.527287100">
        <ele>169.80</ele>
        <time>2012-07-22T07:41:33Z</time>
      </trkpt>
      <trkpt lat="41.615608000" lon="2.526962100">
        <ele>171.20</ele>
        <time>2012-07-22T07:41:42Z</time>
      </trkpt>
      <trkpt lat="41.615604000" lon="2.526657100">
        <ele>172.70</ele>
        <time>2012-07-22T07:41:51Z</time>
      </trkpt>
      <trkpt lat="41.615570000" lon="2.526393100">
        <ele>173.20</ele>
        <time>2012-07-22T07:41:58Z</time>
      </trkpt>
      <trkpt lat="41.615536000" lon="2.526065100">
        <ele>174.10</ele>
        <time>2012-07-22T07:42:08Z</time>
      </trkpt>
      <trkpt lat="41.615524000" lon="2.525721100">
        <ele>175.60</ele>
        <time>2012-07-22T07:42:15Z</time>
      </trkpt>
      <trkpt lat="41.615517000" lon="2.525492100">
        <ele>176.10</ele>
        <time>2012-07-22T07:42:22Z</time>
      </trkpt>
      <trkpt lat="41.615547000" lon="2.525106100">
        <ele>177.00</ele>
        <time>2012-07-22T07:42:31Z</time>
      </trkpt>
      <trkpt lat="41.615578000" lon="2.524804100">
        <ele>178.00</ele>
        <time>2012-07-22T07:42:38Z</time>
      </trkpt>
      <trkpt lat="41.615597000" lon="2.524544100">
        <ele>179.40</ele>
        <time>2012-07-22T07:42:45Z</time>
      </trkpt>
      <trkpt lat="41.615639000" lon="2.524119100">
        <ele>180.90</ele>
        <time>2012-07-22T07:42:57Z</time>
      </trkpt>
      <trkpt lat="41.615646000" lon="2.523815100">
        <ele>181.80</ele>
        <time>2012-07-22T07:43:04Z</time>
      </trkpt>
      <trkpt lat="41.615681000" lon="2.523436100">
        <ele>183.80</ele>
        <time>2012-07-22T07:43:13Z</time>
      </trkpt>
      <trkpt lat="41.615711000" lon="2.523156100">
        <ele>184.20</ele>
        <time>2012-07-22T07:43:21Z</time>
      </trkpt>
      <trkpt lat="41.615753000" lon="2.522829100">
        <ele>185.20</ele>
        <time>2012-07-22T07:43:28Z</time>
      </trkpt>
      <trkpt lat="41.615788000" lon="2.522576100">
        <ele>186.10</ele>
        <time>2012-07-22T07:43:35Z</time>
      </trkpt>
      <trkpt lat="41.615829000" lon="2.522215100">
        <ele>187.60</ele>
        <time>2012-07-22T07:43:42Z</time>
      </trkpt>
      <trkpt lat="41.615852000" lon="2.521947100">
        <ele>188.60</ele>
        <time>2012-07-22T07:43:49Z</time>
      </trkpt>
      <trkpt lat="41.615910000" lon="2.521617100">
        <ele>189.50</ele>
        <time>2012-07-22T07:43:58Z</time>
      </trkpt>
      <trkpt lat="41.615959000" lon="2.521296100">
        <ele>190.00</ele>
        <time>2012-07-22T07:44:05Z</time>
      </trkpt>
      <trkpt lat="41.616020000" lon="2.520986100">
        <ele>191.00</ele>
        <time>2012-07-22T07:44:12Z</time>
      </trkpt>
      <trkpt lat="41.616100000" lon="2.520686100">
        <ele>191.40</ele>
        <time>2012-07-22T07:44:19Z</time>
      </trkpt>
      <trkpt lat="41.616219000" lon="2.520333100">
        <ele>191.90</ele>
        <time>2012-07-22T07:44:28Z</time>
      </trkpt>
      <trkpt lat="41.616287000" lon="2.520097100">
        <ele>192.90</ele>
        <time>2012-07-22T07:44:33Z</time>
      </trkpt>
      <trkpt lat="41.616379000" lon="2.519783100">
        <ele>193.40</ele>
        <time>2012-07-22T07:44:41Z</time>
      </trkpt>
      <trkpt lat="41.616447000" lon="2.519512100">
        <ele>194.30</ele>
        <time>2012-07-22T07:44:48Z</time>
      </trkpt>
      <trkpt lat="41.616520000" lon="2.519167100">
        <ele>195.80</ele>
        <time>2012-07-22T07:44:57Z</time>
      </trkpt>
      <trkpt lat="41.616581000" lon="2.518842100">
        <ele>196.70</ele>
        <time>2012-07-22T07:45:06Z</time>
      </trkpt>
      <trkpt lat="41.616596000" lon="2.518533100">
        <ele>197.20</ele>
        <time>2012-07-22T07:45:13Z</time>
      </trkpt>
      <trkpt lat="41.616615000" lon="2.518206100">
        <ele>198.20</ele>
        <time>2012-07-22T07:45:20Z</time>
      </trkpt>
      <trkpt lat="41.616608000" lon="2.517905100">
        <ele>199.60</ele>
        <time>2012-07-22T07:45:29Z</time>
      </trkpt>
      <trkpt lat="41.616535000" lon="2.517705100">
        <ele>200.60</ele>
        <time>2012-07-22T07:45:34Z</time>
      </trkpt>
      <trkpt lat="41.616440000" lon="2.517362100">
        <ele>201.50</ele>
        <time>2012-07-22T07:45:42Z</time>
      </trkpt>
      <trkpt lat="41.616428000" lon="2.516967100">
        <ele>202.50</ele>
        <time>2012-07-22T07:45:51Z</time>
      </trkpt>
      <trkpt lat="41.616520000" lon="2.516741100">
        <ele>202.50</ele>
        <time>2012-07-22T07:45:58Z</time>
      </trkpt>
      <trkpt lat="41.616524000" lon="2.516554100">
        <ele>203.00</ele>
        <time>2012-07-22T07:46:02Z</time>
      </trkpt>
      <trkpt lat="41.616428000" lon="2.516197100">
        <ele>203.50</ele>
        <time>2012-07-22T07:46:12Z</time>
      </trkpt>
      <trkpt lat="41.616360000" lon="2.515945100">
        <ele>203.90</ele>
        <time>2012-07-22T07:46:19Z</time>
      </trkpt>
      <trkpt lat="41.616371000" lon="2.515652100">
        <ele>204.40</ele>
        <time>2012-07-22T07:46:26Z</time>
      </trkpt>
      <trkpt lat="41.616428000" lon="2.515370100">
        <ele>204.90</ele>
        <time>2012-07-22T07:46:33Z</time>
      </trkpt>
      <trkpt lat="41.616516000" lon="2.515095100">
        <ele>205.40</ele>
        <time>2012-07-22T07:46:42Z</time>
      </trkpt>
      <trkpt lat="41.616608000" lon="2.514916100">
        <ele>206.80</ele>
        <time>2012-07-22T07:46:49Z</time>
      </trkpt>
      <trkpt lat="41.616676000" lon="2.514707100">
        <ele>207.30</ele>
        <time>2012-07-22T07:46:56Z</time>
      </trkpt>
      <trkpt lat="41.616734000" lon="2.514662100">
        <ele>207.80</ele>
        <time>2012-07-22T07:46:59Z</time>
      </trkpt>
      <trkpt lat="41.616783000" lon="2.514670100">
        <ele>208.30</ele>
        <time>2012-07-22T07:47:03Z</time>
      </trkpt>
      <trkpt lat="41.616837000" lon="2.514626100">
        <ele>208.70</ele>
        <time>2012-07-22T07:47:06Z</time>
      </trkpt>
      <trkpt lat="41.616890000" lon="2.514447100">
        <ele>208.70</ele>
        <time>2012-07-22T07:47:11Z</time>
      </trkpt>
      <trkpt lat="41.616890000" lon="2.514142100">
        <ele>209.20</ele>
        <time>2012-07-22T07:47:18Z</time>
      </trkpt>
      <trkpt lat="41.616901000" lon="2.513859100">
        <ele>210.20</ele>
        <time>2012-07-22T07:47:27Z</time>
      </trkpt>
      <trkpt lat="41.616898000" lon="2.513565100">
        <ele>210.70</ele>
        <time>2012-07-22T07:47:36Z</time>
      </trkpt>
      <trkpt lat="41.616886000" lon="2.513308100">
        <ele>212.10</ele>
        <time>2012-07-22T07:47:43Z</time>
      </trkpt>
      <trkpt lat="41.616890000" lon="2.513001100">
        <ele>212.60</ele>
        <time>2012-07-22T07:47:50Z</time>
      </trkpt>
      <trkpt lat="41.616856000" lon="2.512667100">
        <ele>213.60</ele>
        <time>2012-07-22T07:48:00Z</time>
      </trkpt>
      <trkpt lat="41.616772000" lon="2.512306100">
        <ele>214.50</ele>
        <time>2012-07-22T07:48:09Z</time>
      </trkpt>
      <trkpt lat="41.616669000" lon="2.512097100">
        <ele>215.00</ele>
        <time>2012-07-22T07:48:16Z</time>
      </trkpt>
      <trkpt lat="41.616558000" lon="2.511906100">
        <ele>216.40</ele>
        <time>2012-07-22T07:48:23Z</time>
      </trkpt>
      <trkpt lat="41.616425000" lon="2.511657100">
        <ele>217.40</ele>
        <time>2012-07-22T07:48:30Z</time>
      </trkpt>
      <trkpt lat="41.616383000" lon="2.511417100">
        <ele>217.90</ele>
        <time>2012-07-22T07:48:37Z</time>
      </trkpt>
      <trkpt lat="41.616405000" lon="2.511178100">
        <ele>218.40</ele>
        <time>2012-07-22T07:48:42Z</time>
      </trkpt>
      <trkpt lat="41.616467000" lon="2.510869100">
        <ele>219.30</ele>
        <time>2012-07-22T07:48:51Z</time>
      </trkpt>
      <trkpt lat="41.616581000" lon="2.510650100">
        <ele>220.80</ele>
        <time>2012-07-22T07:48:59Z</time>
      </trkpt>
      <trkpt lat="41.616703000" lon="2.510501100">
        <ele>222.70</ele>
        <time>2012-07-22T07:49:06Z</time>
      </trkpt>
      <trkpt lat="41.616745000" lon="2.510405100">
        <ele>226.50</ele>
        <time>2012-07-22T07:49:10Z</time>
      </trkpt>
      <trkpt lat="41.616798000" lon="2.510196100">
        <ele>229.40</ele>
        <time>2012-07-22T07:49:18Z</time>
      </trkpt>
      <trkpt lat="41.616795000" lon="2.509956100">
        <ele>229.40</ele>
        <time>2012-07-22T07:49:29Z</time>
      </trkpt>
      <trkpt lat="41.616837000" lon="2.509749100">
        <ele>230.40</ele>
        <time>2012-07-22T07:49:36Z</time>
      </trkpt>
      <trkpt lat="41.616928000" lon="2.509566100">
        <ele>231.30</ele>
        <time>2012-07-22T07:49:45Z</time>
      </trkpt>
      <trkpt lat="41.616882000" lon="2.509477100">
        <ele>232.30</ele>
        <time>2012-07-22T07:49:50Z</time>
      </trkpt>
      <trkpt lat="41.616760000" lon="2.509592100">
        <ele>233.30</ele>
        <time>2012-07-22T07:49:59Z</time>
      </trkpt>
      <trkpt lat="41.616688000" lon="2.509729100">
        <ele>233.70</ele>
        <time>2012-07-22T07:50:06Z</time>
      </trkpt>
      <trkpt lat="41.616589000" lon="2.509800100">
        <ele>234.70</ele>
        <time>2012-07-22T07:50:11Z</time>
      </trkpt>
      <trkpt lat="41.616432000" lon="2.509739100">
        <ele>236.10</ele>
        <time>2012-07-22T07:50:19Z</time>
      </trkpt>
      <trkpt lat="41.616360000" lon="2.509588100">
        <ele>237.60</ele>
        <time>2012-07-22T07:50:28Z</time>
      </trkpt>
      <trkpt lat="41.616344000" lon="2.509386100">
        <ele>240.00</ele>
        <time>2012-07-22T07:50:39Z</time>
      </trkpt>
      <trkpt lat="41.616329000" lon="2.509189100">
        <ele>241.90</ele>
        <time>2012-07-22T07:50:49Z</time>
      </trkpt>
      <trkpt lat="41.616318000" lon="2.509154100">
        <ele>242.40</ele>
        <time>2012-07-22T07:50:51Z</time>
      </trkpt>
      <trkpt lat="41.616295000" lon="2.508983100">
        <ele>244.30</ele>
        <time>2012-07-22T07:51:00Z</time>
      </trkpt>
      <trkpt lat="41.616257000" lon="2.508796100">
        <ele>246.20</ele>
        <time>2012-07-22T07:51:10Z</time>
      </trkpt>
      <trkpt lat="41.616230000" lon="2.508673100">
        <ele>248.20</ele>
        <time>2012-07-22T07:51:17Z</time>
      </trkpt>
      <trkpt lat="41.616196000" lon="2.508517100">
        <ele>250.10</ele>
        <time>2012-07-22T07:51:26Z</time>
      </trkpt>
      <trkpt lat="41.616150000" lon="2.508348100">
        <ele>252.00</ele>
        <time>2012-07-22T07:51:34Z</time>
      </trkpt>
      <trkpt lat="41.616096000" lon="2.508188100">
        <ele>253.40</ele>
        <time>2012-07-22T07:51:43Z</time>
      </trkpt>
      <trkpt lat="41.616058000" lon="2.508081100">
        <ele>254.40</ele>
        <time>2012-07-22T07:51:48Z</time>
      </trkpt>
      <trkpt lat="41.616047000" lon="2.508042100">
        <ele>254.90</ele>
        <time>2012-07-22T07:51:50Z</time>
      </trkpt>
      <trkpt lat="41.616005000" lon="2.507880100">
        <ele>256.80</ele>
        <time>2012-07-22T07:51:59Z</time>
      </trkpt>
      <trkpt lat="41.615955000" lon="2.507749100">
        <ele>257.30</ele>
        <time>2012-07-22T07:52:04Z</time>
      </trkpt>
      <trkpt lat="41.615906000" lon="2.507627100">
        <ele>259.20</ele>
        <time>2012-07-22T07:52:11Z</time>
      </trkpt>
      <trkpt lat="41.615883000" lon="2.507559100">
        <ele>260.60</ele>
        <time>2012-07-22T07:52:16Z</time>
      </trkpt>
      <trkpt lat="41.615845000" lon="2.507419100">
        <ele>265.00</ele>
        <time>2012-07-22T07:52:21Z</time>
      </trkpt>
      <trkpt lat="41.615795000" lon="2.507242100">
        <ele>265.50</ele>
        <time>2012-07-22T07:52:30Z</time>
      </trkpt>
      <trkpt lat="41.615746000" lon="2.507063100">
        <ele>265.50</ele>
        <time>2012-07-22T07:52:39Z</time>
      </trkpt>
      <trkpt lat="41.615723000" lon="2.506915100">
        <ele>265.90</ele>
        <time>2012-07-22T07:52:46Z</time>
      </trkpt>
      <trkpt lat="41.615726000" lon="2.506747100">
        <ele>267.40</ele>
        <time>2012-07-22T07:52:54Z</time>
      </trkpt>
      <trkpt lat="41.615761000" lon="2.506534100">
        <ele>270.30</ele>
        <time>2012-07-22T07:53:05Z</time>
      </trkpt>
      <trkpt lat="41.615795000" lon="2.506416100">
        <ele>273.10</ele>
        <time>2012-07-22T07:53:14Z</time>
      </trkpt>
      <trkpt lat="41.615814000" lon="2.506371100">
        <ele>275.10</ele>
        <time>2012-07-22T07:53:17Z</time>
      </trkpt>
      <trkpt lat="41.615875000" lon="2.506210100">
        <ele>277.50</ele>
        <time>2012-07-22T07:53:26Z</time>
      </trkpt>
      <trkpt lat="41.615932000" lon="2.506058100">
        <ele>278.00</ele>
        <time>2012-07-22T07:53:36Z</time>
      </trkpt>
      <trkpt lat="41.616009000" lon="2.505885100">
        <ele>278.90</ele>
        <time>2012-07-22T07:53:45Z</time>
      </trkpt>
      <trkpt lat="41.616032000" lon="2.505770100">
        <ele>280.40</ele>
        <time>2012-07-22T07:53:52Z</time>
      </trkpt>
      <trkpt lat="41.616055000" lon="2.505688100">
        <ele>281.30</ele>
        <time>2012-07-22T07:53:57Z</time>
      </trkpt>
      <trkpt lat="41.616093000" lon="2.505530100">
        <ele>283.70</ele>
        <time>2012-07-22T07:54:08Z</time>
      </trkpt>
      <trkpt lat="41.616104000" lon="2.505489100">
        <ele>283.70</ele>
        <time>2012-07-22T07:54:09Z</time>
      </trkpt>
      <trkpt lat="41.616165000" lon="2.505275100">
        <ele>285.60</ele>
        <time>2012-07-22T07:54:22Z</time>
      </trkpt>
      <trkpt lat="41.616177000" lon="2.505151100">
        <ele>287.60</ele>
        <time>2012-07-22T07:54:29Z</time>
      </trkpt>
      <trkpt lat="41.616180000" lon="2.505011100">
        <ele>290.90</ele>
        <time>2012-07-22T07:54:35Z</time>
      </trkpt>
      <trkpt lat="41.616135000" lon="2.504874100">
        <ele>292.90</ele>
        <time>2012-07-22T07:54:42Z</time>
      </trkpt>
      <trkpt lat="41.616055000" lon="2.504831100">
        <ele>292.90</ele>
        <time>2012-07-22T07:54:48Z</time>
      </trkpt>
      <trkpt lat="41.616032000" lon="2.504826100">
        <ele>292.90</ele>
        <time>2012-07-22T07:54:51Z</time>
      </trkpt>
      <trkpt lat="41.615982000" lon="2.504825100">
        <ele>292.90</ele>
        <time>2012-07-22T07:54:55Z</time>
      </trkpt>
      <trkpt lat="41.615841000" lon="2.504804100">
        <ele>293.30</ele>
        <time>2012-07-22T07:55:03Z</time>
      </trkpt>
      <trkpt lat="41.615696000" lon="2.504819100">
        <ele>294.30</ele>
        <time>2012-07-22T07:55:14Z</time>
      </trkpt>
      <trkpt lat="41.615582000" lon="2.504829100">
        <ele>295.30</ele>
        <time>2012-07-22T07:55:21Z</time>
      </trkpt>
      <trkpt lat="41.615459000" lon="2.504818100">
        <ele>296.20</ele>
        <time>2012-07-22T07:55:29Z</time>
      </trkpt>
      <trkpt lat="41.615433000" lon="2.504799100">
        <ele>297.20</ele>
        <time>2012-07-22T07:55:31Z</time>
      </trkpt>
      <trkpt lat="41.615376000" lon="2.504650100">
        <ele>298.10</ele>
        <time>2012-07-22T07:55:40Z</time>
      </trkpt>
      <trkpt lat="41.615364000" lon="2.504498100">
        <ele>299.60</ele>
        <time>2012-07-22T07:55:49Z</time>
      </trkpt>
      <trkpt lat="41.615368000" lon="2.504344100">
        <ele>301.50</ele>
        <time>2012-07-22T07:55:57Z</time>
      </trkpt>
      <trkpt lat="41.615383000" lon="2.504181100">
        <ele>303.40</ele>
        <time>2012-07-22T07:56:06Z</time>
      </trkpt>
      <trkpt lat="41.615406000" lon="2.503992100">
        <ele>306.30</ele>
        <time>2012-07-22T07:56:18Z</time>
      </trkpt>
      <trkpt lat="41.615417000" lon="2.503891100">
        <ele>310.20</ele>
        <time>2012-07-22T07:56:23Z</time>
      </trkpt>
      <trkpt lat="41.615433000" lon="2.503773100">
        <ele>313.50</ele>
        <time>2012-07-22T07:56:29Z</time>
      </trkpt>
      <trkpt lat="41.615429000" lon="2.503612100">
        <ele>313.00</ele>
        <time>2012-07-22T07:56:39Z</time>
      </trkpt>
      <trkpt lat="41.615402000" lon="2.503480100">
        <ele>313.50</ele>
        <time>2012-07-22T07:56:46Z</time>
      </trkpt>
      <trkpt lat="41.615368000" lon="2.503267100">
        <ele>315.00</ele>
        <time>2012-07-22T07:56:55Z</time>
      </trkpt>
      <trkpt lat="41.615299000" lon="2.503063100">
        <ele>315.00</ele>
        <time>2012-07-22T07:57:00Z</time>
      </trkpt>
      <trkpt lat="41.615192000" lon="2.502854100">
        <ele>315.50</ele>
        <time>2012-07-22T07:57:09Z</time>
      </trkpt>
      <trkpt lat="41.615131000" lon="2.502608100">
        <ele>315.50</ele>
        <time>2012-07-22T07:57:16Z</time>
      </trkpt>
      <trkpt lat="41.615082000" lon="2.502367100">
        <ele>315.50</ele>
        <time>2012-07-22T07:57:24Z</time>
      </trkpt>
      <trkpt lat="41.615036000" lon="2.502166100">
        <ele>315.90</ele>
        <time>2012-07-22T07:57:33Z</time>
      </trkpt>
      <trkpt lat="41.614975000" lon="2.501941100">
        <ele>317.40</ele>
        <time>2012-07-22T07:57:42Z</time>
      </trkpt>
      <trkpt lat="41.614948000" lon="2.501729100">
        <ele>317.90</ele>
        <time>2012-07-22T07:57:51Z</time>
      </trkpt>
      <trkpt lat="41.614956000" lon="2.501470100">
        <ele>318.80</ele>
        <time>2012-07-22T07:57:58Z</time>
      </trkpt>
      <trkpt lat="41.614944000" lon="2.501435100">
        <ele>318.80</ele>
        <time>2012-07-22T07:57:59Z</time>
      </trkpt>
      <trkpt lat="41.614861000" lon="2.501406100">
        <ele>318.80</ele>
        <time>2012-07-22T07:58:03Z</time>
      </trkpt>
      <trkpt lat="41.614712000" lon="2.501379100">
        <ele>319.30</ele>
        <time>2012-07-22T07:58:10Z</time>
      </trkpt>
      <trkpt lat="41.614552000" lon="2.501260100">
        <ele>319.80</ele>
        <time>2012-07-22T07:58:20Z</time>
      </trkpt>
      <trkpt lat="41.614422000" lon="2.501172100">
        <ele>320.70</ele>
        <time>2012-07-22T07:58:27Z</time>
      </trkpt>
      <trkpt lat="41.614326000" lon="2.501050100">
        <ele>321.70</ele>
        <time>2012-07-22T07:58:36Z</time>
      </trkpt>
      <trkpt lat="41.614265000" lon="2.500843100">
        <ele>323.10</ele>
        <time>2012-07-22T07:58:45Z</time>
      </trkpt>
      <trkpt lat="41.614220000" lon="2.500707100">
        <ele>324.60</ele>
        <time>2012-07-22T07:58:52Z</time>
      </trkpt>
      <trkpt lat="41.614151000" lon="2.500572100">
        <ele>326.50</ele>
        <time>2012-07-22T07:59:00Z</time>
      </trkpt>
      <trkpt lat="41.614075000" lon="2.500449100">
        <ele>330.40</ele>
        <time>2012-07-22T07:59:09Z</time>
      </trkpt>
      <trkpt lat="41.614048000" lon="2.500389100">
        <ele>333.20</ele>
        <time>2012-07-22T07:59:12Z</time>
      </trkpt>
      <trkpt lat="41.613964000" lon="2.500249100">
        <ele>334.70</ele>
        <time>2012-07-22T07:59:23Z</time>
      </trkpt>
      <trkpt lat="41.613888000" lon="2.500128100">
        <ele>335.60</ele>
        <time>2012-07-22T07:59:32Z</time>
      </trkpt>
      <trkpt lat="41.613846000" lon="2.500055100">
        <ele>336.10</ele>
        <time>2012-07-22T07:59:37Z</time>
      </trkpt>
      <trkpt lat="41.613846000" lon="2.499996100">
        <ele>337.60</ele>
        <time>2012-07-22T07:59:40Z</time>
      </trkpt>
      <trkpt lat="41.613876000" lon="2.499975100">
        <ele>337.60</ele>
        <time>2012-07-22T07:59:44Z</time>
      </trkpt>
      <trkpt lat="41.613937000" lon="2.500026100">
        <ele>339.00</ele>
        <time>2012-07-22T07:59:49Z</time>
      </trkpt>
      <trkpt lat="41.614052000" lon="2.500147100">
        <ele>341.40</ele>
        <time>2012-07-22T08:00:00Z</time>
      </trkpt>
      <trkpt lat="41.614182000" lon="2.500236100">
        <ele>342.90</ele>
        <time>2012-07-22T08:00:10Z</time>
      </trkpt>
      <trkpt lat="41.614288000" lon="2.500286100">
        <ele>345.20</ele>
        <time>2012-07-22T08:00:19Z</time>
      </trkpt>
      <trkpt lat="41.614429000" lon="2.500368100">
        <ele>347.20</ele>
        <time>2012-07-22T08:00:29Z</time>
      </trkpt>
      <trkpt lat="41.614552000" lon="2.500485100">
        <ele>349.60</ele>
        <time>2012-07-22T08:00:40Z</time>
      </trkpt>
      <trkpt lat="41.614590000" lon="2.500527100">
        <ele>352.50</ele>
        <time>2012-07-22T08:00:43Z</time>
      </trkpt>
      <trkpt lat="41.614605000" lon="2.500537100">
        <ele>352.90</ele>
        <time>2012-07-22T08:00:45Z</time>
      </trkpt>
      <trkpt lat="41.614700000" lon="2.500568100">
        <ele>355.30</ele>
        <time>2012-07-22T08:00:52Z</time>
      </trkpt>
      <trkpt lat="41.614822000" lon="2.500511100">
        <ele>355.30</ele>
        <time>2012-07-22T08:01:02Z</time>
      </trkpt>
      <trkpt lat="41.614952000" lon="2.500482100">
        <ele>355.30</ele>
        <time>2012-07-22T08:01:09Z</time>
      </trkpt>
      <trkpt lat="41.615089000" lon="2.500576100">
        <ele>355.30</ele>
        <time>2012-07-22T08:01:16Z</time>
      </trkpt>
      <trkpt lat="41.615196000" lon="2.500612100">
        <ele>355.80</ele>
        <time>2012-07-22T08:01:23Z</time>
      </trkpt>
      <trkpt lat="41.615307000" lon="2.500532100">
        <ele>356.30</ele>
        <time>2012-07-22T08:01:32Z</time>
      </trkpt>
      <trkpt lat="41.615417000" lon="2.500460100">
        <ele>357.80</ele>
        <time>2012-07-22T08:01:39Z</time>
      </trkpt>
      <trkpt lat="41.615559000" lon="2.500437100">
        <ele>358.20</ele>
        <time>2012-07-22T08:01:48Z</time>
      </trkpt>
      <trkpt lat="41.615696000" lon="2.500453100">
        <ele>359.20</ele>
        <time>2012-07-22T08:01:56Z</time>
      </trkpt>
      <trkpt lat="41.615749000" lon="2.500428100">
        <ele>359.70</ele>
        <time>2012-07-22T08:02:00Z</time>
      </trkpt>
      <trkpt lat="41.615780000" lon="2.500299100">
        <ele>361.60</ele>
        <time>2012-07-22T08:02:08Z</time>
      </trkpt>
      <trkpt lat="41.615730000" lon="2.500226100">
        <ele>362.50</ele>
        <time>2012-07-22T08:02:14Z</time>
      </trkpt>
      <trkpt lat="41.615604000" lon="2.500239100">
        <ele>365.40</ele>
        <time>2012-07-22T08:02:24Z</time>
      </trkpt>
      <trkpt lat="41.615479000" lon="2.500255100">
        <ele>367.40</ele>
        <time>2012-07-22T08:02:33Z</time>
      </trkpt>
      <trkpt lat="41.615364000" lon="2.500240100">
        <ele>369.30</ele>
        <time>2012-07-22T08:02:43Z</time>
      </trkpt>
      <trkpt lat="41.615265000" lon="2.500206100">
        <ele>372.60</ele>
        <time>2012-07-22T08:02:50Z</time>
      </trkpt>
      <trkpt lat="41.615192000" lon="2.500078100">
        <ele>374.10</ele>
        <time>2012-07-22T08:02:59Z</time>
      </trkpt>
      <trkpt lat="41.615177000" lon="2.500046100">
        <ele>374.10</ele>
        <time>2012-07-22T08:03:01Z</time>
      </trkpt>
      <trkpt lat="41.615097000" lon="2.499962100">
        <ele>374.10</ele>
        <time>2012-07-22T08:03:08Z</time>
      </trkpt>
      <trkpt lat="41.614979000" lon="2.499987100">
        <ele>375.00</ele>
        <time>2012-07-22T08:03:16Z</time>
      </trkpt>
      <trkpt lat="41.614941000" lon="2.500002100">
        <ele>375.50</ele>
        <time>2012-07-22T08:03:20Z</time>
      </trkpt>
      <trkpt lat="41.614834000" lon="2.499977100">
        <ele>377.50</ele>
        <time>2012-07-22T08:03:29Z</time>
      </trkpt>
      <trkpt lat="41.614742000" lon="2.499887100">
        <ele>378.90</ele>
        <time>2012-07-22T08:03:37Z</time>
      </trkpt>
      <trkpt lat="41.614658000" lon="2.499714100">
        <ele>381.80</ele>
        <time>2012-07-22T08:03:48Z</time>
      </trkpt>
      <trkpt lat="41.614628000" lon="2.499646100">
        <ele>385.10</ele>
        <time>2012-07-22T08:03:53Z</time>
      </trkpt>
      <trkpt lat="41.614601000" lon="2.499580100">
        <ele>387.50</ele>
        <time>2012-07-22T08:03:56Z</time>
      </trkpt>
      <trkpt lat="41.614574000" lon="2.499413100">
        <ele>389.00</ele>
        <time>2012-07-22T08:04:05Z</time>
      </trkpt>
      <trkpt lat="41.614613000" lon="2.499185100">
        <ele>390.00</ele>
        <time>2012-07-22T08:04:17Z</time>
      </trkpt>
      <trkpt lat="41.614666000" lon="2.498979100">
        <ele>390.90</ele>
        <time>2012-07-22T08:04:28Z</time>
      </trkpt>
      <trkpt lat="41.614674000" lon="2.498776100">
        <ele>392.80</ele>
        <time>2012-07-22T08:04:38Z</time>
      </trkpt>
      <trkpt lat="41.614700000" lon="2.498579100">
        <ele>394.30</ele>
        <time>2012-07-22T08:04:47Z</time>
      </trkpt>
      <trkpt lat="41.614727000" lon="2.498397100">
        <ele>395.70</ele>
        <time>2012-07-22T08:04:57Z</time>
      </trkpt>
      <trkpt lat="41.614742000" lon="2.498212100">
        <ele>397.20</ele>
        <time>2012-07-22T08:05:06Z</time>
      </trkpt>
      <trkpt lat="41.614731000" lon="2.498027100">
        <ele>398.60</ele>
        <time>2012-07-22T08:05:15Z</time>
      </trkpt>
      <trkpt lat="41.614670000" lon="2.497801100">
        <ele>400.00</ele>
        <time>2012-07-22T08:05:24Z</time>
      </trkpt>
      <trkpt lat="41.614552000" lon="2.497520100">
        <ele>400.00</ele>
        <time>2012-07-22T08:05:30Z</time>
      </trkpt>
      <trkpt lat="41.614353000" lon="2.497464100">
        <ele>398.10</ele>
        <time>2012-07-22T08:05:36Z</time>
      </trkpt>
      <trkpt lat="41.614258000" lon="2.497566100">
        <ele>397.60</ele>
        <time>2012-07-22T08:05:39Z</time>
      </trkpt>
      <trkpt lat="41.614170000" lon="2.497670100">
        <ele>397.60</ele>
        <time>2012-07-22T08:05:46Z</time>
      </trkpt>
      <trkpt lat="41.614067000" lon="2.497751100">
        <ele>397.60</ele>
        <time>2012-07-22T08:05:53Z</time>
      </trkpt>
      <trkpt lat="41.614025000" lon="2.497775100">
        <ele>399.10</ele>
        <time>2012-07-22T08:05:57Z</time>
      </trkpt>
      <trkpt lat="41.613995000" lon="2.497792100">
        <ele>399.60</ele>
        <time>2012-07-22T08:05:58Z</time>
      </trkpt>
      <trkpt lat="41.613819000" lon="2.497796100">
        <ele>401.00</ele>
        <time>2012-07-22T08:06:09Z</time>
      </trkpt>
      <trkpt lat="41.613712000" lon="2.497664100">
        <ele>402.50</ele>
        <time>2012-07-22T08:06:17Z</time>
      </trkpt>
      <trkpt lat="41.613609000" lon="2.497469100">
        <ele>403.90</ele>
        <time>2012-07-22T08:06:28Z</time>
      </trkpt>
      <trkpt lat="41.613483000" lon="2.497350100">
        <ele>404.90</ele>
        <time>2012-07-22T08:06:37Z</time>
      </trkpt>
      <trkpt lat="41.613346000" lon="2.497369100">
        <ele>406.30</ele>
        <time>2012-07-22T08:06:45Z</time>
      </trkpt>
      <trkpt lat="41.613216000" lon="2.497423100">
        <ele>407.30</ele>
        <time>2012-07-22T08:06:52Z</time>
      </trkpt>
      <trkpt lat="41.613087000" lon="2.497363100">
        <ele>408.70</ele>
        <time>2012-07-22T08:07:01Z</time>
      </trkpt>
      <trkpt lat="41.612988000" lon="2.497176100">
        <ele>409.70</ele>
        <time>2012-07-22T08:07:10Z</time>
      </trkpt>
      <trkpt lat="41.612919000" lon="2.497016100">
        <ele>411.10</ele>
        <time>2012-07-22T08:07:17Z</time>
      </trkpt>
      <trkpt lat="41.612858000" lon="2.496878100">
        <ele>412.10</ele>
        <time>2012-07-22T08:07:24Z</time>
      </trkpt>
      <trkpt lat="41.612812000" lon="2.496697100">
        <ele>413.00</ele>
        <time>2012-07-22T08:07:34Z</time>
      </trkpt>
      <trkpt lat="41.612759000" lon="2.496506100">
        <ele>415.00</ele>
        <time>2012-07-22T08:07:43Z</time>
      </trkpt>
      <trkpt lat="41.612686000" lon="2.496339100">
        <ele>416.40</ele>
        <time>2012-07-22T08:07:52Z</time>
      </trkpt>
      <trkpt lat="41.612621000" lon="2.496168100">
        <ele>417.80</ele>
        <time>2012-07-22T08:08:00Z</time>
      </trkpt>
      <trkpt lat="41.612583000" lon="2.495956100">
        <ele>418.80</ele>
        <time>2012-07-22T08:08:09Z</time>
      </trkpt>
      <trkpt lat="41.612587000" lon="2.495814100">
        <ele>420.70</ele>
        <time>2012-07-22T08:08:16Z</time>
      </trkpt>
      <trkpt lat="41.612614000" lon="2.495788100">
        <ele>421.20</ele>
        <time>2012-07-22T08:08:18Z</time>
      </trkpt>
      <trkpt lat="41.612789000" lon="2.495802100">
        <ele>422.20</ele>
        <time>2012-07-22T08:08:28Z</time>
      </trkpt>
      <trkpt lat="41.612923000" lon="2.495810100">
        <ele>423.10</ele>
        <time>2012-07-22T08:08:35Z</time>
      </trkpt>
      <trkpt lat="41.613083000" lon="2.495853100">
        <ele>424.60</ele>
        <time>2012-07-22T08:08:44Z</time>
      </trkpt>
      <trkpt lat="41.613228000" lon="2.495908100">
        <ele>425.50</ele>
        <time>2012-07-22T08:08:53Z</time>
      </trkpt>
      <trkpt lat="41.613388000" lon="2.495922100">
        <ele>426.50</ele>
        <time>2012-07-22T08:09:01Z</time>
      </trkpt>
      <trkpt lat="41.613533000" lon="2.495897100">
        <ele>427.40</ele>
        <time>2012-07-22T08:09:10Z</time>
      </trkpt>
      <trkpt lat="41.613693000" lon="2.495831100">
        <ele>428.40</ele>
        <time>2012-07-22T08:09:19Z</time>
      </trkpt>
      <trkpt lat="41.613846000" lon="2.495789100">
        <ele>429.40</ele>
        <time>2012-07-22T08:09:27Z</time>
      </trkpt>
      <trkpt lat="41.613976000" lon="2.495736100">
        <ele>429.90</ele>
        <time>2012-07-22T08:09:34Z</time>
      </trkpt>
      <trkpt lat="41.614166000" lon="2.495704100">
        <ele>431.30</ele>
        <time>2012-07-22T08:09:45Z</time>
      </trkpt>
      <trkpt lat="41.614349000" lon="2.495661100">
        <ele>432.70</ele>
        <time>2012-07-22T08:09:55Z</time>
      </trkpt>
      <trkpt lat="41.614494000" lon="2.495655100">
        <ele>434.20</ele>
        <time>2012-07-22T08:10:04Z</time>
      </trkpt>
      <trkpt lat="41.614624000" lon="2.495612100">
        <ele>435.10</ele>
        <time>2012-07-22T08:10:11Z</time>
      </trkpt>
      <trkpt lat="41.614746000" lon="2.495542100">
        <ele>437.10</ele>
        <time>2012-07-22T08:10:20Z</time>
      </trkpt>
      <trkpt lat="41.614853000" lon="2.495509100">
        <ele>438.00</ele>
        <time>2012-07-22T08:10:28Z</time>
      </trkpt>
      <trkpt lat="41.614983000" lon="2.495466100">
        <ele>439.90</ele>
        <time>2012-07-22T08:10:35Z</time>
      </trkpt>
      <trkpt lat="41.615147000" lon="2.495512100">
        <ele>441.90</ele>
        <time>2012-07-22T08:10:44Z</time>
      </trkpt>
      <trkpt lat="41.615265000" lon="2.495648100">
        <ele>443.30</ele>
        <time>2012-07-22T08:10:53Z</time>
      </trkpt>
      <trkpt lat="41.615356000" lon="2.495752100">
        <ele>445.20</ele>
        <time>2012-07-22T08:11:00Z</time>
      </trkpt>
      <trkpt lat="41.615463000" lon="2.495901100">
        <ele>447.60</ele>
        <time>2012-07-22T08:11:10Z</time>
      </trkpt>
      <trkpt lat="41.615520000" lon="2.496048100">
        <ele>450.50</ele>
        <time>2012-07-22T08:11:19Z</time>
      </trkpt>
      <trkpt lat="41.615555000" lon="2.496189100">
        <ele>453.40</ele>
        <time>2012-07-22T08:11:26Z</time>
      </trkpt>
      <trkpt lat="41.615627000" lon="2.496375100">
        <ele>452.90</ele>
        <time>2012-07-22T08:11:35Z</time>
      </trkpt>
      <trkpt lat="41.615719000" lon="2.496544100">
        <ele>453.90</ele>
        <time>2012-07-22T08:11:43Z</time>
      </trkpt>
      <trkpt lat="41.615803000" lon="2.496698100">
        <ele>455.80</ele>
        <time>2012-07-22T08:11:52Z</time>
      </trkpt>
      <trkpt lat="41.615894000" lon="2.496790100">
        <ele>456.30</ele>
        <time>2012-07-22T08:11:59Z</time>
      </trkpt>
      <trkpt lat="41.615910000" lon="2.496798100">
        <ele>456.80</ele>
        <time>2012-07-22T08:12:01Z</time>
      </trkpt>
      <trkpt lat="41.616074000" lon="2.496743100">
        <ele>458.20</ele>
        <time>2012-07-22T08:12:13Z</time>
      </trkpt>
      <trkpt lat="41.616135000" lon="2.496677100">
        <ele>459.60</ele>
        <time>2012-07-22T08:12:18Z</time>
      </trkpt>
      <trkpt lat="41.616180000" lon="2.496622100">
        <ele>460.10</ele>
        <time>2012-07-22T08:12:22Z</time>
      </trkpt>
      <trkpt lat="41.616280000" lon="2.496438100">
        <ele>462.00</ele>
        <time>2012-07-22T08:12:32Z</time>
      </trkpt>
      <trkpt lat="41.616333000" lon="2.496219100">
        <ele>464.00</ele>
        <time>2012-07-22T08:12:41Z</time>
      </trkpt>
      <trkpt lat="41.616352000" lon="2.496042100">
        <ele>464.90</ele>
        <time>2012-07-22T08:12:49Z</time>
      </trkpt>
      <trkpt lat="41.616352000" lon="2.495824100">
        <ele>466.90</ele>
        <time>2012-07-22T08:13:00Z</time>
      </trkpt>
      <trkpt lat="41.616371000" lon="2.495639100">
        <ele>468.30</ele>
        <time>2012-07-22T08:13:09Z</time>
      </trkpt>
      <trkpt lat="41.616409000" lon="2.495513100">
        <ele>469.70</ele>
        <time>2012-07-22T08:13:16Z</time>
      </trkpt>
      <trkpt lat="41.616528000" lon="2.495442100">
        <ele>471.20</ele>
        <time>2012-07-22T08:13:24Z</time>
      </trkpt>
      <trkpt lat="41.616741000" lon="2.495482100">
        <ele>472.10</ele>
        <time>2012-07-22T08:13:33Z</time>
      </trkpt>
      <trkpt lat="41.616913000" lon="2.495536100">
        <ele>473.10</ele>
        <time>2012-07-22T08:13:40Z</time>
      </trkpt>
      <trkpt lat="41.617130000" lon="2.495612100">
        <ele>473.60</ele>
        <time>2012-07-22T08:13:50Z</time>
      </trkpt>
      <trkpt lat="41.617317000" lon="2.495641100">
        <ele>474.50</ele>
        <time>2012-07-22T08:13:59Z</time>
      </trkpt>
      <trkpt lat="41.617504000" lon="2.495644100">
        <ele>475.00</ele>
        <time>2012-07-22T08:14:08Z</time>
      </trkpt>
      <trkpt lat="41.617664000" lon="2.495651100">
        <ele>476.00</ele>
        <time>2012-07-22T08:14:18Z</time>
      </trkpt>
      <trkpt lat="41.617817000" lon="2.495671100">
        <ele>477.00</ele>
        <time>2012-07-22T08:14:25Z</time>
      </trkpt>
      <trkpt lat="41.617916000" lon="2.495703100">
        <ele>478.40</ele>
        <time>2012-07-22T08:14:32Z</time>
      </trkpt>
      <trkpt lat="41.617985000" lon="2.495719100">
        <ele>478.90</ele>
        <time>2012-07-22T08:14:36Z</time>
      </trkpt>
      <trkpt lat="41.618145000" lon="2.495751100">
        <ele>479.80</ele>
        <time>2012-07-22T08:14:43Z</time>
      </trkpt>
      <trkpt lat="41.618320000" lon="2.495743100">
        <ele>481.30</ele>
        <time>2012-07-22T08:14:51Z</time>
      </trkpt>
      <trkpt lat="41.618507000" lon="2.495656100">
        <ele>483.20</ele>
        <time>2012-07-22T08:15:02Z</time>
      </trkpt>
      <trkpt lat="41.618618000" lon="2.495523100">
        <ele>484.60</ele>
        <time>2012-07-22T08:15:11Z</time>
      </trkpt>
      <trkpt lat="41.618629000" lon="2.495506100">
        <ele>484.60</ele>
        <time>2012-07-22T08:15:12Z</time>
      </trkpt>
      <trkpt lat="41.618752000" lon="2.495354100">
        <ele>486.10</ele>
        <time>2012-07-22T08:15:19Z</time>
      </trkpt>
      <trkpt lat="41.618782000" lon="2.495313100">
        <ele>486.10</ele>
        <time>2012-07-22T08:15:21Z</time>
      </trkpt>
      <trkpt lat="41.618927000" lon="2.495157100">
        <ele>486.60</ele>
        <time>2012-07-22T08:15:30Z</time>
      </trkpt>
      <trkpt lat="41.619102000" lon="2.495105100">
        <ele>487.50</ele>
        <time>2012-07-22T08:15:37Z</time>
      </trkpt>
      <trkpt lat="41.619350000" lon="2.495126100">
        <ele>488.00</ele>
        <time>2012-07-22T08:15:45Z</time>
      </trkpt>
      <trkpt lat="41.619511000" lon="2.495194100">
        <ele>488.50</ele>
        <time>2012-07-22T08:15:52Z</time>
      </trkpt>
      <trkpt lat="41.619690000" lon="2.495299100">
        <ele>489.50</ele>
        <time>2012-07-22T08:16:01Z</time>
      </trkpt>
      <trkpt lat="41.619831000" lon="2.495317100">
        <ele>490.40</ele>
        <time>2012-07-22T08:16:08Z</time>
      </trkpt>
      <trkpt lat="41.619972000" lon="2.495212100">
        <ele>490.90</ele>
        <time>2012-07-22T08:16:15Z</time>
      </trkpt>
      <trkpt lat="41.620106000" lon="2.495106100">
        <ele>491.90</ele>
        <time>2012-07-22T08:16:22Z</time>
      </trkpt>
      <trkpt lat="41.620228000" lon="2.494980100">
        <ele>493.30</ele>
        <time>2012-07-22T08:16:29Z</time>
      </trkpt>
      <trkpt lat="41.620380000" lon="2.494792100">
        <ele>494.70</ele>
        <time>2012-07-22T08:16:38Z</time>
      </trkpt>
      <trkpt lat="41.620529000" lon="2.494823100">
        <ele>496.70</ele>
        <time>2012-07-22T08:16:45Z</time>
      </trkpt>
      <trkpt lat="41.620663000" lon="2.494952100">
        <ele>497.60</ele>
        <time>2012-07-22T08:16:52Z</time>
      </trkpt>
      <trkpt lat="41.620850000" lon="2.495121100">
        <ele>499.50</ele>
        <time>2012-07-22T08:17:00Z</time>
      </trkpt>
      <trkpt lat="41.621052000" lon="2.495261100">
        <ele>502.00</ele>
        <time>2012-07-22T08:17:11Z</time>
      </trkpt>
      <trkpt lat="41.621204000" lon="2.495158100">
        <ele>502.90</ele>
        <time>2012-07-22T08:17:18Z</time>
      </trkpt>
      <trkpt lat="41.621254000" lon="2.494925100">
        <ele>503.90</ele>
        <time>2012-07-22T08:17:26Z</time>
      </trkpt>
      <trkpt lat="41.621384000" lon="2.494760100">
        <ele>504.80</ele>
        <time>2012-07-22T08:17:33Z</time>
      </trkpt>
      <trkpt lat="41.621449000" lon="2.494561100">
        <ele>505.30</ele>
        <time>2012-07-22T08:17:40Z</time>
      </trkpt>
      <trkpt lat="41.621426000" lon="2.494218100">
        <ele>505.80</ele>
        <time>2012-07-22T08:17:47Z</time>
      </trkpt>
      <trkpt lat="41.621475000" lon="2.493991100">
        <ele>505.80</ele>
        <time>2012-07-22T08:17:54Z</time>
      </trkpt>
      <trkpt lat="41.621639000" lon="2.493838100">
        <ele>505.80</ele>
        <time>2012-07-22T08:18:01Z</time>
      </trkpt>
      <trkpt lat="41.621799000" lon="2.493669100">
        <ele>505.80</ele>
        <time>2012-07-22T08:18:05Z</time>
      </trkpt>
      <trkpt lat="41.622005000" lon="2.493646100">
        <ele>505.80</ele>
        <time>2012-07-22T08:18:10Z</time>
      </trkpt>
      <trkpt lat="41.622066000" lon="2.493726100">
        <ele>505.80</ele>
        <time>2012-07-22T08:18:12Z</time>
      </trkpt>
      <trkpt lat="41.622128000" lon="2.493822100">
        <ele>505.80</ele>
        <time>2012-07-22T08:18:15Z</time>
      </trkpt>
      <trkpt lat="41.622314000" lon="2.493973100">
        <ele>504.80</ele>
        <time>2012-07-22T08:18:19Z</time>
      </trkpt>
      <trkpt lat="41.622398000" lon="2.493981100">
        <ele>504.80</ele>
        <time>2012-07-22T08:18:22Z</time>
      </trkpt>
      <trkpt lat="41.622627000" lon="2.493983100">
        <ele>504.80</ele>
        <time>2012-07-22T08:18:27Z</time>
      </trkpt>
      <trkpt lat="41.622776000" lon="2.494076100">
        <ele>504.80</ele>
        <time>2012-07-22T08:18:31Z</time>
      </trkpt>
      <trkpt lat="41.623028000" lon="2.494405100">
        <ele>503.40</ele>
        <time>2012-07-22T08:18:40Z</time>
      </trkpt>
      <trkpt lat="41.623165000" lon="2.494757100">
        <ele>503.40</ele>
        <time>2012-07-22T08:18:48Z</time>
      </trkpt>
      <trkpt lat="41.623219000" lon="2.495157100">
        <ele>503.40</ele>
        <time>2012-07-22T08:18:57Z</time>
      </trkpt>
      <trkpt lat="41.623158000" lon="2.495420100">
        <ele>503.40</ele>
        <time>2012-07-22T08:19:04Z</time>
      </trkpt>
      <trkpt lat="41.623112000" lon="2.495651100">
        <ele>503.40</ele>
        <time>2012-07-22T08:19:09Z</time>
      </trkpt>
      <trkpt lat="41.623222000" lon="2.495799100">
        <ele>503.40</ele>
        <time>2012-07-22T08:19:14Z</time>
      </trkpt>
      <trkpt lat="41.623367000" lon="2.496032100">
        <ele>504.80</ele>
        <time>2012-07-22T08:19:23Z</time>
      </trkpt>
      <trkpt lat="41.623516000" lon="2.496303100">
        <ele>506.30</ele>
        <time>2012-07-22T08:19:32Z</time>
      </trkpt>
      <trkpt lat="41.623650000" lon="2.496391100">
        <ele>506.80</ele>
        <time>2012-07-22T08:19:37Z</time>
      </trkpt>
      <trkpt lat="41.623871000" lon="2.496392100">
        <ele>507.20</ele>
        <time>2012-07-22T08:19:44Z</time>
      </trkpt>
      <trkpt lat="41.623955000" lon="2.496343100">
        <ele>507.20</ele>
        <time>2012-07-22T08:19:46Z</time>
      </trkpt>
      <trkpt lat="41.624046000" lon="2.496257100">
        <ele>507.20</ele>
        <time>2012-07-22T08:19:49Z</time>
      </trkpt>
      <trkpt lat="41.624249000" lon="2.495833100">
        <ele>506.30</ele>
        <time>2012-07-22T08:19:54Z</time>
      </trkpt>
      <trkpt lat="41.624279000" lon="2.495483100">
        <ele>505.80</ele>
        <time>2012-07-22T08:19:58Z</time>
      </trkpt>
      <trkpt lat="41.624237000" lon="2.495032100">
        <ele>504.80</ele>
        <time>2012-07-22T08:20:03Z</time>
      </trkpt>
      <trkpt lat="41.624275000" lon="2.494652100">
        <ele>503.40</ele>
        <time>2012-07-22T08:20:07Z</time>
      </trkpt>
      <trkpt lat="41.624271000" lon="2.494205100">
        <ele>502.40</ele>
        <time>2012-07-22T08:20:12Z</time>
      </trkpt>
      <trkpt lat="41.624249000" lon="2.494129100">
        <ele>502.40</ele>
        <time>2012-07-22T08:20:14Z</time>
      </trkpt>
      <trkpt lat="41.624126000" lon="2.493469100">
        <ele>501.50</ele>
        <time>2012-07-22T08:20:22Z</time>
      </trkpt>
      <trkpt lat="41.624092000" lon="2.493169100">
        <ele>501.50</ele>
        <time>2012-07-22T08:20:29Z</time>
      </trkpt>
      <trkpt lat="41.624065000" lon="2.492908100">
        <ele>501.00</ele>
        <time>2012-07-22T08:20:33Z</time>
      </trkpt>
      <trkpt lat="41.624138000" lon="2.492559100">
        <ele>501.00</ele>
        <time>2012-07-22T08:20:40Z</time>
      </trkpt>
      <trkpt lat="41.624249000" lon="2.492221100">
        <ele>500.50</ele>
        <time>2012-07-22T08:20:47Z</time>
      </trkpt>
      <trkpt lat="41.624313000" lon="2.491903100">
        <ele>500.50</ele>
        <time>2012-07-22T08:20:54Z</time>
      </trkpt>
      <trkpt lat="41.624340000" lon="2.491514100">
        <ele>501.00</ele>
        <time>2012-07-22T08:21:02Z</time>
      </trkpt>
      <trkpt lat="41.624363000" lon="2.491184100">
        <ele>501.00</ele>
        <time>2012-07-22T08:21:09Z</time>
      </trkpt>
      <trkpt lat="41.624397000" lon="2.491001100">
        <ele>502.00</ele>
        <time>2012-07-22T08:21:15Z</time>
      </trkpt>
      <trkpt lat="41.624489000" lon="2.490726100">
        <ele>503.40</ele>
        <time>2012-07-22T08:21:23Z</time>
      </trkpt>
      <trkpt lat="41.624641000" lon="2.490421100">
        <ele>503.90</ele>
        <time>2012-07-22T08:21:30Z</time>
      </trkpt>
      <trkpt lat="41.624855000" lon="2.490126100">
        <ele>503.90</ele>
        <time>2012-07-22T08:21:37Z</time>
      </trkpt>
      <trkpt lat="41.624966000" lon="2.489911100">
        <ele>503.90</ele>
        <time>2012-07-22T08:21:44Z</time>
      </trkpt>
      <trkpt lat="41.625038000" lon="2.489660100">
        <ele>503.90</ele>
        <time>2012-07-22T08:21:49Z</time>
      </trkpt>
      <trkpt lat="41.625107000" lon="2.489436100">
        <ele>503.90</ele>
        <time>2012-07-22T08:21:55Z</time>
      </trkpt>
      <trkpt lat="41.625164000" lon="2.489133100">
        <ele>503.90</ele>
        <time>2012-07-22T08:22:03Z</time>
      </trkpt>
      <trkpt lat="41.625183000" lon="2.488960100">
        <ele>504.40</ele>
        <time>2012-07-22T08:22:09Z</time>
      </trkpt>
      <trkpt lat="41.625248000" lon="2.488755100">
        <ele>504.80</ele>
        <time>2012-07-22T08:22:14Z</time>
      </trkpt>
      <trkpt lat="41.625256000" lon="2.488590100">
        <ele>504.80</ele>
        <time>2012-07-22T08:22:19Z</time>
      </trkpt>
      <trkpt lat="41.625244000" lon="2.488304100">
        <ele>505.30</ele>
        <time>2012-07-22T08:22:28Z</time>
      </trkpt>
      <trkpt lat="41.625240000" lon="2.488280100">
        <ele>505.30</ele>
        <time>2012-07-22T08:22:28Z</time>
      </trkpt>
      <trkpt lat="41.625210000" lon="2.488179100">
        <ele>505.80</ele>
        <time>2012-07-22T08:22:31Z</time>
      </trkpt>
      <trkpt lat="41.625103000" lon="2.488160100">
        <ele>506.30</ele>
        <time>2012-07-22T08:22:38Z</time>
      </trkpt>
      <trkpt lat="41.624954000" lon="2.488244100">
        <ele>507.20</ele>
        <time>2012-07-22T08:22:43Z</time>
      </trkpt>
      <trkpt lat="41.624855000" lon="2.488279100">
        <ele>507.20</ele>
        <time>2012-07-22T08:22:47Z</time>
      </trkpt>
      <trkpt lat="41.624683000" lon="2.488275100">
        <ele>507.20</ele>
        <time>2012-07-22T08:22:54Z</time>
      </trkpt>
      <trkpt lat="41.624512000" lon="2.488221100">
        <ele>507.70</ele>
        <time>2012-07-22T08:23:03Z</time>
      </trkpt>
      <trkpt lat="41.624363000" lon="2.488208100">
        <ele>509.20</ele>
        <time>2012-07-22T08:23:10Z</time>
      </trkpt>
      <trkpt lat="41.624283000" lon="2.488205100">
        <ele>509.60</ele>
        <time>2012-07-22T08:23:13Z</time>
      </trkpt>
      <trkpt lat="41.624161000" lon="2.488205100">
        <ele>510.10</ele>
        <time>2012-07-22T08:23:20Z</time>
      </trkpt>
      <trkpt lat="41.624146000" lon="2.488204100">
        <ele>510.60</ele>
        <time>2012-07-22T08:23:20Z</time>
      </trkpt>
      <trkpt lat="41.624008000" lon="2.488177100">
        <ele>512.00</ele>
        <time>2012-07-22T08:23:27Z</time>
      </trkpt>
      <trkpt lat="41.623978000" lon="2.488178100">
        <ele>512.00</ele>
        <time>2012-07-22T08:23:29Z</time>
      </trkpt>
      <trkpt lat="41.623779000" lon="2.488170100">
        <ele>514.00</ele>
        <time>2012-07-22T08:23:39Z</time>
      </trkpt>
      <trkpt lat="41.623676000" lon="2.488194100">
        <ele>515.40</ele>
        <time>2012-07-22T08:23:46Z</time>
      </trkpt>
      <trkpt lat="41.623596000" lon="2.488252100">
        <ele>515.90</ele>
        <time>2012-07-22T08:23:50Z</time>
      </trkpt>
      <trkpt lat="41.623459000" lon="2.488365100">
        <ele>518.30</ele>
        <time>2012-07-22T08:23:58Z</time>
      </trkpt>
      <trkpt lat="41.623310000" lon="2.488491100">
        <ele>519.70</ele>
        <time>2012-07-22T08:24:07Z</time>
      </trkpt>
      <trkpt lat="41.623199000" lon="2.488557100">
        <ele>521.70</ele>
        <time>2012-07-22T08:24:14Z</time>
      </trkpt>
      <trkpt lat="41.623074000" lon="2.488528100">
        <ele>521.70</ele>
        <time>2012-07-22T08:24:19Z</time>
      </trkpt>
      <trkpt lat="41.622921000" lon="2.488474100">
        <ele>521.70</ele>
        <time>2012-07-22T08:24:24Z</time>
      </trkpt>
      <trkpt lat="41.622772000" lon="2.488439100">
        <ele>517.80</ele>
        <time>2012-07-22T08:24:28Z</time>
      </trkpt>
      <trkpt lat="41.622723000" lon="2.488355100">
        <ele>515.40</ele>
        <time>2012-07-22T08:24:30Z</time>
      </trkpt>
      <trkpt lat="41.622585000" lon="2.488184100">
        <ele>510.60</ele>
        <time>2012-07-22T08:24:35Z</time>
      </trkpt>
      <trkpt lat="41.622517000" lon="2.488120100">
        <ele>508.70</ele>
        <time>2012-07-22T08:24:37Z</time>
      </trkpt>
      <trkpt lat="41.622353000" lon="2.487997100">
        <ele>508.20</ele>
        <time>2012-07-22T08:24:40Z</time>
      </trkpt>
      <trkpt lat="41.622337000" lon="2.487846100">
        <ele>507.70</ele>
        <time>2012-07-22T08:24:45Z</time>
      </trkpt>
      <trkpt lat="41.622360000" lon="2.487827100">
        <ele>507.70</ele>
        <time>2012-07-22T08:24:45Z</time>
      </trkpt>
      <trkpt lat="41.622513000" lon="2.487683100">
        <ele>507.70</ele>
        <time>2012-07-22T08:24:54Z</time>
      </trkpt>
      <trkpt lat="41.622639000" lon="2.487484100">
        <ele>508.70</ele>
        <time>2012-07-22T08:25:01Z</time>
      </trkpt>
      <trkpt lat="41.622734000" lon="2.487316100">
        <ele>509.60</ele>
        <time>2012-07-22T08:25:10Z</time>
      </trkpt>
      <trkpt lat="41.622822000" lon="2.487100100">
        <ele>511.60</ele>
        <time>2012-07-22T08:25:18Z</time>
      </trkpt>
      <trkpt lat="41.622871000" lon="2.486955100">
        <ele>513.50</ele>
        <time>2012-07-22T08:25:25Z</time>
      </trkpt>
      <trkpt lat="41.622902000" lon="2.486883100">
        <ele>516.80</ele>
        <time>2012-07-22T08:25:29Z</time>
      </trkpt>
      <trkpt lat="41.622952000" lon="2.486802100">
        <ele>517.30</ele>
        <time>2012-07-22T08:25:32Z</time>
      </trkpt>
      <trkpt lat="41.623055000" lon="2.486750100">
        <ele>517.30</ele>
        <time>2012-07-22T08:25:36Z</time>
      </trkpt>
      <trkpt lat="41.623173000" lon="2.486715100">
        <ele>513.50</ele>
        <time>2012-07-22T08:25:39Z</time>
      </trkpt>
      <trkpt lat="41.623440000" lon="2.486561100">
        <ele>509.20</ele>
        <time>2012-07-22T08:25:45Z</time>
      </trkpt>
      <trkpt lat="41.623730000" lon="2.486289100">
        <ele>507.20</ele>
        <time>2012-07-22T08:25:50Z</time>
      </trkpt>
      <trkpt lat="41.623791000" lon="2.486259100">
        <ele>507.20</ele>
        <time>2012-07-22T08:25:52Z</time>
      </trkpt>
      <trkpt lat="41.624130000" lon="2.486137100">
        <ele>504.80</ele>
        <time>2012-07-22T08:25:57Z</time>
      </trkpt>
      <trkpt lat="41.624264000" lon="2.485968100">
        <ele>502.00</ele>
        <time>2012-07-22T08:26:00Z</time>
      </trkpt>
      <trkpt lat="41.624191000" lon="2.485765100">
        <ele>499.50</ele>
        <time>2012-07-22T08:26:04Z</time>
      </trkpt>
      <trkpt lat="41.624069000" lon="2.485584100">
        <ele>497.10</ele>
        <time>2012-07-22T08:26:07Z</time>
      </trkpt>
      <trkpt lat="41.623905000" lon="2.485239100">
        <ele>494.30</ele>
        <time>2012-07-22T08:26:11Z</time>
      </trkpt>
      <trkpt lat="41.623909000" lon="2.485015100">
        <ele>493.30</ele>
        <time>2012-07-22T08:26:14Z</time>
      </trkpt>
      <trkpt lat="41.624058000" lon="2.484873100">
        <ele>491.90</ele>
        <time>2012-07-22T08:26:18Z</time>
      </trkpt>
      <trkpt lat="41.624077000" lon="2.484818100">
        <ele>491.90</ele>
        <time>2012-07-22T08:26:19Z</time>
      </trkpt>
      <trkpt lat="41.624100000" lon="2.484688100">
        <ele>491.90</ele>
        <time>2012-07-22T08:26:21Z</time>
      </trkpt>
      <trkpt lat="41.624046000" lon="2.484456100">
        <ele>491.90</ele>
        <time>2012-07-22T08:26:25Z</time>
      </trkpt>
      <trkpt lat="41.623913000" lon="2.484381100">
        <ele>491.40</ele>
        <time>2012-07-22T08:26:28Z</time>
      </trkpt>
      <trkpt lat="41.623627000" lon="2.484312100">
        <ele>489.90</ele>
        <time>2012-07-22T08:26:35Z</time>
      </trkpt>
      <trkpt lat="41.623367000" lon="2.484297100">
        <ele>490.40</ele>
        <time>2012-07-22T08:26:40Z</time>
      </trkpt>
      <trkpt lat="41.623199000" lon="2.484142100">
        <ele>489.50</ele>
        <time>2012-07-22T08:26:44Z</time>
      </trkpt>
      <trkpt lat="41.623215000" lon="2.483960100">
        <ele>489.00</ele>
        <time>2012-07-22T08:26:47Z</time>
      </trkpt>
      <trkpt lat="41.623280000" lon="2.483715100">
        <ele>489.00</ele>
        <time>2012-07-22T08:26:54Z</time>
      </trkpt>
      <trkpt lat="41.623329000" lon="2.483568100">
        <ele>489.00</ele>
        <time>2012-07-22T08:27:00Z</time>
      </trkpt>
      <trkpt lat="41.623260000" lon="2.483409100">
        <ele>490.40</ele>
        <time>2012-07-22T08:27:05Z</time>
      </trkpt>
      <trkpt lat="41.623112000" lon="2.483387100">
        <ele>490.40</ele>
        <time>2012-07-22T08:27:10Z</time>
      </trkpt>
      <trkpt lat="41.622879000" lon="2.483400100">
        <ele>491.90</ele>
        <time>2012-07-22T08:27:17Z</time>
      </trkpt>
      <trkpt lat="41.622688000" lon="2.483370100">
        <ele>492.80</ele>
        <time>2012-07-22T08:27:24Z</time>
      </trkpt>
      <trkpt lat="41.622509000" lon="2.483278100">
        <ele>493.30</ele>
        <time>2012-07-22T08:27:29Z</time>
      </trkpt>
      <trkpt lat="41.622433000" lon="2.483204100">
        <ele>493.30</ele>
        <time>2012-07-22T08:27:31Z</time>
      </trkpt>
      <trkpt lat="41.622311000" lon="2.482977100">
        <ele>493.30</ele>
        <time>2012-07-22T08:27:36Z</time>
      </trkpt>
      <trkpt lat="41.622238000" lon="2.482771100">
        <ele>492.30</ele>
        <time>2012-07-22T08:27:38Z</time>
      </trkpt>
      <trkpt lat="41.622181000" lon="2.482648100">
        <ele>491.90</ele>
        <time>2012-07-22T08:27:41Z</time>
      </trkpt>
      <trkpt lat="41.622112000" lon="2.482330100">
        <ele>491.40</ele>
        <time>2012-07-22T08:27:47Z</time>
      </trkpt>
      <trkpt lat="41.622078000" lon="2.482049100">
        <ele>491.40</ele>
        <time>2012-07-22T08:27:52Z</time>
      </trkpt>
      <trkpt lat="41.621990000" lon="2.481956100">
        <ele>491.40</ele>
        <time>2012-07-22T08:27:55Z</time>
      </trkpt>
      <trkpt lat="41.621834000" lon="2.481717100">
        <ele>491.40</ele>
        <time>2012-07-22T08:28:00Z</time>
      </trkpt>
      <trkpt lat="41.621708000" lon="2.481428100">
        <ele>490.90</ele>
        <time>2012-07-22T08:28:06Z</time>
      </trkpt>
      <trkpt lat="41.621769000" lon="2.481331100">
        <ele>490.40</ele>
        <time>2012-07-22T08:28:09Z</time>
      </trkpt>
      <trkpt lat="41.621876000" lon="2.481237100">
        <ele>489.90</ele>
        <time>2012-07-22T08:28:11Z</time>
      </trkpt>
      <trkpt lat="41.621925000" lon="2.481019100">
        <ele>487.00</ele>
        <time>2012-07-22T08:28:16Z</time>
      </trkpt>
      <trkpt lat="41.621914000" lon="2.480836100">
        <ele>483.70</ele>
        <time>2012-07-22T08:28:20Z</time>
      </trkpt>
      <trkpt lat="41.621948000" lon="2.480750100">
        <ele>483.70</ele>
        <time>2012-07-22T08:28:21Z</time>
      </trkpt>
      <trkpt lat="41.621876000" lon="2.480646100">
        <ele>483.70</ele>
        <time>2012-07-22T08:28:25Z</time>
      </trkpt>
      <trkpt lat="41.621712000" lon="2.480646100">
        <ele>485.10</ele>
        <time>2012-07-22T08:28:30Z</time>
      </trkpt>
      <trkpt lat="41.621468000" lon="2.480559100">
        <ele>486.60</ele>
        <time>2012-07-22T08:28:37Z</time>
      </trkpt>
      <trkpt lat="41.621284000" lon="2.480515100">
        <ele>489.50</ele>
        <time>2012-07-22T08:28:44Z</time>
      </trkpt>
      <trkpt lat="41.621189000" lon="2.480468100">
        <ele>492.80</ele>
        <time>2012-07-22T08:28:47Z</time>
      </trkpt>
      <trkpt lat="41.621010000" lon="2.480439100">
        <ele>495.20</ele>
        <time>2012-07-22T08:28:53Z</time>
      </trkpt>
      <trkpt lat="41.620811000" lon="2.480339100">
        <ele>495.20</ele>
        <time>2012-07-22T08:29:00Z</time>
      </trkpt>
      <trkpt lat="41.620655000" lon="2.480085100">
        <ele>494.30</ele>
        <time>2012-07-22T08:29:05Z</time>
      </trkpt>
      <trkpt lat="41.620552000" lon="2.479884100">
        <ele>494.30</ele>
        <time>2012-07-22T08:29:10Z</time>
      </trkpt>
      <trkpt lat="41.620308000" lon="2.479666100">
        <ele>493.80</ele>
        <time>2012-07-22T08:29:17Z</time>
      </trkpt>
      <trkpt lat="41.620239000" lon="2.479598100">
        <ele>493.30</ele>
        <time>2012-07-22T08:29:19Z</time>
      </trkpt>
      <trkpt lat="41.620274000" lon="2.479405100">
        <ele>489.90</ele>
        <time>2012-07-22T08:29:22Z</time>
      </trkpt>
      <trkpt lat="41.620373000" lon="2.479221100">
        <ele>486.60</ele>
        <time>2012-07-22T08:29:26Z</time>
      </trkpt>
      <trkpt lat="41.620331000" lon="2.478988100">
        <ele>484.60</ele>
        <time>2012-07-22T08:29:29Z</time>
      </trkpt>
      <trkpt lat="41.620155000" lon="2.478664100">
        <ele>486.60</ele>
        <time>2012-07-22T08:29:35Z</time>
      </trkpt>
      <trkpt lat="41.620171000" lon="2.478411100">
        <ele>490.40</ele>
        <time>2012-07-22T08:29:40Z</time>
      </trkpt>
      <trkpt lat="41.620243000" lon="2.478139100">
        <ele>489.90</ele>
        <time>2012-07-22T08:29:43Z</time>
      </trkpt>
      <trkpt lat="41.620300000" lon="2.477786100">
        <ele>486.60</ele>
        <time>2012-07-22T08:29:50Z</time>
      </trkpt>
      <trkpt lat="41.620384000" lon="2.477509100">
        <ele>486.60</ele>
        <time>2012-07-22T08:29:55Z</time>
      </trkpt>
      <trkpt lat="41.620293000" lon="2.477276100">
        <ele>488.00</ele>
        <time>2012-07-22T08:30:01Z</time>
      </trkpt>
      <trkpt lat="41.620113000" lon="2.477098100">
        <ele>489.50</ele>
        <time>2012-07-22T08:30:06Z</time>
      </trkpt>
      <trkpt lat="41.619972000" lon="2.476843100">
        <ele>489.50</ele>
        <time>2012-07-22T08:30:11Z</time>
      </trkpt>
      <trkpt lat="41.620007000" lon="2.476605100">
        <ele>489.90</ele>
        <time>2012-07-22T08:30:16Z</time>
      </trkpt>
      <trkpt lat="41.620037000" lon="2.476326100">
        <ele>490.40</ele>
        <time>2012-07-22T08:30:22Z</time>
      </trkpt>
      <trkpt lat="41.619843000" lon="2.476043100">
        <ele>491.90</ele>
        <time>2012-07-22T08:30:30Z</time>
      </trkpt>
      <trkpt lat="41.619667000" lon="2.475973100">
        <ele>495.20</ele>
        <time>2012-07-22T08:30:35Z</time>
      </trkpt>
      <trkpt lat="41.619572000" lon="2.475899100">
        <ele>498.10</ele>
        <time>2012-07-22T08:30:39Z</time>
      </trkpt>
      <trkpt lat="41.619553000" lon="2.475870100">
        <ele>499.10</ele>
        <time>2012-07-22T08:30:41Z</time>
      </trkpt>
      <trkpt lat="41.619587000" lon="2.475746100">
        <ele>499.10</ele>
        <time>2012-07-22T08:30:46Z</time>
      </trkpt>
      <trkpt lat="41.619656000" lon="2.475786100">
        <ele>499.10</ele>
        <time>2012-07-22T08:30:49Z</time>
      </trkpt>
      <trkpt lat="41.619793000" lon="2.475755100">
        <ele>499.10</ele>
        <time>2012-07-22T08:30:55Z</time>
      </trkpt>
      <trkpt lat="41.619934000" lon="2.475590100">
        <ele>500.50</ele>
        <time>2012-07-22T08:31:02Z</time>
      </trkpt>
      <trkpt lat="41.619957000" lon="2.475350100">
        <ele>501.50</ele>
        <time>2012-07-22T08:31:07Z</time>
      </trkpt>
      <trkpt lat="41.619949000" lon="2.475233100">
        <ele>501.50</ele>
        <time>2012-07-22T08:31:10Z</time>
      </trkpt>
      <trkpt lat="41.620026000" lon="2.474915100">
        <ele>501.50</ele>
        <time>2012-07-22T08:31:14Z</time>
      </trkpt>
      <trkpt lat="41.620064000" lon="2.474801100">
        <ele>501.50</ele>
        <time>2012-07-22T08:31:17Z</time>
      </trkpt>
      <trkpt lat="41.620071000" lon="2.474663100">
        <ele>500.00</ele>
        <time>2012-07-22T08:31:23Z</time>
      </trkpt>
      <trkpt lat="41.620071000" lon="2.474663100">
        <ele>500.00</ele>
        <time>2012-07-22T08:31:47Z</time>
      </trkpt>
      <trkpt lat="41.620068000" lon="2.474662100">
        <ele>498.10</ele>
        <time>2012-07-22T08:32:18Z</time>
      </trkpt>
      <trkpt lat="41.620068000" lon="2.474663100">
        <ele>498.10</ele>
        <time>2012-07-22T08:32:50Z</time>
      </trkpt>
      <trkpt lat="41.620071000" lon="2.474660100">
        <ele>498.10</ele>
        <time>2012-07-22T08:34:05Z</time>
      </trkpt>
      <trkpt lat="41.620075000" lon="2.474615100">
        <ele>498.10</ele>
        <time>2012-07-22T08:34:41Z</time>
      </trkpt>
      <trkpt lat="41.620071000" lon="2.474587100">
        <ele>498.10</ele>
        <time>2012-07-22T08:34:43Z</time>
      </trkpt>
      <trkpt lat="41.620113000" lon="2.474378100">
        <ele>498.10</ele>
        <time>2012-07-22T08:34:50Z</time>
      </trkpt>
      <trkpt lat="41.620251000" lon="2.474205100">
        <ele>498.60</ele>
        <time>2012-07-22T08:34:57Z</time>
      </trkpt>
      <trkpt lat="41.620316000" lon="2.474096100">
        <ele>498.60</ele>
        <time>2012-07-22T08:35:02Z</time>
      </trkpt>
      <trkpt lat="41.620255000" lon="2.473946100">
        <ele>498.60</ele>
        <time>2012-07-22T08:35:07Z</time>
      </trkpt>
      <trkpt lat="41.620224000" lon="2.473939100">
        <ele>498.60</ele>
        <time>2012-07-22T08:35:09Z</time>
      </trkpt>
      <trkpt lat="41.619984000" lon="2.473895100">
        <ele>498.60</ele>
        <time>2012-07-22T08:35:16Z</time>
      </trkpt>
      <trkpt lat="41.619862000" lon="2.473772100">
        <ele>498.10</ele>
        <time>2012-07-22T08:35:19Z</time>
      </trkpt>
      <trkpt lat="41.619659000" lon="2.473425100">
        <ele>497.10</ele>
        <time>2012-07-22T08:35:28Z</time>
      </trkpt>
      <trkpt lat="41.619473000" lon="2.473279100">
        <ele>497.10</ele>
        <time>2012-07-22T08:35:35Z</time>
      </trkpt>
      <trkpt lat="41.619362000" lon="2.473127100">
        <ele>497.10</ele>
        <time>2012-07-22T08:35:40Z</time>
      </trkpt>
      <trkpt lat="41.619312000" lon="2.473003100">
        <ele>497.10</ele>
        <time>2012-07-22T08:35:44Z</time>
      </trkpt>
      <trkpt lat="41.619301000" lon="2.472718100">
        <ele>497.10</ele>
        <time>2012-07-22T08:35:49Z</time>
      </trkpt>
      <trkpt lat="41.619270000" lon="2.472542100">
        <ele>497.10</ele>
        <time>2012-07-22T08:35:51Z</time>
      </trkpt>
      <trkpt lat="41.619122000" lon="2.472127100">
        <ele>497.10</ele>
        <time>2012-07-22T08:36:01Z</time>
      </trkpt>
      <trkpt lat="41.619057000" lon="2.471951100">
        <ele>497.10</ele>
        <time>2012-07-22T08:36:05Z</time>
      </trkpt>
      <trkpt lat="41.619213000" lon="2.471671100">
        <ele>497.10</ele>
        <time>2012-07-22T08:36:10Z</time>
      </trkpt>
      <trkpt lat="41.619251000" lon="2.471628100">
        <ele>497.10</ele>
        <time>2012-07-22T08:36:12Z</time>
      </trkpt>
      <trkpt lat="41.619362000" lon="2.471277100">
        <ele>496.70</ele>
        <time>2012-07-22T08:36:17Z</time>
      </trkpt>
      <trkpt lat="41.619396000" lon="2.471006100">
        <ele>496.20</ele>
        <time>2012-07-22T08:36:22Z</time>
      </trkpt>
      <trkpt lat="41.619415000" lon="2.470695100">
        <ele>494.70</ele>
        <time>2012-07-22T08:36:26Z</time>
      </trkpt>
      <trkpt lat="41.619316000" lon="2.470582100">
        <ele>494.70</ele>
        <time>2012-07-22T08:36:31Z</time>
      </trkpt>
      <trkpt lat="41.619156000" lon="2.470390100">
        <ele>495.20</ele>
        <time>2012-07-22T08:36:38Z</time>
      </trkpt>
      <trkpt lat="41.619148000" lon="2.470190100">
        <ele>495.20</ele>
        <time>2012-07-22T08:36:43Z</time>
      </trkpt>
      <trkpt lat="41.619164000" lon="2.469943100">
        <ele>496.20</ele>
        <time>2012-07-22T08:36:48Z</time>
      </trkpt>
      <trkpt lat="41.619148000" lon="2.469683100">
        <ele>496.20</ele>
        <time>2012-07-22T08:36:52Z</time>
      </trkpt>
      <trkpt lat="41.619141000" lon="2.469395100">
        <ele>496.20</ele>
        <time>2012-07-22T08:36:57Z</time>
      </trkpt>
      <trkpt lat="41.619198000" lon="2.469134100">
        <ele>494.70</ele>
        <time>2012-07-22T08:37:00Z</time>
      </trkpt>
      <trkpt lat="41.619270000" lon="2.468946100">
        <ele>494.70</ele>
        <time>2012-07-22T08:37:04Z</time>
      </trkpt>
      <trkpt lat="41.619221000" lon="2.468883100">
        <ele>493.30</ele>
        <time>2012-07-22T08:37:09Z</time>
      </trkpt>
      <trkpt lat="41.619164000" lon="2.468946100">
        <ele>492.80</ele>
        <time>2012-07-22T08:37:13Z</time>
      </trkpt>
      <trkpt lat="41.619125000" lon="2.469017100">
        <ele>492.30</ele>
        <time>2012-07-22T08:37:14Z</time>
      </trkpt>
      <trkpt lat="41.618965000" lon="2.469312100">
        <ele>489.00</ele>
        <time>2012-07-22T08:37:21Z</time>
      </trkpt>
      <trkpt lat="41.618881000" lon="2.469448100">
        <ele>486.10</ele>
        <time>2012-07-22T08:37:25Z</time>
      </trkpt>
      <trkpt lat="41.618755000" lon="2.469460100">
        <ele>483.20</ele>
        <time>2012-07-22T08:37:30Z</time>
      </trkpt>
      <trkpt lat="41.618706000" lon="2.469308100">
        <ele>481.80</ele>
        <time>2012-07-22T08:37:35Z</time>
      </trkpt>
      <trkpt lat="41.618752000" lon="2.468879100">
        <ele>481.80</ele>
        <time>2012-07-22T08:37:44Z</time>
      </trkpt>
      <trkpt lat="41.618732000" lon="2.468829100">
        <ele>481.80</ele>
        <time>2012-07-22T08:37:46Z</time>
      </trkpt>
      <trkpt lat="41.618534000" lon="2.468564100">
        <ele>477.90</ele>
        <time>2012-07-22T08:37:51Z</time>
      </trkpt>
      <trkpt lat="41.618443000" lon="2.468357100">
        <ele>474.10</ele>
        <time>2012-07-22T08:37:53Z</time>
      </trkpt>
      <trkpt lat="41.618462000" lon="2.468092100">
        <ele>471.20</ele>
        <time>2012-07-22T08:37:58Z</time>
      </trkpt>
      <trkpt lat="41.618519000" lon="2.467706100">
        <ele>470.70</ele>
        <time>2012-07-22T08:38:03Z</time>
      </trkpt>
      <trkpt lat="41.618481000" lon="2.467479100">
        <ele>472.10</ele>
        <time>2012-07-22T08:38:08Z</time>
      </trkpt>
      <trkpt lat="41.618488000" lon="2.467180100">
        <ele>473.60</ele>
        <time>2012-07-22T08:38:15Z</time>
      </trkpt>
      <trkpt lat="41.618538000" lon="2.466988100">
        <ele>477.00</ele>
        <time>2012-07-22T08:38:21Z</time>
      </trkpt>
      <trkpt lat="41.618614000" lon="2.466829100">
        <ele>480.80</ele>
        <time>2012-07-22T08:38:24Z</time>
      </trkpt>
      <trkpt lat="41.618637000" lon="2.466778100">
        <ele>480.80</ele>
        <time>2012-07-22T08:38:26Z</time>
      </trkpt>
      <trkpt lat="41.618675000" lon="2.466472100">
        <ele>481.30</ele>
        <time>2012-07-22T08:38:33Z</time>
      </trkpt>
      <trkpt lat="41.618599000" lon="2.466144100">
        <ele>481.30</ele>
        <time>2012-07-22T08:38:40Z</time>
      </trkpt>
      <trkpt lat="41.618557000" lon="2.465913100">
        <ele>481.30</ele>
        <time>2012-07-22T08:38:47Z</time>
      </trkpt>
      <trkpt lat="41.618629000" lon="2.465758100">
        <ele>482.20</ele>
        <time>2012-07-22T08:38:54Z</time>
      </trkpt>
      <trkpt lat="41.618752000" lon="2.465594100">
        <ele>484.20</ele>
        <time>2012-07-22T08:39:01Z</time>
      </trkpt>
      <trkpt lat="41.618820000" lon="2.465386100">
        <ele>485.10</ele>
        <time>2012-07-22T08:39:08Z</time>
      </trkpt>
      <trkpt lat="41.618813000" lon="2.465154100">
        <ele>487.50</ele>
        <time>2012-07-22T08:39:16Z</time>
      </trkpt>
      <trkpt lat="41.618805000" lon="2.465042100">
        <ele>490.90</ele>
        <time>2012-07-22T08:39:20Z</time>
      </trkpt>
      <trkpt lat="41.618793000" lon="2.464893100">
        <ele>494.30</ele>
        <time>2012-07-22T08:39:25Z</time>
      </trkpt>
      <trkpt lat="41.618706000" lon="2.464578100">
        <ele>494.30</ele>
        <time>2012-07-22T08:39:32Z</time>
      </trkpt>
      <trkpt lat="41.618649000" lon="2.464151100">
        <ele>492.80</ele>
        <time>2012-07-22T08:39:41Z</time>
      </trkpt>
      <trkpt lat="41.618622000" lon="2.463811100">
        <ele>491.40</ele>
        <time>2012-07-22T08:39:48Z</time>
      </trkpt>
      <trkpt lat="41.618526000" lon="2.463495100">
        <ele>490.40</ele>
        <time>2012-07-22T08:39:53Z</time>
      </trkpt>
      <trkpt lat="41.618561000" lon="2.463244100">
        <ele>489.50</ele>
        <time>2012-07-22T08:39:55Z</time>
      </trkpt>
      <trkpt lat="41.618629000" lon="2.463027100">
        <ele>487.00</ele>
        <time>2012-07-22T08:39:58Z</time>
      </trkpt>
      <trkpt lat="41.618637000" lon="2.462788100">
        <ele>484.60</ele>
        <time>2012-07-22T08:40:02Z</time>
      </trkpt>
      <trkpt lat="41.618546000" lon="2.462480100">
        <ele>484.60</ele>
        <time>2012-07-22T08:40:10Z</time>
      </trkpt>
      <trkpt lat="41.618534000" lon="2.462448100">
        <ele>486.10</ele>
        <time>2012-07-22T08:40:12Z</time>
      </trkpt>
      <trkpt lat="41.618412000" lon="2.462289100">
        <ele>486.60</ele>
        <time>2012-07-22T08:40:19Z</time>
      </trkpt>
      <trkpt lat="41.618313000" lon="2.462134100">
        <ele>488.00</ele>
        <time>2012-07-22T08:40:24Z</time>
      </trkpt>
      <trkpt lat="41.618195000" lon="2.461947100">
        <ele>488.50</ele>
        <time>2012-07-22T08:40:31Z</time>
      </trkpt>
      <trkpt lat="41.618114000" lon="2.461720100">
        <ele>489.50</ele>
        <time>2012-07-22T08:40:38Z</time>
      </trkpt>
      <trkpt lat="41.618023000" lon="2.461493100">
        <ele>490.90</ele>
        <time>2012-07-22T08:40:47Z</time>
      </trkpt>
      <trkpt lat="41.618004000" lon="2.461465100">
        <ele>490.90</ele>
        <time>2012-07-22T08:40:49Z</time>
      </trkpt>
      <trkpt lat="41.617970000" lon="2.461383100">
        <ele>495.20</ele>
        <time>2012-07-22T08:40:56Z</time>
      </trkpt>
      <trkpt lat="41.617962000" lon="2.461238100">
        <ele>498.60</ele>
        <time>2012-07-22T08:41:01Z</time>
      </trkpt>
      <trkpt lat="41.618008000" lon="2.461016100">
        <ele>498.10</ele>
        <time>2012-07-22T08:41:08Z</time>
      </trkpt>
      <trkpt lat="41.618027000" lon="2.460932100">
        <ele>498.10</ele>
        <time>2012-07-22T08:41:11Z</time>
      </trkpt>
      <trkpt lat="41.618019000" lon="2.460820100">
        <ele>497.10</ele>
        <time>2012-07-22T08:41:18Z</time>
      </trkpt>
      <trkpt lat="41.618011000" lon="2.460701100">
        <ele>497.10</ele>
        <time>2012-07-22T08:41:25Z</time>
      </trkpt>
      <trkpt lat="41.618050000" lon="2.460521100">
        <ele>497.10</ele>
        <time>2012-07-22T08:41:32Z</time>
      </trkpt>
      <trkpt lat="41.618099000" lon="2.460325100">
        <ele>497.10</ele>
        <time>2012-07-22T08:41:41Z</time>
      </trkpt>
      <trkpt lat="41.618122000" lon="2.460207100">
        <ele>497.10</ele>
        <time>2012-07-22T08:41:50Z</time>
      </trkpt>
      <trkpt lat="41.618122000" lon="2.460207100">
        <ele>497.10</ele>
        <time>2012-07-22T08:42:02Z</time>
      </trkpt>
      <trkpt lat="41.618149000" lon="2.460087100">
        <ele>497.60</ele>
        <time>2012-07-22T08:42:09Z</time>
      </trkpt>
      <trkpt lat="41.618179000" lon="2.459997100">
        <ele>498.10</ele>
        <time>2012-07-22T08:42:12Z</time>
      </trkpt>
      <trkpt lat="41.618248000" lon="2.459741100">
        <ele>499.10</ele>
        <time>2012-07-22T08:42:21Z</time>
      </trkpt>
      <trkpt lat="41.618256000" lon="2.459681100">
        <ele>498.60</ele>
        <time>2012-07-22T08:42:23Z</time>
      </trkpt>
      <trkpt lat="41.618259000" lon="2.459537100">
        <ele>498.60</ele>
        <time>2012-07-22T08:42:26Z</time>
      </trkpt>
      <trkpt lat="41.618305000" lon="2.459460100">
        <ele>499.10</ele>
        <time>2012-07-22T08:42:30Z</time>
      </trkpt>
      <trkpt lat="41.618313000" lon="2.459252100">
        <ele>500.00</ele>
        <time>2012-07-22T08:42:35Z</time>
      </trkpt>
      <trkpt lat="41.618233000" lon="2.458964100">
        <ele>501.00</ele>
        <time>2012-07-22T08:42:44Z</time>
      </trkpt>
      <trkpt lat="41.618179000" lon="2.458712100">
        <ele>502.40</ele>
        <time>2012-07-22T08:42:52Z</time>
      </trkpt>
      <trkpt lat="41.618141000" lon="2.458469100">
        <ele>505.80</ele>
        <time>2012-07-22T08:43:01Z</time>
      </trkpt>
      <trkpt lat="41.618141000" lon="2.458319100">
        <ele>509.20</ele>
        <time>2012-07-22T08:43:06Z</time>
      </trkpt>
      <trkpt lat="41.618141000" lon="2.458023100">
        <ele>509.60</ele>
        <time>2012-07-22T08:43:17Z</time>
      </trkpt>
      <trkpt lat="41.618168000" lon="2.457829100">
        <ele>510.60</ele>
        <time>2012-07-22T08:43:24Z</time>
      </trkpt>
      <trkpt lat="41.618202000" lon="2.457679100">
        <ele>512.50</ele>
        <time>2012-07-22T08:43:31Z</time>
      </trkpt>
      <trkpt lat="41.618225000" lon="2.457605100">
        <ele>514.90</ele>
        <time>2012-07-22T08:43:36Z</time>
      </trkpt>
      <trkpt lat="41.618248000" lon="2.457501100">
        <ele>518.80</ele>
        <time>2012-07-22T08:43:41Z</time>
      </trkpt>
      <trkpt lat="41.618237000" lon="2.457352100">
        <ele>520.20</ele>
        <time>2012-07-22T08:43:48Z</time>
      </trkpt>
      <trkpt lat="41.618248000" lon="2.457140100">
        <ele>520.20</ele>
        <time>2012-07-22T08:43:55Z</time>
      </trkpt>
      <trkpt lat="41.618221000" lon="2.456850100">
        <ele>519.20</ele>
        <time>2012-07-22T08:44:02Z</time>
      </trkpt>
      <trkpt lat="41.618130000" lon="2.456698100">
        <ele>519.20</ele>
        <time>2012-07-22T08:44:09Z</time>
      </trkpt>
      <trkpt lat="41.618114000" lon="2.456539100">
        <ele>519.20</ele>
        <time>2012-07-22T08:44:14Z</time>
      </trkpt>
      <trkpt lat="41.618019000" lon="2.456247100">
        <ele>519.20</ele>
        <time>2012-07-22T08:44:23Z</time>
      </trkpt>
      <trkpt lat="41.617908000" lon="2.455981100">
        <ele>519.20</ele>
        <time>2012-07-22T08:44:30Z</time>
      </trkpt>
      <trkpt lat="41.617847000" lon="2.455700100">
        <ele>519.20</ele>
        <time>2012-07-22T08:44:39Z</time>
      </trkpt>
      <trkpt lat="41.617809000" lon="2.455425100">
        <ele>520.20</ele>
        <time>2012-07-22T08:44:47Z</time>
      </trkpt>
      <trkpt lat="41.617748000" lon="2.455196100">
        <ele>520.20</ele>
        <time>2012-07-22T08:44:54Z</time>
      </trkpt>
      <trkpt lat="41.617668000" lon="2.454952100">
        <ele>520.20</ele>
        <time>2012-07-22T08:45:01Z</time>
      </trkpt>
      <trkpt lat="41.617550000" lon="2.454705100">
        <ele>520.20</ele>
        <time>2012-07-22T08:45:10Z</time>
      </trkpt>
      <trkpt lat="41.617493000" lon="2.454595100">
        <ele>520.20</ele>
        <time>2012-07-22T08:45:12Z</time>
      </trkpt>
      <trkpt lat="41.617332000" lon="2.454247100">
        <ele>520.20</ele>
        <time>2012-07-22T08:45:17Z</time>
      </trkpt>
      <trkpt lat="41.617195000" lon="2.454085100">
        <ele>519.70</ele>
        <time>2012-07-22T08:45:22Z</time>
      </trkpt>
      <trkpt lat="41.616913000" lon="2.453928100">
        <ele>519.20</ele>
        <time>2012-07-22T08:45:29Z</time>
      </trkpt>
      <trkpt lat="41.616726000" lon="2.453744100">
        <ele>519.20</ele>
        <time>2012-07-22T08:45:38Z</time>
      </trkpt>
      <trkpt lat="41.616627000" lon="2.453513100">
        <ele>519.20</ele>
        <time>2012-07-22T08:45:45Z</time>
      </trkpt>
      <trkpt lat="41.616508000" lon="2.453350100">
        <ele>520.70</ele>
        <time>2012-07-22T08:45:52Z</time>
      </trkpt>
      <trkpt lat="41.616375000" lon="2.453216100">
        <ele>522.10</ele>
        <time>2012-07-22T08:45:59Z</time>
      </trkpt>
      <trkpt lat="41.616158000" lon="2.453079100">
        <ele>523.60</ele>
        <time>2012-07-22T08:46:09Z</time>
      </trkpt>
      <trkpt lat="41.615952000" lon="2.452927100">
        <ele>524.10</ele>
        <time>2012-07-22T08:46:18Z</time>
      </trkpt>
      <trkpt lat="41.615772000" lon="2.452756100">
        <ele>524.10</ele>
        <time>2012-07-22T08:46:27Z</time>
      </trkpt>
      <trkpt lat="41.615650000" lon="2.452484100">
        <ele>524.10</ele>
        <time>2012-07-22T08:46:35Z</time>
      </trkpt>
      <trkpt lat="41.615631000" lon="2.452212100">
        <ele>524.10</ele>
        <time>2012-07-22T08:46:41Z</time>
      </trkpt>
      <trkpt lat="41.615707000" lon="2.452061100">
        <ele>524.10</ele>
        <time>2012-07-22T08:46:46Z</time>
      </trkpt>
      <trkpt lat="41.615841000" lon="2.451955100">
        <ele>523.10</ele>
        <time>2012-07-22T08:46:49Z</time>
      </trkpt>
      <trkpt lat="41.615929000" lon="2.451912100">
        <ele>521.20</ele>
        <time>2012-07-22T08:46:51Z</time>
      </trkpt>
      <trkpt lat="41.616108000" lon="2.451770100">
        <ele>517.80</ele>
        <time>2012-07-22T08:46:56Z</time>
      </trkpt>
      <trkpt lat="41.616241000" lon="2.451533100">
        <ele>513.50</ele>
        <time>2012-07-22T08:47:01Z</time>
      </trkpt>
      <trkpt lat="41.616333000" lon="2.451113100">
        <ele>509.60</ele>
        <time>2012-07-22T08:47:07Z</time>
      </trkpt>
      <trkpt lat="41.616360000" lon="2.450933100">
        <ele>508.70</ele>
        <time>2012-07-22T08:47:08Z</time>
      </trkpt>
      <trkpt lat="41.616364000" lon="2.450843100">
        <ele>507.20</ele>
        <time>2012-07-22T08:47:10Z</time>
      </trkpt>
      <trkpt lat="41.616489000" lon="2.450706100">
        <ele>506.30</ele>
        <time>2012-07-22T08:47:15Z</time>
      </trkpt>
      <trkpt lat="41.616592000" lon="2.450538100">
        <ele>506.30</ele>
        <time>2012-07-22T08:47:19Z</time>
      </trkpt>
      <trkpt lat="41.616581000" lon="2.450288100">
        <ele>506.30</ele>
        <time>2012-07-22T08:47:24Z</time>
      </trkpt>
      <trkpt lat="41.616577000" lon="2.450039100">
        <ele>503.90</ele>
        <time>2012-07-22T08:47:29Z</time>
      </trkpt>
      <trkpt lat="41.616631000" lon="2.449965100">
        <ele>501.50</ele>
        <time>2012-07-22T08:47:31Z</time>
      </trkpt>
      <trkpt lat="41.616814000" lon="2.449796100">
        <ele>495.70</ele>
        <time>2012-07-22T08:47:36Z</time>
      </trkpt>
      <trkpt lat="41.616886000" lon="2.449651100">
        <ele>494.30</ele>
        <time>2012-07-22T08:47:38Z</time>
      </trkpt>
      <trkpt lat="41.617046000" lon="2.449142100">
        <ele>493.80</ele>
        <time>2012-07-22T08:47:43Z</time>
      </trkpt>
      <trkpt lat="41.617188000" lon="2.448824100">
        <ele>493.80</ele>
        <time>2012-07-22T08:47:48Z</time>
      </trkpt>
      <trkpt lat="41.617226000" lon="2.448563100">
        <ele>493.30</ele>
        <time>2012-07-22T08:47:52Z</time>
      </trkpt>
      <trkpt lat="41.617237000" lon="2.448397100">
        <ele>491.40</ele>
        <time>2012-07-22T08:47:54Z</time>
      </trkpt>
      <trkpt lat="41.617332000" lon="2.448055100">
        <ele>485.60</ele>
        <time>2012-07-22T08:47:57Z</time>
      </trkpt>
      <trkpt lat="41.617371000" lon="2.447883100">
        <ele>482.20</ele>
        <time>2012-07-22T08:47:59Z</time>
      </trkpt>
      <trkpt lat="41.617390000" lon="2.447792100">
        <ele>480.80</ele>
        <time>2012-07-22T08:48:01Z</time>
      </trkpt>
      <trkpt lat="41.617413000" lon="2.447382100">
        <ele>475.00</ele>
        <time>2012-07-22T08:48:06Z</time>
      </trkpt>
      <trkpt lat="41.617416000" lon="2.447295100">
        <ele>475.00</ele>
        <time>2012-07-22T08:48:06Z</time>
      </trkpt>
      <trkpt lat="41.617523000" lon="2.446906100">
        <ele>477.90</ele>
        <time>2012-07-22T08:48:13Z</time>
      </trkpt>
      <trkpt lat="41.617641000" lon="2.446562100">
        <ele>479.80</ele>
        <time>2012-07-22T08:48:20Z</time>
      </trkpt>
      <trkpt lat="41.617798000" lon="2.446372100">
        <ele>476.00</ele>
        <time>2012-07-22T08:48:25Z</time>
      </trkpt>
      <trkpt lat="41.617867000" lon="2.446210100">
        <ele>472.10</ele>
        <time>2012-07-22T08:48:30Z</time>
      </trkpt>
      <trkpt lat="41.618080000" lon="2.445961100">
        <ele>471.20</ele>
        <time>2012-07-22T08:48:37Z</time>
      </trkpt>
      <trkpt lat="41.618217000" lon="2.445763100">
        <ele>470.70</ele>
        <time>2012-07-22T08:48:44Z</time>
      </trkpt>
      <trkpt lat="41.618305000" lon="2.445514100">
        <ele>469.30</ele>
        <time>2012-07-22T08:48:49Z</time>
      </trkpt>
      <trkpt lat="41.618362000" lon="2.445230100">
        <ele>468.30</ele>
        <time>2012-07-22T08:48:55Z</time>
      </trkpt>
      <trkpt lat="41.618401000" lon="2.444989100">
        <ele>466.90</ele>
        <time>2012-07-22T08:49:00Z</time>
      </trkpt>
      <trkpt lat="41.618420000" lon="2.444752100">
        <ele>463.50</ele>
        <time>2012-07-22T08:49:05Z</time>
      </trkpt>
      <trkpt lat="41.618450000" lon="2.444573100">
        <ele>460.10</ele>
        <time>2012-07-22T08:49:09Z</time>
      </trkpt>
      <trkpt lat="41.618488000" lon="2.444421100">
        <ele>459.20</ele>
        <time>2012-07-22T08:49:12Z</time>
      </trkpt>
      <trkpt lat="41.618565000" lon="2.444353100">
        <ele>459.20</ele>
        <time>2012-07-22T08:49:19Z</time>
      </trkpt>
      <trkpt lat="41.618565000" lon="2.444346100">
        <ele>459.20</ele>
        <time>2012-07-22T08:49:31Z</time>
      </trkpt>
      <trkpt lat="41.618656000" lon="2.444471100">
        <ele>459.20</ele>
        <time>2012-07-22T08:49:42Z</time>
      </trkpt>
      <trkpt lat="41.618698000" lon="2.444626100">
        <ele>458.70</ele>
        <time>2012-07-22T08:49:47Z</time>
      </trkpt>
      <trkpt lat="41.618778000" lon="2.444936100">
        <ele>456.80</ele>
        <time>2012-07-22T08:49:54Z</time>
      </trkpt>
      <trkpt lat="41.618839000" lon="2.445219100">
        <ele>455.80</ele>
        <time>2012-07-22T08:49:59Z</time>
      </trkpt>
      <trkpt lat="41.618809000" lon="2.445394100">
        <ele>452.40</ele>
        <time>2012-07-22T08:50:04Z</time>
      </trkpt>
      <trkpt lat="41.618839000" lon="2.445653100">
        <ele>450.00</ele>
        <time>2012-07-22T08:50:10Z</time>
      </trkpt>
      <trkpt lat="41.619034000" lon="2.445803100">
        <ele>450.00</ele>
        <time>2012-07-22T08:50:17Z</time>
      </trkpt>
      <trkpt lat="41.619213000" lon="2.445867100">
        <ele>451.50</ele>
        <time>2012-07-22T08:50:24Z</time>
      </trkpt>
      <trkpt lat="41.619396000" lon="2.445925100">
        <ele>452.00</ele>
        <time>2012-07-22T08:50:32Z</time>
      </trkpt>
      <trkpt lat="41.619564000" lon="2.445940100">
        <ele>453.40</ele>
        <time>2012-07-22T08:50:39Z</time>
      </trkpt>
      <trkpt lat="41.619587000" lon="2.445932100">
        <ele>453.90</ele>
        <time>2012-07-22T08:50:43Z</time>
      </trkpt>
      <trkpt lat="41.619614000" lon="2.445904100">
        <ele>454.40</ele>
        <time>2012-07-22T08:50:50Z</time>
      </trkpt>
      <trkpt lat="41.619682000" lon="2.445834100">
        <ele>455.30</ele>
        <time>2012-07-22T08:50:55Z</time>
      </trkpt>
      <trkpt lat="41.619759000" lon="2.445845100">
        <ele>456.30</ele>
        <time>2012-07-22T08:51:00Z</time>
      </trkpt>
      <trkpt lat="41.619743000" lon="2.445976100">
        <ele>456.80</ele>
        <time>2012-07-22T08:51:05Z</time>
      </trkpt>
      <trkpt lat="41.619778000" lon="2.446147100">
        <ele>457.70</ele>
        <time>2012-07-22T08:51:12Z</time>
      </trkpt>
      <trkpt lat="41.619827000" lon="2.446195100">
        <ele>458.70</ele>
        <time>2012-07-22T08:51:19Z</time>
      </trkpt>
      <trkpt lat="41.619831000" lon="2.446194100">
        <ele>459.20</ele>
        <time>2012-07-22T08:51:30Z</time>
      </trkpt>
      <trkpt lat="41.619881000" lon="2.446229100">
        <ele>459.60</ele>
        <time>2012-07-22T08:51:35Z</time>
      </trkpt>
      <trkpt lat="41.619938000" lon="2.446231100">
        <ele>459.60</ele>
        <time>2012-07-22T08:51:38Z</time>
      </trkpt>
      <trkpt lat="41.620018000" lon="2.446110100">
        <ele>461.10</ele>
        <time>2012-07-22T08:51:47Z</time>
      </trkpt>
      <trkpt lat="41.620075000" lon="2.446050100">
        <ele>461.60</ele>
        <time>2012-07-22T08:51:52Z</time>
      </trkpt>
      <trkpt lat="41.620113000" lon="2.446100100">
        <ele>461.60</ele>
        <time>2012-07-22T08:51:59Z</time>
      </trkpt>
      <trkpt lat="41.620178000" lon="2.446121100">
        <ele>462.00</ele>
        <time>2012-07-22T08:52:05Z</time>
      </trkpt>
      <trkpt lat="41.620182000" lon="2.446116100">
        <ele>462.00</ele>
        <time>2012-07-22T08:52:11Z</time>
      </trkpt>
      <trkpt lat="41.620182000" lon="2.446118100">
        <ele>462.00</ele>
        <time>2012-07-22T08:52:27Z</time>
      </trkpt>
      <trkpt lat="41.620178000" lon="2.446117100">
        <ele>462.00</ele>
        <time>2012-07-22T08:52:50Z</time>
      </trkpt>
      <trkpt lat="41.620098000" lon="2.446123100">
        <ele>462.00</ele>
        <time>2012-07-22T08:52:57Z</time>
      </trkpt>
      <trkpt lat="41.620033000" lon="2.446034100">
        <ele>462.00</ele>
        <time>2012-07-22T08:53:02Z</time>
      </trkpt>
      <trkpt lat="41.619972000" lon="2.445742100">
        <ele>462.00</ele>
        <time>2012-07-22T08:53:11Z</time>
      </trkpt>
      <trkpt lat="41.619987000" lon="2.445553100">
        <ele>462.50</ele>
        <time>2012-07-22T08:53:18Z</time>
      </trkpt>
      <trkpt lat="41.620117000" lon="2.445367100">
        <ele>462.50</ele>
        <time>2012-07-22T08:53:23Z</time>
      </trkpt>
      <trkpt lat="41.620205000" lon="2.445173100">
        <ele>462.50</ele>
        <time>2012-07-22T08:53:28Z</time>
      </trkpt>
      <trkpt lat="41.620312000" lon="2.445117100">
        <ele>462.50</ele>
        <time>2012-07-22T08:53:35Z</time>
      </trkpt>
      <trkpt lat="41.620419000" lon="2.445177100">
        <ele>463.00</ele>
        <time>2012-07-22T08:53:42Z</time>
      </trkpt>
      <trkpt lat="41.620430000" lon="2.445188100">
        <ele>463.00</ele>
        <time>2012-07-22T08:53:44Z</time>
      </trkpt>
      <trkpt lat="41.620537000" lon="2.445151100">
        <ele>464.50</ele>
        <time>2012-07-22T08:53:51Z</time>
      </trkpt>
      <trkpt lat="41.620594000" lon="2.445112100">
        <ele>465.40</ele>
        <time>2012-07-22T08:53:56Z</time>
      </trkpt>
      <trkpt lat="41.620686000" lon="2.445049100">
        <ele>466.40</ele>
        <time>2012-07-22T08:54:03Z</time>
      </trkpt>
      <trkpt lat="41.620712000" lon="2.445026100">
        <ele>466.90</ele>
        <time>2012-07-22T08:54:05Z</time>
      </trkpt>
      <trkpt lat="41.620831000" lon="2.444956100">
        <ele>467.30</ele>
        <time>2012-07-22T08:54:12Z</time>
      </trkpt>
      <trkpt lat="41.620861000" lon="2.444944100">
        <ele>467.30</ele>
        <time>2012-07-22T08:54:13Z</time>
      </trkpt>
      <trkpt lat="41.621090000" lon="2.444860100">
        <ele>467.30</ele>
        <time>2012-07-22T08:54:19Z</time>
      </trkpt>
      <trkpt lat="41.621174000" lon="2.444822100">
        <ele>464.00</ele>
        <time>2012-07-22T08:54:22Z</time>
      </trkpt>
      <trkpt lat="41.621265000" lon="2.444806100">
        <ele>462.50</ele>
        <time>2012-07-22T08:54:24Z</time>
      </trkpt>
      <trkpt lat="41.621429000" lon="2.444798100">
        <ele>459.60</ele>
        <time>2012-07-22T08:54:26Z</time>
      </trkpt>
      <trkpt lat="41.621681000" lon="2.444887100">
        <ele>456.80</ele>
        <time>2012-07-22T08:54:33Z</time>
      </trkpt>
      <trkpt lat="41.621796000" lon="2.445128100">
        <ele>455.80</ele>
        <time>2012-07-22T08:54:38Z</time>
      </trkpt>
      <trkpt lat="41.621864000" lon="2.445252100">
        <ele>455.30</ele>
        <time>2012-07-22T08:54:41Z</time>
      </trkpt>
      <trkpt lat="41.621906000" lon="2.445355100">
        <ele>455.30</ele>
        <time>2012-07-22T08:54:43Z</time>
      </trkpt>
      <trkpt lat="41.621941000" lon="2.445492100">
        <ele>454.80</ele>
        <time>2012-07-22T08:54:45Z</time>
      </trkpt>
      <trkpt lat="41.622051000" lon="2.445737100">
        <ele>452.90</ele>
        <time>2012-07-22T08:54:50Z</time>
      </trkpt>
      <trkpt lat="41.622093000" lon="2.445770100">
        <ele>451.00</ele>
        <time>2012-07-22T08:54:52Z</time>
      </trkpt>
      <trkpt lat="41.622143000" lon="2.445697100">
        <ele>446.70</ele>
        <time>2012-07-22T08:54:57Z</time>
      </trkpt>
      <trkpt lat="41.622234000" lon="2.445657100">
        <ele>446.20</ele>
        <time>2012-07-22T08:55:02Z</time>
      </trkpt>
      <trkpt lat="41.622314000" lon="2.445747100">
        <ele>446.20</ele>
        <time>2012-07-22T08:55:06Z</time>
      </trkpt>
      <trkpt lat="41.622486000" lon="2.445992100">
        <ele>446.20</ele>
        <time>2012-07-22T08:55:13Z</time>
      </trkpt>
      <trkpt lat="41.622627000" lon="2.446165100">
        <ele>446.20</ele>
        <time>2012-07-22T08:55:18Z</time>
      </trkpt>
      <trkpt lat="41.622845000" lon="2.446255100">
        <ele>446.20</ele>
        <time>2012-07-22T08:55:25Z</time>
      </trkpt>
      <trkpt lat="41.623047000" lon="2.446183100">
        <ele>445.70</ele>
        <time>2012-07-22T08:55:30Z</time>
      </trkpt>
      <trkpt lat="41.623055000" lon="2.446162100">
        <ele>445.70</ele>
        <time>2012-07-22T08:55:32Z</time>
      </trkpt>
      <trkpt lat="41.623085000" lon="2.445987100">
        <ele>445.70</ele>
        <time>2012-07-22T08:55:39Z</time>
      </trkpt>
      <trkpt lat="41.623112000" lon="2.445620100">
        <ele>445.20</ele>
        <time>2012-07-22T08:55:48Z</time>
      </trkpt>
      <trkpt lat="41.623112000" lon="2.445569100">
        <ele>445.20</ele>
        <time>2012-07-22T08:55:49Z</time>
      </trkpt>
      <trkpt lat="41.623215000" lon="2.445554100">
        <ele>443.80</ele>
        <time>2012-07-22T08:55:53Z</time>
      </trkpt>
      <trkpt lat="41.623230000" lon="2.445636100">
        <ele>443.30</ele>
        <time>2012-07-22T08:55:56Z</time>
      </trkpt>
      <trkpt lat="41.623257000" lon="2.445715100">
        <ele>442.80</ele>
        <time>2012-07-22T08:55:58Z</time>
      </trkpt>
      <trkpt lat="41.623371000" lon="2.445981100">
        <ele>440.40</ele>
        <time>2012-07-22T08:56:03Z</time>
      </trkpt>
      <trkpt lat="41.623405000" lon="2.446099100">
        <ele>438.50</ele>
        <time>2012-07-22T08:56:05Z</time>
      </trkpt>
      <trkpt lat="41.623482000" lon="2.446268100">
        <ele>434.60</ele>
        <time>2012-07-22T08:56:10Z</time>
      </trkpt>
      <trkpt lat="41.623508000" lon="2.446297100">
        <ele>433.70</ele>
        <time>2012-07-22T08:56:10Z</time>
      </trkpt>
      <trkpt lat="41.623581000" lon="2.446388100">
        <ele>432.20</ele>
        <time>2012-07-22T08:56:12Z</time>
      </trkpt>
      <trkpt lat="41.623802000" lon="2.446496100">
        <ele>431.30</ele>
        <time>2012-07-22T08:56:17Z</time>
      </trkpt>
      <trkpt lat="41.623913000" lon="2.446626100">
        <ele>430.80</ele>
        <time>2012-07-22T08:56:21Z</time>
      </trkpt>
      <trkpt lat="41.624001000" lon="2.446823100">
        <ele>430.80</ele>
        <time>2012-07-22T08:56:24Z</time>
      </trkpt>
      <trkpt lat="41.624226000" lon="2.447077100">
        <ele>429.40</ele>
        <time>2012-07-22T08:56:29Z</time>
      </trkpt>
      <trkpt lat="41.624435000" lon="2.447159100">
        <ele>428.90</ele>
        <time>2012-07-22T08:56:35Z</time>
      </trkpt>
      <trkpt lat="41.624516000" lon="2.447024100">
        <ele>428.40</ele>
        <time>2012-07-22T08:56:40Z</time>
      </trkpt>
      <trkpt lat="41.624580000" lon="2.446884100">
        <ele>427.40</ele>
        <time>2012-07-22T08:56:45Z</time>
      </trkpt>
      <trkpt lat="41.624611000" lon="2.446812100">
        <ele>427.40</ele>
        <time>2012-07-22T08:56:47Z</time>
      </trkpt>
      <trkpt lat="41.624718000" lon="2.446623100">
        <ele>426.00</ele>
        <time>2012-07-22T08:56:52Z</time>
      </trkpt>
      <trkpt lat="41.624657000" lon="2.446418100">
        <ele>425.00</ele>
        <time>2012-07-22T08:56:59Z</time>
      </trkpt>
      <trkpt lat="41.624569000" lon="2.446288100">
        <ele>423.60</ele>
        <time>2012-07-22T08:57:02Z</time>
      </trkpt>
      <trkpt lat="41.624550000" lon="2.446234100">
        <ele>420.20</ele>
        <time>2012-07-22T08:57:08Z</time>
      </trkpt>
      <trkpt lat="41.624550000" lon="2.446234100">
        <ele>420.20</ele>
        <time>2012-07-22T08:57:11Z</time>
      </trkpt>
      <trkpt lat="41.624554000" lon="2.446049100">
        <ele>418.80</ele>
        <time>2012-07-22T08:57:18Z</time>
      </trkpt>
      <trkpt lat="41.624550000" lon="2.445747100">
        <ele>418.80</ele>
        <time>2012-07-22T08:57:23Z</time>
      </trkpt>
      <trkpt lat="41.624531000" lon="2.445571100">
        <ele>418.80</ele>
        <time>2012-07-22T08:57:29Z</time>
      </trkpt>
      <trkpt lat="41.624546000" lon="2.445467100">
        <ele>418.30</ele>
        <time>2012-07-22T08:57:32Z</time>
      </trkpt>
      <trkpt lat="41.624569000" lon="2.445225100">
        <ele>417.80</ele>
        <time>2012-07-22T08:57:37Z</time>
      </trkpt>
      <trkpt lat="41.624630000" lon="2.444940100">
        <ele>416.90</ele>
        <time>2012-07-22T08:57:44Z</time>
      </trkpt>
      <trkpt lat="41.624729000" lon="2.444732100">
        <ele>415.40</ele>
        <time>2012-07-22T08:57:49Z</time>
      </trkpt>
      <trkpt lat="41.624783000" lon="2.444641100">
        <ele>412.50</ele>
        <time>2012-07-22T08:57:53Z</time>
      </trkpt>
      <trkpt lat="41.624817000" lon="2.444453100">
        <ele>408.70</ele>
        <time>2012-07-22T08:57:56Z</time>
      </trkpt>
      <trkpt lat="41.624886000" lon="2.444187100">
        <ele>407.70</ele>
        <time>2012-07-22T08:58:02Z</time>
      </trkpt>
      <trkpt lat="41.625031000" lon="2.443952100">
        <ele>407.70</ele>
        <time>2012-07-22T08:58:09Z</time>
      </trkpt>
      <trkpt lat="41.625233000" lon="2.443768100">
        <ele>407.70</ele>
        <time>2012-07-22T08:58:14Z</time>
      </trkpt>
      <trkpt lat="41.625366000" lon="2.443717100">
        <ele>407.70</ele>
        <time>2012-07-22T08:58:17Z</time>
      </trkpt>
      <trkpt lat="41.625637000" lon="2.443584100">
        <ele>407.30</ele>
        <time>2012-07-22T08:58:24Z</time>
      </trkpt>
      <trkpt lat="41.625767000" lon="2.443365100">
        <ele>406.80</ele>
        <time>2012-07-22T08:58:28Z</time>
      </trkpt>
      <trkpt lat="41.625988000" lon="2.443058100">
        <ele>402.00</ele>
        <time>2012-07-22T08:58:35Z</time>
      </trkpt>
      <trkpt lat="41.626163000" lon="2.442987100">
        <ele>397.60</ele>
        <time>2012-07-22T08:58:38Z</time>
      </trkpt>
      <trkpt lat="41.626278000" lon="2.442925100">
        <ele>395.20</ele>
        <time>2012-07-22T08:58:42Z</time>
      </trkpt>
      <trkpt lat="41.626320000" lon="2.442854100">
        <ele>395.70</ele>
        <time>2012-07-22T08:58:47Z</time>
      </trkpt>
      <trkpt lat="41.626339000" lon="2.442838100">
        <ele>398.60</ele>
        <time>2012-07-22T08:58:57Z</time>
      </trkpt>
      <trkpt lat="41.626339000" lon="2.442811100">
        <ele>398.60</ele>
        <time>2012-07-22T08:59:03Z</time>
      </trkpt>
      <trkpt lat="41.626289000" lon="2.442662100">
        <ele>397.20</ele>
        <time>2012-07-22T08:59:08Z</time>
      </trkpt>
      <trkpt lat="41.626308000" lon="2.442421100">
        <ele>396.70</ele>
        <time>2012-07-22T08:59:13Z</time>
      </trkpt>
      <trkpt lat="41.626282000" lon="2.442359100">
        <ele>396.20</ele>
        <time>2012-07-22T08:59:15Z</time>
      </trkpt>
      <trkpt lat="41.626343000" lon="2.442205100">
        <ele>394.80</ele>
        <time>2012-07-22T08:59:20Z</time>
      </trkpt>
      <trkpt lat="41.626404000" lon="2.442127100">
        <ele>393.80</ele>
        <time>2012-07-22T08:59:25Z</time>
      </trkpt>
      <trkpt lat="41.626396000" lon="2.442101100">
        <ele>393.80</ele>
        <time>2012-07-22T08:59:27Z</time>
      </trkpt>
      <trkpt lat="41.626297000" lon="2.441900100">
        <ele>392.40</ele>
        <time>2012-07-22T08:59:34Z</time>
      </trkpt>
      <trkpt lat="41.626289000" lon="2.441840100">
        <ele>389.00</ele>
        <time>2012-07-22T08:59:37Z</time>
      </trkpt>
      <trkpt lat="41.626297000" lon="2.441814100">
        <ele>386.60</ele>
        <time>2012-07-22T08:59:46Z</time>
      </trkpt>
      <trkpt lat="41.626316000" lon="2.441754100">
        <ele>387.50</ele>
        <time>2012-07-22T08:59:55Z</time>
      </trkpt>
      <trkpt lat="41.626328000" lon="2.441684100">
        <ele>387.50</ele>
        <time>2012-07-22T09:00:02Z</time>
      </trkpt>
      <trkpt lat="41.626362000" lon="2.441581100">
        <ele>387.50</ele>
        <time>2012-07-22T09:00:07Z</time>
      </trkpt>
      <trkpt lat="41.626392000" lon="2.441428100">
        <ele>389.00</ele>
        <time>2012-07-22T09:00:14Z</time>
      </trkpt>
      <trkpt lat="41.626415000" lon="2.441240100">
        <ele>389.50</ele>
        <time>2012-07-22T09:00:23Z</time>
      </trkpt>
      <trkpt lat="41.626499000" lon="2.440964100">
        <ele>390.90</ele>
        <time>2012-07-22T09:00:33Z</time>
      </trkpt>
      <trkpt lat="41.626503000" lon="2.440941100">
        <ele>391.40</ele>
        <time>2012-07-22T09:00:33Z</time>
      </trkpt>
      <trkpt lat="41.626465000" lon="2.440849100">
        <ele>392.80</ele>
        <time>2012-07-22T09:00:40Z</time>
      </trkpt>
      <trkpt lat="41.626461000" lon="2.440856100">
        <ele>392.80</ele>
        <time>2012-07-22T09:00:47Z</time>
      </trkpt>
      <trkpt lat="41.626476000" lon="2.440869100">
        <ele>393.80</ele>
        <time>2012-07-22T09:00:52Z</time>
      </trkpt>
      <trkpt lat="41.626476000" lon="2.440961100">
        <ele>393.80</ele>
        <time>2012-07-22T09:00:56Z</time>
      </trkpt>
      <trkpt lat="41.626400000" lon="2.441263100">
        <ele>393.80</ele>
        <time>2012-07-22T09:01:03Z</time>
      </trkpt>
      <trkpt lat="41.626392000" lon="2.441334100">
        <ele>392.40</ele>
        <time>2012-07-22T09:01:06Z</time>
      </trkpt>
      <trkpt lat="41.626392000" lon="2.441366100">
        <ele>392.40</ele>
        <time>2012-07-22T09:01:06Z</time>
      </trkpt>
      <trkpt lat="41.626453000" lon="2.441425100">
        <ele>390.90</ele>
        <time>2012-07-22T09:01:13Z</time>
      </trkpt>
      <trkpt lat="41.626450000" lon="2.441428100">
        <ele>390.90</ele>
        <time>2012-07-22T09:01:15Z</time>
      </trkpt>
      <trkpt lat="41.626503000" lon="2.441327100">
        <ele>390.40</ele>
        <time>2012-07-22T09:01:20Z</time>
      </trkpt>
      <trkpt lat="41.626686000" lon="2.440977100">
        <ele>389.50</ele>
        <time>2012-07-22T09:01:29Z</time>
      </trkpt>
      <trkpt lat="41.626907000" lon="2.440775100">
        <ele>388.00</ele>
        <time>2012-07-22T09:01:36Z</time>
      </trkpt>
      <trkpt lat="41.626965000" lon="2.440599100">
        <ele>388.00</ele>
        <time>2012-07-22T09:01:41Z</time>
      </trkpt>
      <trkpt lat="41.626942000" lon="2.440382100">
        <ele>387.50</ele>
        <time>2012-07-22T09:01:46Z</time>
      </trkpt>
      <trkpt lat="41.626934000" lon="2.440320100">
        <ele>387.50</ele>
        <time>2012-07-22T09:01:48Z</time>
      </trkpt>
      <trkpt lat="41.626961000" lon="2.439995100">
        <ele>385.10</ele>
        <time>2012-07-22T09:01:53Z</time>
      </trkpt>
      <trkpt lat="41.626957000" lon="2.439916100">
        <ele>382.30</ele>
        <time>2012-07-22T09:01:57Z</time>
      </trkpt>
      <trkpt lat="41.626957000" lon="2.439899100">
        <ele>380.30</ele>
        <time>2012-07-22T09:02:00Z</time>
      </trkpt>
      <trkpt lat="41.626957000" lon="2.439884100">
        <ele>380.30</ele>
        <time>2012-07-22T09:02:07Z</time>
      </trkpt>
      <trkpt lat="41.627003000" lon="2.439801100">
        <ele>381.30</ele>
        <time>2012-07-22T09:02:11Z</time>
      </trkpt>
      <trkpt lat="41.627129000" lon="2.439651100">
        <ele>381.30</ele>
        <time>2012-07-22T09:02:18Z</time>
      </trkpt>
      <trkpt lat="41.627235000" lon="2.439509100">
        <ele>381.30</ele>
        <time>2012-07-22T09:02:23Z</time>
      </trkpt>
      <trkpt lat="41.627296000" lon="2.439304100">
        <ele>376.00</ele>
        <time>2012-07-22T09:02:26Z</time>
      </trkpt>
      <trkpt lat="41.627357000" lon="2.439087100">
        <ele>371.20</ele>
        <time>2012-07-22T09:02:30Z</time>
      </trkpt>
      <trkpt lat="41.627384000" lon="2.438992100">
        <ele>369.30</ele>
        <time>2012-07-22T09:02:33Z</time>
      </trkpt>
      <trkpt lat="41.627274000" lon="2.438838100">
        <ele>365.40</ele>
        <time>2012-07-22T09:02:37Z</time>
      </trkpt>
      <trkpt lat="41.627155000" lon="2.438867100">
        <ele>365.00</ele>
        <time>2012-07-22T09:02:42Z</time>
      </trkpt>
      <trkpt lat="41.627060000" lon="2.438889100">
        <ele>365.00</ele>
        <time>2012-07-22T09:02:46Z</time>
      </trkpt>
      <trkpt lat="41.626904000" lon="2.438967100">
        <ele>365.00</ele>
        <time>2012-07-22T09:02:49Z</time>
      </trkpt>
      <trkpt lat="41.626801000" lon="2.438844100">
        <ele>364.00</ele>
        <time>2012-07-22T09:02:54Z</time>
      </trkpt>
      <trkpt lat="41.626755000" lon="2.438672100">
        <ele>363.50</ele>
        <time>2012-07-22T09:02:59Z</time>
      </trkpt>
      <trkpt lat="41.626545000" lon="2.438504100">
        <ele>359.70</ele>
        <time>2012-07-22T09:03:06Z</time>
      </trkpt>
      <trkpt lat="41.626499000" lon="2.438481100">
        <ele>359.20</ele>
        <time>2012-07-22T09:03:08Z</time>
      </trkpt>
      <trkpt lat="41.626499000" lon="2.438336100">
        <ele>355.30</ele>
        <time>2012-07-22T09:03:12Z</time>
      </trkpt>
      <trkpt lat="41.626511000" lon="2.438322100">
        <ele>355.30</ele>
        <time>2012-07-22T09:03:13Z</time>
      </trkpt>
      <trkpt lat="41.626678000" lon="2.438247100">
        <ele>359.20</ele>
        <time>2012-07-22T09:03:19Z</time>
      </trkpt>
      <trkpt lat="41.626793000" lon="2.438107100">
        <ele>359.20</ele>
        <time>2012-07-22T09:03:24Z</time>
      </trkpt>
      <trkpt lat="41.626961000" lon="2.437951100">
        <ele>357.80</ele>
        <time>2012-07-22T09:03:31Z</time>
      </trkpt>
      <trkpt lat="41.627125000" lon="2.437865100">
        <ele>353.90</ele>
        <time>2012-07-22T09:03:36Z</time>
      </trkpt>
      <trkpt lat="41.627197000" lon="2.437836100">
        <ele>350.50</ele>
        <time>2012-07-22T09:03:38Z</time>
      </trkpt>
      <trkpt lat="41.627254000" lon="2.437780100">
        <ele>348.10</ele>
        <time>2012-07-22T09:03:40Z</time>
      </trkpt>
      <trkpt lat="41.627228000" lon="2.437705100">
        <ele>343.80</ele>
        <time>2012-07-22T09:03:43Z</time>
      </trkpt>
      <trkpt lat="41.627205000" lon="2.437699100">
        <ele>343.80</ele>
        <time>2012-07-22T09:03:45Z</time>
      </trkpt>
      <trkpt lat="41.627121000" lon="2.437579100">
        <ele>346.20</ele>
        <time>2012-07-22T09:03:50Z</time>
      </trkpt>
      <trkpt lat="41.627163000" lon="2.437439100">
        <ele>349.60</ele>
        <time>2012-07-22T09:03:53Z</time>
      </trkpt>
      <trkpt lat="41.627174000" lon="2.437413100">
        <ele>350.10</ele>
        <time>2012-07-22T09:03:55Z</time>
      </trkpt>
      <trkpt lat="41.627296000" lon="2.437224100">
        <ele>351.00</ele>
        <time>2012-07-22T09:04:00Z</time>
      </trkpt>
      <trkpt lat="41.627384000" lon="2.436994100">
        <ele>351.00</ele>
        <time>2012-07-22T09:04:07Z</time>
      </trkpt>
      <trkpt lat="41.627514000" lon="2.436903100">
        <ele>349.60</ele>
        <time>2012-07-22T09:04:13Z</time>
      </trkpt>
      <trkpt lat="41.627567000" lon="2.436819100">
        <ele>349.60</ele>
        <time>2012-07-22T09:04:16Z</time>
      </trkpt>
      <trkpt lat="41.627686000" lon="2.436589100">
        <ele>349.60</ele>
        <time>2012-07-22T09:04:21Z</time>
      </trkpt>
      <trkpt lat="41.627853000" lon="2.436312100">
        <ele>349.10</ele>
        <time>2012-07-22T09:04:28Z</time>
      </trkpt>
      <trkpt lat="41.627953000" lon="2.436206100">
        <ele>349.10</ele>
        <time>2012-07-22T09:04:32Z</time>
      </trkpt>
      <trkpt lat="41.627995000" lon="2.435987100">
        <ele>349.10</ele>
        <time>2012-07-22T09:04:37Z</time>
      </trkpt>
      <trkpt lat="41.628036000" lon="2.435651100">
        <ele>348.60</ele>
        <time>2012-07-22T09:04:46Z</time>
      </trkpt>
      <trkpt lat="41.628040000" lon="2.435395100">
        <ele>347.60</ele>
        <time>2012-07-22T09:04:51Z</time>
      </trkpt>
      <trkpt lat="41.628155000" lon="2.435266100">
        <ele>347.60</ele>
        <time>2012-07-22T09:04:56Z</time>
      </trkpt>
      <trkpt lat="41.628235000" lon="2.435244100">
        <ele>347.60</ele>
        <time>2012-07-22T09:04:58Z</time>
      </trkpt>
      <trkpt lat="41.628418000" lon="2.435134100">
        <ele>346.70</ele>
        <time>2012-07-22T09:05:05Z</time>
      </trkpt>
      <trkpt lat="41.628494000" lon="2.434937100">
        <ele>346.20</ele>
        <time>2012-07-22T09:05:08Z</time>
      </trkpt>
      <trkpt lat="41.628414000" lon="2.434608100">
        <ele>345.20</ele>
        <time>2012-07-22T09:05:15Z</time>
      </trkpt>
      <trkpt lat="41.628468000" lon="2.434431100">
        <ele>342.40</ele>
        <time>2012-07-22T09:05:19Z</time>
      </trkpt>
      <trkpt lat="41.628632000" lon="2.434344100">
        <ele>339.50</ele>
        <time>2012-07-22T09:05:24Z</time>
      </trkpt>
      <trkpt lat="41.628799000" lon="2.434253100">
        <ele>340.00</ele>
        <time>2012-07-22T09:05:31Z</time>
      </trkpt>
      <trkpt lat="41.628948000" lon="2.433972100">
        <ele>340.90</ele>
        <time>2012-07-22T09:05:38Z</time>
      </trkpt>
      <trkpt lat="41.629009000" lon="2.433704100">
        <ele>340.90</ele>
        <time>2012-07-22T09:05:43Z</time>
      </trkpt>
      <trkpt lat="41.629044000" lon="2.433349100">
        <ele>340.90</ele>
        <time>2012-07-22T09:05:50Z</time>
      </trkpt>
      <trkpt lat="41.628952000" lon="2.433076100">
        <ele>340.90</ele>
        <time>2012-07-22T09:05:55Z</time>
      </trkpt>
      <trkpt lat="41.628887000" lon="2.433011100">
        <ele>340.90</ele>
        <time>2012-07-22T09:05:57Z</time>
      </trkpt>
      <trkpt lat="41.628731000" lon="2.432909100">
        <ele>340.90</ele>
        <time>2012-07-22T09:06:01Z</time>
      </trkpt>
      <trkpt lat="41.628647000" lon="2.432863100">
        <ele>339.00</ele>
        <time>2012-07-22T09:06:04Z</time>
      </trkpt>
      <trkpt lat="41.628616000" lon="2.432727100">
        <ele>337.10</ele>
        <time>2012-07-22T09:06:06Z</time>
      </trkpt>
      <trkpt lat="41.628723000" lon="2.432603100">
        <ele>333.70</ele>
        <time>2012-07-22T09:06:11Z</time>
      </trkpt>
      <trkpt lat="41.628773000" lon="2.432575100">
        <ele>333.70</ele>
        <time>2012-07-22T09:06:11Z</time>
      </trkpt>
      <trkpt lat="41.628864000" lon="2.432524100">
        <ele>333.20</ele>
        <time>2012-07-22T09:06:13Z</time>
      </trkpt>
      <trkpt lat="41.629044000" lon="2.432381100">
        <ele>333.20</ele>
        <time>2012-07-22T09:06:18Z</time>
      </trkpt>
      <trkpt lat="41.629009000" lon="2.432222100">
        <ele>333.20</ele>
        <time>2012-07-22T09:06:23Z</time>
      </trkpt>
      <trkpt lat="41.628956000" lon="2.432177100">
        <ele>333.20</ele>
        <time>2012-07-22T09:06:25Z</time>
      </trkpt>
      <trkpt lat="41.628761000" lon="2.432090100">
        <ele>334.70</ele>
        <time>2012-07-22T09:06:32Z</time>
      </trkpt>
      <trkpt lat="41.628529000" lon="2.431964100">
        <ele>336.10</ele>
        <time>2012-07-22T09:06:41Z</time>
      </trkpt>
      <trkpt lat="41.628445000" lon="2.431920100">
        <ele>336.60</ele>
        <time>2012-07-22T09:06:44Z</time>
      </trkpt>
      <trkpt lat="41.628315000" lon="2.431676100">
        <ele>336.60</ele>
        <time>2012-07-22T09:06:48Z</time>
      </trkpt>
      <trkpt lat="41.628395000" lon="2.431432100">
        <ele>336.60</ele>
        <time>2012-07-22T09:06:53Z</time>
      </trkpt>
      <trkpt lat="41.628593000" lon="2.431152100">
        <ele>335.20</ele>
        <time>2012-07-22T09:07:00Z</time>
      </trkpt>
      <trkpt lat="41.628696000" lon="2.430870100">
        <ele>335.20</ele>
        <time>2012-07-22T09:07:09Z</time>
      </trkpt>
      <trkpt lat="41.628780000" lon="2.430740100">
        <ele>336.10</ele>
        <time>2012-07-22T09:07:12Z</time>
      </trkpt>
      <trkpt lat="41.628864000" lon="2.430601100">
        <ele>336.60</ele>
        <time>2012-07-22T09:07:17Z</time>
      </trkpt>
      <trkpt lat="41.628845000" lon="2.430395100">
        <ele>337.10</ele>
        <time>2012-07-22T09:07:24Z</time>
      </trkpt>
      <trkpt lat="41.628811000" lon="2.430188100">
        <ele>338.50</ele>
        <time>2012-07-22T09:07:30Z</time>
      </trkpt>
      <trkpt lat="41.628681000" lon="2.429992100">
        <ele>338.50</ele>
        <time>2012-07-22T09:07:35Z</time>
      </trkpt>
      <trkpt lat="41.628647000" lon="2.429868100">
        <ele>338.50</ele>
        <time>2012-07-22T09:07:38Z</time>
      </trkpt>
      <trkpt lat="41.628708000" lon="2.429680100">
        <ele>339.50</ele>
        <time>2012-07-22T09:07:43Z</time>
      </trkpt>
      <trkpt lat="41.628880000" lon="2.429476100">
        <ele>340.00</ele>
        <time>2012-07-22T09:07:52Z</time>
      </trkpt>
      <trkpt lat="41.628990000" lon="2.429268100">
        <ele>340.00</ele>
        <time>2012-07-22T09:07:57Z</time>
      </trkpt>
      <trkpt lat="41.629051000" lon="2.429143100">
        <ele>336.10</ele>
        <time>2012-07-22T09:08:01Z</time>
      </trkpt>
      <trkpt lat="41.629074000" lon="2.429123100">
        <ele>333.20</ele>
        <time>2012-07-22T09:08:06Z</time>
      </trkpt>
      <trkpt lat="41.629078000" lon="2.429142100">
        <ele>332.30</ele>
        <time>2012-07-22T09:08:13Z</time>
      </trkpt>
      <trkpt lat="41.629070000" lon="2.429147100">
        <ele>332.30</ele>
        <time>2012-07-22T09:08:13Z</time>
      </trkpt>
      <trkpt lat="41.629036000" lon="2.429182100">
        <ele>333.70</ele>
        <time>2012-07-22T09:08:18Z</time>
      </trkpt>
      <trkpt lat="41.628986000" lon="2.429278100">
        <ele>334.70</ele>
        <time>2012-07-22T09:08:25Z</time>
      </trkpt>
      <trkpt lat="41.628914000" lon="2.429406100">
        <ele>336.60</ele>
        <time>2012-07-22T09:08:34Z</time>
      </trkpt>
      <trkpt lat="41.628834000" lon="2.429521100">
        <ele>337.60</ele>
        <time>2012-07-22T09:08:41Z</time>
      </trkpt>
      <trkpt lat="41.628822000" lon="2.429461100">
        <ele>338.50</ele>
        <time>2012-07-22T09:08:46Z</time>
      </trkpt>
      <trkpt lat="41.628834000" lon="2.429447100">
        <ele>339.00</ele>
        <time>2012-07-22T09:08:48Z</time>
      </trkpt>
      <trkpt lat="41.628849000" lon="2.429407100">
        <ele>339.00</ele>
        <time>2012-07-22T09:08:50Z</time>
      </trkpt>
      <trkpt lat="41.628883000" lon="2.429163100">
        <ele>339.50</ele>
        <time>2012-07-22T09:08:58Z</time>
      </trkpt>
      <trkpt lat="41.628925000" lon="2.428956100">
        <ele>340.00</ele>
        <time>2012-07-22T09:09:05Z</time>
      </trkpt>
      <trkpt lat="41.628967000" lon="2.428765100">
        <ele>341.40</ele>
        <time>2012-07-22T09:09:12Z</time>
      </trkpt>
      <trkpt lat="41.628990000" lon="2.428516100">
        <ele>341.90</ele>
        <time>2012-07-22T09:09:19Z</time>
      </trkpt>
      <trkpt lat="41.629017000" lon="2.428444100">
        <ele>341.90</ele>
        <time>2012-07-22T09:09:24Z</time>
      </trkpt>
      <trkpt lat="41.629047000" lon="2.428380100">
        <ele>341.90</ele>
        <time>2012-07-22T09:09:30Z</time>
      </trkpt>
      <trkpt lat="41.629047000" lon="2.428380100">
        <ele>341.90</ele>
        <time>2012-07-22T09:09:47Z</time>
      </trkpt>
      <trkpt lat="41.629059000" lon="2.428352100">
        <ele>342.40</ele>
        <time>2012-07-22T09:10:01Z</time>
      </trkpt>
      <trkpt lat="41.629124000" lon="2.428180100">
        <ele>342.40</ele>
        <time>2012-07-22T09:10:08Z</time>
      </trkpt>
      <trkpt lat="41.629272000" lon="2.428066100">
        <ele>342.90</ele>
        <time>2012-07-22T09:10:15Z</time>
      </trkpt>
      <trkpt lat="41.629398000" lon="2.427937100">
        <ele>343.80</ele>
        <time>2012-07-22T09:10:22Z</time>
      </trkpt>
      <trkpt lat="41.629524000" lon="2.427777100">
        <ele>344.30</ele>
        <time>2012-07-22T09:10:29Z</time>
      </trkpt>
      <trkpt lat="41.629589000" lon="2.427574100">
        <ele>345.20</ele>
        <time>2012-07-22T09:10:36Z</time>
      </trkpt>
      <trkpt lat="41.629612000" lon="2.427261100">
        <ele>345.70</ele>
        <time>2012-07-22T09:10:45Z</time>
      </trkpt>
      <trkpt lat="41.629654000" lon="2.427024100">
        <ele>345.70</ele>
        <time>2012-07-22T09:10:52Z</time>
      </trkpt>
      <trkpt lat="41.629757000" lon="2.426862100">
        <ele>346.20</ele>
        <time>2012-07-22T09:10:57Z</time>
      </trkpt>
      <trkpt lat="41.629913000" lon="2.426573100">
        <ele>346.70</ele>
        <time>2012-07-22T09:11:07Z</time>
      </trkpt>
      <trkpt lat="41.629978000" lon="2.426406100">
        <ele>347.20</ele>
        <time>2012-07-22T09:11:11Z</time>
      </trkpt>
      <trkpt lat="41.629883000" lon="2.426260100">
        <ele>347.60</ele>
        <time>2012-07-22T09:11:18Z</time>
      </trkpt>
      <trkpt lat="41.629749000" lon="2.426234100">
        <ele>347.60</ele>
        <time>2012-07-22T09:11:21Z</time>
      </trkpt>
      <trkpt lat="41.629578000" lon="2.426097100">
        <ele>347.60</ele>
        <time>2012-07-22T09:11:26Z</time>
      </trkpt>
      <trkpt lat="41.629639000" lon="2.425951100">
        <ele>347.60</ele>
        <time>2012-07-22T09:11:30Z</time>
      </trkpt>
      <trkpt lat="41.629780000" lon="2.425804100">
        <ele>347.60</ele>
        <time>2012-07-22T09:11:37Z</time>
      </trkpt>
      <trkpt lat="41.629837000" lon="2.425683100">
        <ele>347.60</ele>
        <time>2012-07-22T09:11:40Z</time>
      </trkpt>
      <trkpt lat="41.629948000" lon="2.425410100">
        <ele>347.60</ele>
        <time>2012-07-22T09:11:47Z</time>
      </trkpt>
      <trkpt lat="41.629967000" lon="2.425130100">
        <ele>347.60</ele>
        <time>2012-07-22T09:11:54Z</time>
      </trkpt>
      <trkpt lat="41.629902000" lon="2.424823100">
        <ele>348.10</ele>
        <time>2012-07-22T09:12:01Z</time>
      </trkpt>
      <trkpt lat="41.629803000" lon="2.424639100">
        <ele>348.60</ele>
        <time>2012-07-22T09:12:08Z</time>
      </trkpt>
      <trkpt lat="41.629688000" lon="2.424490100">
        <ele>349.60</ele>
        <time>2012-07-22T09:12:13Z</time>
      </trkpt>
      <trkpt lat="41.629707000" lon="2.424334100">
        <ele>350.10</ele>
        <time>2012-07-22T09:12:19Z</time>
      </trkpt>
      <trkpt lat="41.629845000" lon="2.424175100">
        <ele>349.60</ele>
        <time>2012-07-22T09:12:26Z</time>
      </trkpt>
      <trkpt lat="41.630009000" lon="2.423973100">
        <ele>351.00</ele>
        <time>2012-07-22T09:12:34Z</time>
      </trkpt>
      <trkpt lat="41.630024000" lon="2.423939100">
        <ele>351.00</ele>
        <time>2012-07-22T09:12:34Z</time>
      </trkpt>
      <trkpt lat="41.629955000" lon="2.423795100">
        <ele>351.50</ele>
        <time>2012-07-22T09:12:40Z</time>
      </trkpt>
      <trkpt lat="41.629723000" lon="2.423601100">
        <ele>352.50</ele>
        <time>2012-07-22T09:12:48Z</time>
      </trkpt>
      <trkpt lat="41.629520000" lon="2.423404100">
        <ele>352.90</ele>
        <time>2012-07-22T09:12:57Z</time>
      </trkpt>
      <trkpt lat="41.629360000" lon="2.423180100">
        <ele>354.40</ele>
        <time>2012-07-22T09:13:04Z</time>
      </trkpt>
      <trkpt lat="41.629234000" lon="2.423026100">
        <ele>355.30</ele>
        <time>2012-07-22T09:13:11Z</time>
      </trkpt>
      <trkpt lat="41.629074000" lon="2.422894100">
        <ele>356.30</ele>
        <time>2012-07-22T09:13:18Z</time>
      </trkpt>
      <trkpt lat="41.629013000" lon="2.422827100">
        <ele>356.80</ele>
        <time>2012-07-22T09:13:21Z</time>
      </trkpt>
      <trkpt lat="41.628971000" lon="2.422654100">
        <ele>357.80</ele>
        <time>2012-07-22T09:13:28Z</time>
      </trkpt>
      <trkpt lat="41.628956000" lon="2.422421100">
        <ele>359.20</ele>
        <time>2012-07-22T09:13:35Z</time>
      </trkpt>
      <trkpt lat="41.628925000" lon="2.422263100">
        <ele>359.70</ele>
        <time>2012-07-22T09:13:41Z</time>
      </trkpt>
      <trkpt lat="41.628883000" lon="2.422055100">
        <ele>360.10</ele>
        <time>2012-07-22T09:13:46Z</time>
      </trkpt>
      <trkpt lat="41.628895000" lon="2.421867100">
        <ele>360.10</ele>
        <time>2012-07-22T09:13:51Z</time>
      </trkpt>
      <trkpt lat="41.628990000" lon="2.421749100">
        <ele>360.60</ele>
        <time>2012-07-22T09:13:56Z</time>
      </trkpt>
      <trkpt lat="41.629044000" lon="2.421676100">
        <ele>361.10</ele>
        <time>2012-07-22T09:13:58Z</time>
      </trkpt>
      <trkpt lat="41.629028000" lon="2.421519100">
        <ele>361.60</ele>
        <time>2012-07-22T09:14:05Z</time>
      </trkpt>
      <trkpt lat="41.628887000" lon="2.421404100">
        <ele>362.10</ele>
        <time>2012-07-22T09:14:12Z</time>
      </trkpt>
      <trkpt lat="41.628761000" lon="2.421323100">
        <ele>363.50</ele>
        <time>2012-07-22T09:14:19Z</time>
      </trkpt>
      <trkpt lat="41.628662000" lon="2.421369100">
        <ele>364.50</ele>
        <time>2012-07-22T09:14:26Z</time>
      </trkpt>
      <trkpt lat="41.628571000" lon="2.421446100">
        <ele>365.90</ele>
        <time>2012-07-22T09:14:33Z</time>
      </trkpt>
      <trkpt lat="41.628536000" lon="2.421522100">
        <ele>366.90</ele>
        <time>2012-07-22T09:14:36Z</time>
      </trkpt>
      <trkpt lat="41.628567000" lon="2.421786100">
        <ele>367.80</ele>
        <time>2012-07-22T09:14:45Z</time>
      </trkpt>
      <trkpt lat="41.628639000" lon="2.422030100">
        <ele>368.80</ele>
        <time>2012-07-22T09:14:52Z</time>
      </trkpt>
      <trkpt lat="41.628635000" lon="2.422307100">
        <ele>369.80</ele>
        <time>2012-07-22T09:15:01Z</time>
      </trkpt>
      <trkpt lat="41.628590000" lon="2.422529100">
        <ele>371.20</ele>
        <time>2012-07-22T09:15:08Z</time>
      </trkpt>
      <trkpt lat="41.628578000" lon="2.422748100">
        <ele>371.70</ele>
        <time>2012-07-22T09:15:13Z</time>
      </trkpt>
      <trkpt lat="41.628540000" lon="2.422861100">
        <ele>372.20</ele>
        <time>2012-07-22T09:15:20Z</time>
      </trkpt>
      <trkpt lat="41.628529000" lon="2.422850100">
        <ele>372.60</ele>
        <time>2012-07-22T09:15:27Z</time>
      </trkpt>
      <trkpt lat="41.628510000" lon="2.422651100">
        <ele>373.60</ele>
        <time>2012-07-22T09:15:37Z</time>
      </trkpt>
      <trkpt lat="41.628517000" lon="2.422368100">
        <ele>375.50</ele>
        <time>2012-07-22T09:15:46Z</time>
      </trkpt>
      <trkpt lat="41.628510000" lon="2.422318100">
        <ele>375.50</ele>
        <time>2012-07-22T09:15:48Z</time>
      </trkpt>
      <trkpt lat="41.628391000" lon="2.422166100">
        <ele>376.50</ele>
        <time>2012-07-22T09:15:56Z</time>
      </trkpt>
      <trkpt lat="41.628273000" lon="2.421958100">
        <ele>377.90</ele>
        <time>2012-07-22T09:16:05Z</time>
      </trkpt>
      <trkpt lat="41.628231000" lon="2.421862100">
        <ele>378.40</ele>
        <time>2012-07-22T09:16:10Z</time>
      </trkpt>
      <trkpt lat="41.628197000" lon="2.421754100">
        <ele>378.90</ele>
        <time>2012-07-22T09:16:14Z</time>
      </trkpt>
      <trkpt lat="41.628136000" lon="2.421524100">
        <ele>380.30</ele>
        <time>2012-07-22T09:16:21Z</time>
      </trkpt>
      <trkpt lat="41.628075000" lon="2.421210100">
        <ele>381.30</ele>
        <time>2012-07-22T09:16:31Z</time>
      </trkpt>
      <trkpt lat="41.627960000" lon="2.421031100">
        <ele>382.70</ele>
        <time>2012-07-22T09:16:38Z</time>
      </trkpt>
      <trkpt lat="41.627853000" lon="2.420903100">
        <ele>384.20</ele>
        <time>2012-07-22T09:16:45Z</time>
      </trkpt>
      <trkpt lat="41.627758000" lon="2.420757100">
        <ele>386.10</ele>
        <time>2012-07-22T09:16:54Z</time>
      </trkpt>
      <trkpt lat="41.627655000" lon="2.420603100">
        <ele>387.10</ele>
        <time>2012-07-22T09:17:03Z</time>
      </trkpt>
      <trkpt lat="41.627659000" lon="2.420505100">
        <ele>387.50</ele>
        <time>2012-07-22T09:17:08Z</time>
      </trkpt>
      <trkpt lat="41.627659000" lon="2.420504100">
        <ele>387.50</ele>
        <time>2012-07-22T09:17:22Z</time>
      </trkpt>
      <trkpt lat="41.627522000" lon="2.420528100">
        <ele>388.00</ele>
        <time>2012-07-22T09:17:48Z</time>
      </trkpt>
      <trkpt lat="41.627441000" lon="2.420561100">
        <ele>388.00</ele>
        <time>2012-07-22T09:17:50Z</time>
      </trkpt>
      <trkpt lat="41.627377000" lon="2.420566100">
        <ele>388.00</ele>
        <time>2012-07-22T09:17:55Z</time>
      </trkpt>
      <trkpt lat="41.627319000" lon="2.420564100">
        <ele>388.00</ele>
        <time>2012-07-22T09:17:58Z</time>
      </trkpt>
      <trkpt lat="41.627220000" lon="2.420550100">
        <ele>388.00</ele>
        <time>2012-07-22T09:18:04Z</time>
      </trkpt>
      <trkpt lat="41.627174000" lon="2.420541100">
        <ele>388.00</ele>
        <time>2012-07-22T09:18:05Z</time>
      </trkpt>
      <trkpt lat="41.626995000" lon="2.420535100">
        <ele>387.50</ele>
        <time>2012-07-22T09:18:14Z</time>
      </trkpt>
      <trkpt lat="41.626797000" lon="2.420533100">
        <ele>387.50</ele>
        <time>2012-07-22T09:18:21Z</time>
      </trkpt>
      <trkpt lat="41.626560000" lon="2.420424100">
        <ele>387.50</ele>
        <time>2012-07-22T09:18:30Z</time>
      </trkpt>
      <trkpt lat="41.626537000" lon="2.420421100">
        <ele>387.50</ele>
        <time>2012-07-22T09:18:31Z</time>
      </trkpt>
      <trkpt lat="41.626385000" lon="2.420284100">
        <ele>387.50</ele>
        <time>2012-07-22T09:18:42Z</time>
      </trkpt>
      <trkpt lat="41.626331000" lon="2.420247100">
        <ele>386.10</ele>
        <time>2012-07-22T09:18:47Z</time>
      </trkpt>
      <trkpt lat="41.626244000" lon="2.420154100">
        <ele>382.70</ele>
        <time>2012-07-22T09:18:52Z</time>
      </trkpt>
      <trkpt lat="41.626179000" lon="2.420139100">
        <ele>379.40</ele>
        <time>2012-07-22T09:18:56Z</time>
      </trkpt>
      <trkpt lat="41.626057000" lon="2.420115100">
        <ele>374.60</ele>
        <time>2012-07-22T09:19:01Z</time>
      </trkpt>
      <trkpt lat="41.625938000" lon="2.420075100">
        <ele>372.60</ele>
        <time>2012-07-22T09:19:06Z</time>
      </trkpt>
      <trkpt lat="41.625874000" lon="2.420102100">
        <ele>369.80</ele>
        <time>2012-07-22T09:19:13Z</time>
      </trkpt>
      <trkpt lat="41.625874000" lon="2.420102100">
        <ele>369.80</ele>
        <time>2012-07-22T09:19:27Z</time>
      </trkpt>
      <trkpt lat="41.625870000" lon="2.420104100">
        <ele>370.20</ele>
        <time>2012-07-22T09:20:00Z</time>
      </trkpt>
      <trkpt lat="41.625725000" lon="2.420328100">
        <ele>370.20</ele>
        <time>2012-07-22T09:20:21Z</time>
      </trkpt>
      <trkpt lat="41.625664000" lon="2.420556100">
        <ele>368.80</ele>
        <time>2012-07-22T09:20:28Z</time>
      </trkpt>
      <trkpt lat="41.625614000" lon="2.420640100">
        <ele>366.90</ele>
        <time>2012-07-22T09:20:33Z</time>
      </trkpt>
      <trkpt lat="41.625652000" lon="2.420746100">
        <ele>366.40</ele>
        <time>2012-07-22T09:20:40Z</time>
      </trkpt>
      <trkpt lat="41.625652000" lon="2.420915100">
        <ele>365.90</ele>
        <time>2012-07-22T09:20:49Z</time>
      </trkpt>
      <trkpt lat="41.625660000" lon="2.420981100">
        <ele>365.90</ele>
        <time>2012-07-22T09:20:51Z</time>
      </trkpt>
      <trkpt lat="41.625710000" lon="2.421084100">
        <ele>365.90</ele>
        <time>2012-07-22T09:20:56Z</time>
      </trkpt>
      <trkpt lat="41.625736000" lon="2.421181100">
        <ele>365.90</ele>
        <time>2012-07-22T09:21:03Z</time>
      </trkpt>
      <trkpt lat="41.625732000" lon="2.421178100">
        <ele>365.90</ele>
        <time>2012-07-22T09:21:13Z</time>
      </trkpt>
      <trkpt lat="41.625736000" lon="2.421184100">
        <ele>366.90</ele>
        <time>2012-07-22T09:21:22Z</time>
      </trkpt>
      <trkpt lat="41.625732000" lon="2.421211100">
        <ele>367.40</ele>
        <time>2012-07-22T09:21:27Z</time>
      </trkpt>
      <trkpt lat="41.625729000" lon="2.421407100">
        <ele>367.40</ele>
        <time>2012-07-22T09:21:36Z</time>
      </trkpt>
      <trkpt lat="41.625767000" lon="2.421537100">
        <ele>368.30</ele>
        <time>2012-07-22T09:21:43Z</time>
      </trkpt>
      <trkpt lat="41.625847000" lon="2.421692100">
        <ele>369.80</ele>
        <time>2012-07-22T09:21:50Z</time>
      </trkpt>
      <trkpt lat="41.625854000" lon="2.421826100">
        <ele>372.20</ele>
        <time>2012-07-22T09:21:59Z</time>
      </trkpt>
      <trkpt lat="41.625851000" lon="2.421909100">
        <ele>376.50</ele>
        <time>2012-07-22T09:22:04Z</time>
      </trkpt>
      <trkpt lat="41.625854000" lon="2.422009100">
        <ele>378.40</ele>
        <time>2012-07-22T09:22:09Z</time>
      </trkpt>
      <trkpt lat="41.625885000" lon="2.422075100">
        <ele>378.40</ele>
        <time>2012-07-22T09:22:13Z</time>
      </trkpt>
      <trkpt lat="41.625942000" lon="2.422267100">
        <ele>379.90</ele>
        <time>2012-07-22T09:22:25Z</time>
      </trkpt>
      <trkpt lat="41.626003000" lon="2.422406100">
        <ele>381.80</ele>
        <time>2012-07-22T09:22:35Z</time>
      </trkpt>
      <trkpt lat="41.626015000" lon="2.422419100">
        <ele>382.70</ele>
        <time>2012-07-22T09:22:35Z</time>
      </trkpt>
      <trkpt lat="41.626049000" lon="2.422481100">
        <ele>386.60</ele>
        <time>2012-07-22T09:22:41Z</time>
      </trkpt>
      <trkpt lat="41.626133000" lon="2.422570100">
        <ele>388.00</ele>
        <time>2012-07-22T09:22:49Z</time>
      </trkpt>
      <trkpt lat="41.626228000" lon="2.422655100">
        <ele>388.50</ele>
        <time>2012-07-22T09:23:00Z</time>
      </trkpt>
      <trkpt lat="41.626270000" lon="2.422763100">
        <ele>389.00</ele>
        <time>2012-07-22T09:23:05Z</time>
      </trkpt>
      <trkpt lat="41.626335000" lon="2.423042100">
        <ele>389.00</ele>
        <time>2012-07-22T09:23:12Z</time>
      </trkpt>
      <trkpt lat="41.626411000" lon="2.423451100">
        <ele>389.00</ele>
        <time>2012-07-22T09:23:21Z</time>
      </trkpt>
      <trkpt lat="41.626431000" lon="2.423687100">
        <ele>387.50</ele>
        <time>2012-07-22T09:23:26Z</time>
      </trkpt>
      <trkpt lat="41.626446000" lon="2.423881100">
        <ele>387.50</ele>
        <time>2012-07-22T09:23:33Z</time>
      </trkpt>
      <trkpt lat="41.626499000" lon="2.424148100">
        <ele>387.50</ele>
        <time>2012-07-22T09:23:42Z</time>
      </trkpt>
      <trkpt lat="41.626572000" lon="2.424409100">
        <ele>387.50</ele>
        <time>2012-07-22T09:23:50Z</time>
      </trkpt>
      <trkpt lat="41.626625000" lon="2.424617100">
        <ele>388.50</ele>
        <time>2012-07-22T09:23:57Z</time>
      </trkpt>
      <trkpt lat="41.626690000" lon="2.424902100">
        <ele>389.50</ele>
        <time>2012-07-22T09:24:06Z</time>
      </trkpt>
      <trkpt lat="41.626759000" lon="2.425143100">
        <ele>390.40</ele>
        <time>2012-07-22T09:24:13Z</time>
      </trkpt>
      <trkpt lat="41.626766000" lon="2.425324100">
        <ele>391.90</ele>
        <time>2012-07-22T09:24:20Z</time>
      </trkpt>
      <trkpt lat="41.626766000" lon="2.425366100">
        <ele>392.40</ele>
        <time>2012-07-22T09:24:23Z</time>
      </trkpt>
      <trkpt lat="41.626705000" lon="2.425509100">
        <ele>393.80</ele>
        <time>2012-07-22T09:24:29Z</time>
      </trkpt>
      <trkpt lat="41.626595000" lon="2.425668100">
        <ele>393.80</ele>
        <time>2012-07-22T09:24:34Z</time>
      </trkpt>
      <trkpt lat="41.626514000" lon="2.425803100">
        <ele>393.80</ele>
        <time>2012-07-22T09:24:37Z</time>
      </trkpt>
      <trkpt lat="41.626423000" lon="2.425960100">
        <ele>393.80</ele>
        <time>2012-07-22T09:24:41Z</time>
      </trkpt>
      <trkpt lat="41.626411000" lon="2.426085100">
        <ele>393.80</ele>
        <time>2012-07-22T09:24:46Z</time>
      </trkpt>
      <trkpt lat="41.626434000" lon="2.426368100">
        <ele>393.80</ele>
        <time>2012-07-22T09:24:53Z</time>
      </trkpt>
      <trkpt lat="41.626392000" lon="2.426574100">
        <ele>392.40</ele>
        <time>2012-07-22T09:25:00Z</time>
      </trkpt>
      <trkpt lat="41.626312000" lon="2.426826100">
        <ele>392.80</ele>
        <time>2012-07-22T09:25:10Z</time>
      </trkpt>
      <trkpt lat="41.626244000" lon="2.426944100">
        <ele>394.30</ele>
        <time>2012-07-22T09:25:16Z</time>
      </trkpt>
      <trkpt lat="41.626205000" lon="2.426995100">
        <ele>394.30</ele>
        <time>2012-07-22T09:25:19Z</time>
      </trkpt>
      <trkpt lat="41.626129000" lon="2.427062100">
        <ele>395.20</ele>
        <time>2012-07-22T09:25:24Z</time>
      </trkpt>
      <trkpt lat="41.625973000" lon="2.427161100">
        <ele>396.20</ele>
        <time>2012-07-22T09:25:33Z</time>
      </trkpt>
      <trkpt lat="41.625793000" lon="2.427186100">
        <ele>397.20</ele>
        <time>2012-07-22T09:25:40Z</time>
      </trkpt>
      <trkpt lat="41.625580000" lon="2.427212100">
        <ele>397.60</ele>
        <time>2012-07-22T09:25:49Z</time>
      </trkpt>
      <trkpt lat="41.625408000" lon="2.427289100">
        <ele>398.10</ele>
        <time>2012-07-22T09:25:57Z</time>
      </trkpt>
      <trkpt lat="41.625374000" lon="2.427336100">
        <ele>398.10</ele>
        <time>2012-07-22T09:26:01Z</time>
      </trkpt>
      <trkpt lat="41.625256000" lon="2.427487100">
        <ele>399.10</ele>
        <time>2012-07-22T09:26:08Z</time>
      </trkpt>
      <trkpt lat="41.625183000" lon="2.427622100">
        <ele>399.10</ele>
        <time>2012-07-22T09:26:13Z</time>
      </trkpt>
      <trkpt lat="41.625153000" lon="2.427878100">
        <ele>400.50</ele>
        <time>2012-07-22T09:26:22Z</time>
      </trkpt>
      <trkpt lat="41.625126000" lon="2.428100100">
        <ele>402.00</ele>
        <time>2012-07-22T09:26:29Z</time>
      </trkpt>
      <trkpt lat="41.624966000" lon="2.428302100">
        <ele>402.90</ele>
        <time>2012-07-22T09:26:39Z</time>
      </trkpt>
      <trkpt lat="41.624866000" lon="2.428496100">
        <ele>404.40</ele>
        <time>2012-07-22T09:26:46Z</time>
      </trkpt>
      <trkpt lat="41.624847000" lon="2.428666100">
        <ele>405.80</ele>
        <time>2012-07-22T09:26:53Z</time>
      </trkpt>
      <trkpt lat="41.624855000" lon="2.428797100">
        <ele>409.20</ele>
        <time>2012-07-22T09:26:58Z</time>
      </trkpt>
      <trkpt lat="41.624771000" lon="2.428945100">
        <ele>412.10</ele>
        <time>2012-07-22T09:27:05Z</time>
      </trkpt>
      <trkpt lat="41.624454000" lon="2.429082100">
        <ele>408.20</ele>
        <time>2012-07-22T09:27:11Z</time>
      </trkpt>
      <trkpt lat="41.624336000" lon="2.429118100">
        <ele>406.30</ele>
        <time>2012-07-22T09:27:12Z</time>
      </trkpt>
      <trkpt lat="41.624256000" lon="2.429254100">
        <ele>402.90</ele>
        <time>2012-07-22T09:27:16Z</time>
      </trkpt>
      <trkpt lat="41.624348000" lon="2.429360100">
        <ele>402.90</ele>
        <time>2012-07-22T09:27:21Z</time>
      </trkpt>
      <trkpt lat="41.624374000" lon="2.429383100">
        <ele>403.40</ele>
        <time>2012-07-22T09:27:21Z</time>
      </trkpt>
      <trkpt lat="41.624531000" lon="2.429544100">
        <ele>404.40</ele>
        <time>2012-07-22T09:27:28Z</time>
      </trkpt>
      <trkpt lat="41.624588000" lon="2.429747100">
        <ele>405.30</ele>
        <time>2012-07-22T09:27:35Z</time>
      </trkpt>
      <trkpt lat="41.624577000" lon="2.430003100">
        <ele>405.30</ele>
        <time>2012-07-22T09:27:40Z</time>
      </trkpt>
      <trkpt lat="41.624569000" lon="2.430088100">
        <ele>406.30</ele>
        <time>2012-07-22T09:27:47Z</time>
      </trkpt>
      <trkpt lat="41.624573000" lon="2.430090100">
        <ele>406.30</ele>
        <time>2012-07-22T09:27:54Z</time>
      </trkpt>
      <trkpt lat="41.624569000" lon="2.430088100">
        <ele>406.80</ele>
        <time>2012-07-22T09:28:06Z</time>
      </trkpt>
      <trkpt lat="41.624573000" lon="2.430089100">
        <ele>406.80</ele>
        <time>2012-07-22T09:28:39Z</time>
      </trkpt>
      <trkpt lat="41.624519000" lon="2.430248100">
        <ele>406.80</ele>
        <time>2012-07-22T09:28:55Z</time>
      </trkpt>
      <trkpt lat="41.624496000" lon="2.430307100">
        <ele>406.80</ele>
        <time>2012-07-22T09:29:02Z</time>
      </trkpt>
      <trkpt lat="41.624493000" lon="2.430305100">
        <ele>406.80</ele>
        <time>2012-07-22T09:29:16Z</time>
      </trkpt>
      <trkpt lat="41.624496000" lon="2.430305100">
        <ele>406.80</ele>
        <time>2012-07-22T09:30:03Z</time>
      </trkpt>
      <trkpt lat="41.624496000" lon="2.430311100">
        <ele>406.80</ele>
        <time>2012-07-22T09:30:40Z</time>
      </trkpt>
      <trkpt lat="41.624477000" lon="2.430364100">
        <ele>406.80</ele>
        <time>2012-07-22T09:31:02Z</time>
      </trkpt>
      <trkpt lat="41.624413000" lon="2.430479100">
        <ele>406.80</ele>
        <time>2012-07-22T09:31:09Z</time>
      </trkpt>
      <trkpt lat="41.624325000" lon="2.430676100">
        <ele>407.30</ele>
        <time>2012-07-22T09:31:18Z</time>
      </trkpt>
      <trkpt lat="41.624241000" lon="2.430886100">
        <ele>407.70</ele>
        <time>2012-07-22T09:31:25Z</time>
      </trkpt>
      <trkpt lat="41.624168000" lon="2.431100100">
        <ele>408.20</ele>
        <time>2012-07-22T09:31:34Z</time>
      </trkpt>
      <trkpt lat="41.624100000" lon="2.431340100">
        <ele>408.70</ele>
        <time>2012-07-22T09:31:41Z</time>
      </trkpt>
      <trkpt lat="41.624027000" lon="2.431659100">
        <ele>409.20</ele>
        <time>2012-07-22T09:31:49Z</time>
      </trkpt>
      <trkpt lat="41.623966000" lon="2.431980100">
        <ele>409.70</ele>
        <time>2012-07-22T09:31:58Z</time>
      </trkpt>
      <trkpt lat="41.623909000" lon="2.432254100">
        <ele>410.10</ele>
        <time>2012-07-22T09:32:07Z</time>
      </trkpt>
      <trkpt lat="41.623867000" lon="2.432519100">
        <ele>411.10</ele>
        <time>2012-07-22T09:32:15Z</time>
      </trkpt>
      <trkpt lat="41.623806000" lon="2.432656100">
        <ele>411.60</ele>
        <time>2012-07-22T09:32:22Z</time>
      </trkpt>
      <trkpt lat="41.623768000" lon="2.432739100">
        <ele>412.10</ele>
        <time>2012-07-22T09:32:31Z</time>
      </trkpt>
      <trkpt lat="41.623768000" lon="2.432742100">
        <ele>412.10</ele>
        <time>2012-07-22T09:32:36Z</time>
      </trkpt>
      <trkpt lat="41.623833000" lon="2.432754100">
        <ele>412.10</ele>
        <time>2012-07-22T09:32:43Z</time>
      </trkpt>
      <trkpt lat="41.623783000" lon="2.432925100">
        <ele>413.00</ele>
        <time>2012-07-22T09:32:50Z</time>
      </trkpt>
      <trkpt lat="41.623737000" lon="2.433124100">
        <ele>413.50</ele>
        <time>2012-07-22T09:32:59Z</time>
      </trkpt>
      <trkpt lat="41.623703000" lon="2.433340100">
        <ele>414.50</ele>
        <time>2012-07-22T09:33:08Z</time>
      </trkpt>
      <trkpt lat="41.623699000" lon="2.433592100">
        <ele>415.40</ele>
        <time>2012-07-22T09:33:18Z</time>
      </trkpt>
      <trkpt lat="41.623688000" lon="2.433834100">
        <ele>416.40</ele>
        <time>2012-07-22T09:33:27Z</time>
      </trkpt>
      <trkpt lat="41.623661000" lon="2.434119100">
        <ele>417.80</ele>
        <time>2012-07-22T09:33:39Z</time>
      </trkpt>
      <trkpt lat="41.623596000" lon="2.434260100">
        <ele>418.30</ele>
        <time>2012-07-22T09:33:46Z</time>
      </trkpt>
      <trkpt lat="41.623581000" lon="2.434311100">
        <ele>418.30</ele>
        <time>2012-07-22T09:33:49Z</time>
      </trkpt>
      <trkpt lat="41.623585000" lon="2.434338100">
        <ele>418.30</ele>
        <time>2012-07-22T09:33:51Z</time>
      </trkpt>
      <trkpt lat="41.623600000" lon="2.434354100">
        <ele>418.30</ele>
        <time>2012-07-22T09:33:53Z</time>
      </trkpt>
      <trkpt lat="41.623558000" lon="2.434309100">
        <ele>419.30</ele>
        <time>2012-07-22T09:34:00Z</time>
      </trkpt>
      <trkpt lat="41.623520000" lon="2.434327100">
        <ele>418.80</ele>
        <time>2012-07-22T09:34:02Z</time>
      </trkpt>
      <trkpt lat="41.623383000" lon="2.434337100">
        <ele>418.80</ele>
        <time>2012-07-22T09:34:09Z</time>
      </trkpt>
      <trkpt lat="41.623207000" lon="2.434195100">
        <ele>418.80</ele>
        <time>2012-07-22T09:34:16Z</time>
      </trkpt>
      <trkpt lat="41.623192000" lon="2.434188100">
        <ele>419.30</ele>
        <time>2012-07-22T09:34:17Z</time>
      </trkpt>
      <trkpt lat="41.623119000" lon="2.434242100">
        <ele>419.30</ele>
        <time>2012-07-22T09:34:23Z</time>
      </trkpt>
      <trkpt lat="41.623055000" lon="2.434428100">
        <ele>418.80</ele>
        <time>2012-07-22T09:34:31Z</time>
      </trkpt>
      <trkpt lat="41.622986000" lon="2.434618100">
        <ele>419.30</ele>
        <time>2012-07-22T09:34:38Z</time>
      </trkpt>
      <trkpt lat="41.622898000" lon="2.434887100">
        <ele>419.80</ele>
        <time>2012-07-22T09:34:47Z</time>
      </trkpt>
      <trkpt lat="41.622849000" lon="2.435131100">
        <ele>420.20</ele>
        <time>2012-07-22T09:34:57Z</time>
      </trkpt>
      <trkpt lat="41.622803000" lon="2.435291100">
        <ele>420.70</ele>
        <time>2012-07-22T09:35:04Z</time>
      </trkpt>
      <trkpt lat="41.622776000" lon="2.435314100">
        <ele>420.70</ele>
        <time>2012-07-22T09:35:06Z</time>
      </trkpt>
      <trkpt lat="41.622696000" lon="2.435309100">
        <ele>421.20</ele>
        <time>2012-07-22T09:35:11Z</time>
      </trkpt>
      <trkpt lat="41.622620000" lon="2.435300100">
        <ele>421.20</ele>
        <time>2012-07-22T09:35:15Z</time>
      </trkpt>
      <trkpt lat="41.622581000" lon="2.435358100">
        <ele>422.20</ele>
        <time>2012-07-22T09:35:20Z</time>
      </trkpt>
      <trkpt lat="41.622494000" lon="2.435408100">
        <ele>422.60</ele>
        <time>2012-07-22T09:35:27Z</time>
      </trkpt>
      <trkpt lat="41.622417000" lon="2.435446100">
        <ele>423.60</ele>
        <time>2012-07-22T09:35:34Z</time>
      </trkpt>
      <trkpt lat="41.622322000" lon="2.435510100">
        <ele>425.00</ele>
        <time>2012-07-22T09:35:43Z</time>
      </trkpt>
      <trkpt lat="41.622314000" lon="2.435519100">
        <ele>425.00</ele>
        <time>2012-07-22T09:35:44Z</time>
      </trkpt>
      <trkpt lat="41.622299000" lon="2.435591100">
        <ele>425.50</ele>
        <time>2012-07-22T09:35:48Z</time>
      </trkpt>
      <trkpt lat="41.622227000" lon="2.435701100">
        <ele>425.50</ele>
        <time>2012-07-22T09:35:51Z</time>
      </trkpt>
      <trkpt lat="41.622143000" lon="2.435811100">
        <ele>425.50</ele>
        <time>2012-07-22T09:35:57Z</time>
      </trkpt>
      <trkpt lat="41.622128000" lon="2.435854100">
        <ele>425.50</ele>
        <time>2012-07-22T09:35:58Z</time>
      </trkpt>
      <trkpt lat="41.622162000" lon="2.435977100">
        <ele>425.50</ele>
        <time>2012-07-22T09:36:04Z</time>
      </trkpt>
      <trkpt lat="41.622269000" lon="2.436203100">
        <ele>424.10</ele>
        <time>2012-07-22T09:36:12Z</time>
      </trkpt>
      <trkpt lat="41.622353000" lon="2.436520100">
        <ele>424.10</ele>
        <time>2012-07-22T09:36:19Z</time>
      </trkpt>
      <trkpt lat="41.622360000" lon="2.436755100">
        <ele>424.10</ele>
        <time>2012-07-22T09:36:24Z</time>
      </trkpt>
      <trkpt lat="41.622303000" lon="2.436827100">
        <ele>424.10</ele>
        <time>2012-07-22T09:36:30Z</time>
      </trkpt>
      <trkpt lat="41.622276000" lon="2.436739100">
        <ele>425.50</ele>
        <time>2012-07-22T09:36:38Z</time>
      </trkpt>
      <trkpt lat="41.622276000" lon="2.436737100">
        <ele>426.00</ele>
        <time>2012-07-22T09:36:45Z</time>
      </trkpt>
      <trkpt lat="41.622269000" lon="2.436724100">
        <ele>426.50</ele>
        <time>2012-07-22T09:36:59Z</time>
      </trkpt>
      <trkpt lat="41.622154000" lon="2.436635100">
        <ele>427.40</ele>
        <time>2012-07-22T09:37:08Z</time>
      </trkpt>
      <trkpt lat="41.622074000" lon="2.436617100">
        <ele>427.90</ele>
        <time>2012-07-22T09:37:11Z</time>
      </trkpt>
      <trkpt lat="41.621948000" lon="2.436523100">
        <ele>428.40</ele>
        <time>2012-07-22T09:37:18Z</time>
      </trkpt>
      <trkpt lat="41.621861000" lon="2.436386100">
        <ele>428.90</ele>
        <time>2012-07-22T09:37:24Z</time>
      </trkpt>
      <trkpt lat="41.621708000" lon="2.436339100">
        <ele>430.30</ele>
        <time>2012-07-22T09:37:32Z</time>
      </trkpt>
      <trkpt lat="41.621593000" lon="2.436344100">
        <ele>431.30</ele>
        <time>2012-07-22T09:37:38Z</time>
      </trkpt>
      <trkpt lat="41.621429000" lon="2.436326100">
        <ele>432.70</ele>
        <time>2012-07-22T09:37:46Z</time>
      </trkpt>
      <trkpt lat="41.621311000" lon="2.436326100">
        <ele>433.70</ele>
        <time>2012-07-22T09:37:53Z</time>
      </trkpt>
      <trkpt lat="41.621178000" lon="2.436332100">
        <ele>436.10</ele>
        <time>2012-07-22T09:38:00Z</time>
      </trkpt>
      <trkpt lat="41.621117000" lon="2.436321100">
        <ele>439.90</ele>
        <time>2012-07-22T09:38:04Z</time>
      </trkpt>
      <trkpt lat="41.621033000" lon="2.436314100">
        <ele>442.30</ele>
        <time>2012-07-22T09:38:07Z</time>
      </trkpt>
      <trkpt lat="41.620895000" lon="2.436318100">
        <ele>443.30</ele>
        <time>2012-07-22T09:38:16Z</time>
      </trkpt>
      <trkpt lat="41.620766000" lon="2.436314100">
        <ele>443.30</ele>
        <time>2012-07-22T09:38:23Z</time>
      </trkpt>
      <trkpt lat="41.620728000" lon="2.436316100">
        <ele>443.80</ele>
        <time>2012-07-22T09:38:26Z</time>
      </trkpt>
      <trkpt lat="41.620731000" lon="2.436408100">
        <ele>444.80</ele>
        <time>2012-07-22T09:38:33Z</time>
      </trkpt>
      <trkpt lat="41.620811000" lon="2.436580100">
        <ele>444.80</ele>
        <time>2012-07-22T09:38:42Z</time>
      </trkpt>
      <trkpt lat="41.620865000" lon="2.436706100">
        <ele>445.20</ele>
        <time>2012-07-22T09:38:49Z</time>
      </trkpt>
      <trkpt lat="41.620911000" lon="2.436875100">
        <ele>445.70</ele>
        <time>2012-07-22T09:38:58Z</time>
      </trkpt>
      <trkpt lat="41.620899000" lon="2.437032100">
        <ele>447.10</ele>
        <time>2012-07-22T09:39:05Z</time>
      </trkpt>
      <trkpt lat="41.620880000" lon="2.437186100">
        <ele>447.60</ele>
        <time>2012-07-22T09:39:10Z</time>
      </trkpt>
      <trkpt lat="41.620922000" lon="2.437437100">
        <ele>447.60</ele>
        <time>2012-07-22T09:39:15Z</time>
      </trkpt>
      <trkpt lat="41.620956000" lon="2.437675100">
        <ele>447.60</ele>
        <time>2012-07-22T09:39:19Z</time>
      </trkpt>
      <trkpt lat="41.620899000" lon="2.437910100">
        <ele>446.20</ele>
        <time>2012-07-22T09:39:24Z</time>
      </trkpt>
      <trkpt lat="41.620808000" lon="2.437982100">
        <ele>445.20</ele>
        <time>2012-07-22T09:39:29Z</time>
      </trkpt>
      <trkpt lat="41.620678000" lon="2.438073100">
        <ele>444.30</ele>
        <time>2012-07-22T09:39:36Z</time>
      </trkpt>
      <trkpt lat="41.620564000" lon="2.438146100">
        <ele>443.80</ele>
        <time>2012-07-22T09:39:41Z</time>
      </trkpt>
      <trkpt lat="41.620411000" lon="2.438190100">
        <ele>443.30</ele>
        <time>2012-07-22T09:39:50Z</time>
      </trkpt>
      <trkpt lat="41.620285000" lon="2.438237100">
        <ele>442.80</ele>
        <time>2012-07-22T09:39:55Z</time>
      </trkpt>
      <trkpt lat="41.620209000" lon="2.438373100">
        <ele>442.80</ele>
        <time>2012-07-22T09:40:02Z</time>
      </trkpt>
      <trkpt lat="41.620190000" lon="2.438537100">
        <ele>442.80</ele>
        <time>2012-07-22T09:40:07Z</time>
      </trkpt>
      <trkpt lat="41.620110000" lon="2.438862100">
        <ele>442.80</ele>
        <time>2012-07-22T09:40:16Z</time>
      </trkpt>
      <trkpt lat="41.620087000" lon="2.438889100">
        <ele>442.80</ele>
        <time>2012-07-22T09:40:18Z</time>
      </trkpt>
      <trkpt lat="41.619827000" lon="2.438980100">
        <ele>442.80</ele>
        <time>2012-07-22T09:40:25Z</time>
      </trkpt>
      <trkpt lat="41.619781000" lon="2.439010100">
        <ele>442.80</ele>
        <time>2012-07-22T09:40:25Z</time>
      </trkpt>
      <trkpt lat="41.619663000" lon="2.439057100">
        <ele>442.80</ele>
        <time>2012-07-22T09:40:28Z</time>
      </trkpt>
      <trkpt lat="41.619541000" lon="2.439139100">
        <ele>442.30</ele>
        <time>2012-07-22T09:40:32Z</time>
      </trkpt>
      <trkpt lat="41.619270000" lon="2.439340100">
        <ele>441.90</ele>
        <time>2012-07-22T09:40:39Z</time>
      </trkpt>
      <trkpt lat="41.619148000" lon="2.439399100">
        <ele>441.40</ele>
        <time>2012-07-22T09:40:44Z</time>
      </trkpt>
      <trkpt lat="41.619064000" lon="2.439638100">
        <ele>441.40</ele>
        <time>2012-07-22T09:40:49Z</time>
      </trkpt>
      <trkpt lat="41.619045000" lon="2.439959100">
        <ele>441.40</ele>
        <time>2012-07-22T09:40:56Z</time>
      </trkpt>
      <trkpt lat="41.619118000" lon="2.440279100">
        <ele>441.40</ele>
        <time>2012-07-22T09:41:05Z</time>
      </trkpt>
      <trkpt lat="41.619263000" lon="2.440577100">
        <ele>442.30</ele>
        <time>2012-07-22T09:41:12Z</time>
      </trkpt>
      <trkpt lat="41.619308000" lon="2.440750100">
        <ele>442.30</ele>
        <time>2012-07-22T09:41:15Z</time>
      </trkpt>
      <trkpt lat="41.619209000" lon="2.440989100">
        <ele>442.30</ele>
        <time>2012-07-22T09:41:28Z</time>
      </trkpt>
      <trkpt lat="41.619213000" lon="2.441097100">
        <ele>442.30</ele>
        <time>2012-07-22T09:41:33Z</time>
      </trkpt>
      <trkpt lat="41.619171000" lon="2.441210100">
        <ele>442.30</ele>
        <time>2012-07-22T09:41:38Z</time>
      </trkpt>
      <trkpt lat="41.619072000" lon="2.441452100">
        <ele>442.30</ele>
        <time>2012-07-22T09:41:45Z</time>
      </trkpt>
      <trkpt lat="41.618946000" lon="2.441608100">
        <ele>442.30</ele>
        <time>2012-07-22T09:41:52Z</time>
      </trkpt>
      <trkpt lat="41.618759000" lon="2.441799100">
        <ele>442.80</ele>
        <time>2012-07-22T09:41:59Z</time>
      </trkpt>
      <trkpt lat="41.618607000" lon="2.441942100">
        <ele>443.80</ele>
        <time>2012-07-22T09:42:08Z</time>
      </trkpt>
      <trkpt lat="41.618504000" lon="2.442106100">
        <ele>445.20</ele>
        <time>2012-07-22T09:42:13Z</time>
      </trkpt>
      <trkpt lat="41.618435000" lon="2.442332100">
        <ele>445.70</ele>
        <time>2012-07-22T09:42:20Z</time>
      </trkpt>
      <trkpt lat="41.618366000" lon="2.442703100">
        <ele>445.70</ele>
        <time>2012-07-22T09:42:27Z</time>
      </trkpt>
      <trkpt lat="41.618324000" lon="2.442947100">
        <ele>445.70</ele>
        <time>2012-07-22T09:42:32Z</time>
      </trkpt>
      <trkpt lat="41.618217000" lon="2.443216100">
        <ele>445.70</ele>
        <time>2012-07-22T09:42:39Z</time>
      </trkpt>
      <trkpt lat="41.618031000" lon="2.443505100">
        <ele>445.70</ele>
        <time>2012-07-22T09:42:44Z</time>
      </trkpt>
      <trkpt lat="41.617912000" lon="2.443510100">
        <ele>445.70</ele>
        <time>2012-07-22T09:42:48Z</time>
      </trkpt>
      <trkpt lat="41.617821000" lon="2.443456100">
        <ele>444.80</ele>
        <time>2012-07-22T09:42:49Z</time>
      </trkpt>
      <trkpt lat="41.617718000" lon="2.443390100">
        <ele>444.30</ele>
        <time>2012-07-22T09:42:51Z</time>
      </trkpt>
      <trkpt lat="41.617477000" lon="2.443120100">
        <ele>443.80</ele>
        <time>2012-07-22T09:42:58Z</time>
      </trkpt>
      <trkpt lat="41.617443000" lon="2.443072100">
        <ele>443.80</ele>
        <time>2012-07-22T09:42:58Z</time>
      </trkpt>
      <trkpt lat="41.617359000" lon="2.442953100">
        <ele>443.30</ele>
        <time>2012-07-22T09:43:00Z</time>
      </trkpt>
      <trkpt lat="41.617275000" lon="2.442791100">
        <ele>440.90</ele>
        <time>2012-07-22T09:43:02Z</time>
      </trkpt>
      <trkpt lat="41.617184000" lon="2.442484100">
        <ele>437.50</ele>
        <time>2012-07-22T09:43:05Z</time>
      </trkpt>
      <trkpt lat="41.617065000" lon="2.442195100">
        <ele>432.70</ele>
        <time>2012-07-22T09:43:10Z</time>
      </trkpt>
      <trkpt lat="41.617027000" lon="2.442127100">
        <ele>432.20</ele>
        <time>2012-07-22T09:43:10Z</time>
      </trkpt>
      <trkpt lat="41.616817000" lon="2.441762100">
        <ele>432.70</ele>
        <time>2012-07-22T09:43:17Z</time>
      </trkpt>
      <trkpt lat="41.616749000" lon="2.441679100">
        <ele>434.20</ele>
        <time>2012-07-22T09:43:19Z</time>
      </trkpt>
      <trkpt lat="41.616577000" lon="2.441468100">
        <ele>437.50</ele>
        <time>2012-07-22T09:43:24Z</time>
      </trkpt>
      <trkpt lat="41.616512000" lon="2.441362100">
        <ele>438.00</ele>
        <time>2012-07-22T09:43:28Z</time>
      </trkpt>
      <trkpt lat="41.616356000" lon="2.441270100">
        <ele>438.00</ele>
        <time>2012-07-22T09:43:35Z</time>
      </trkpt>
      <trkpt lat="41.616180000" lon="2.441317100">
        <ele>438.00</ele>
        <time>2012-07-22T09:43:42Z</time>
      </trkpt>
      <trkpt lat="41.616043000" lon="2.441464100">
        <ele>439.50</ele>
        <time>2012-07-22T09:43:49Z</time>
      </trkpt>
      <trkpt lat="41.615932000" lon="2.441622100">
        <ele>440.40</ele>
        <time>2012-07-22T09:43:57Z</time>
      </trkpt>
      <trkpt lat="41.615913000" lon="2.441813100">
        <ele>440.90</ele>
        <time>2012-07-22T09:44:03Z</time>
      </trkpt>
      <trkpt lat="41.615852000" lon="2.441858100">
        <ele>441.40</ele>
        <time>2012-07-22T09:44:08Z</time>
      </trkpt>
      <trkpt lat="41.615818000" lon="2.441839100">
        <ele>441.90</ele>
        <time>2012-07-22T09:44:13Z</time>
      </trkpt>
      <trkpt lat="41.615818000" lon="2.441839100">
        <ele>441.90</ele>
        <time>2012-07-22T09:44:22Z</time>
      </trkpt>
      <trkpt lat="41.615841000" lon="2.441859100">
        <ele>442.30</ele>
        <time>2012-07-22T09:44:27Z</time>
      </trkpt>
      <trkpt lat="41.615841000" lon="2.441859100">
        <ele>442.30</ele>
        <time>2012-07-22T09:44:58Z</time>
      </trkpt>
      <trkpt lat="41.615841000" lon="2.441871100">
        <ele>442.80</ele>
        <time>2012-07-22T09:45:52Z</time>
      </trkpt>
      <trkpt lat="41.615837000" lon="2.441870100">
        <ele>442.80</ele>
        <time>2012-07-22T09:46:06Z</time>
      </trkpt>
      <trkpt lat="41.615841000" lon="2.441873100">
        <ele>442.80</ele>
        <time>2012-07-22T09:46:17Z</time>
      </trkpt>
      <trkpt lat="41.615841000" lon="2.441879100">
        <ele>442.80</ele>
        <time>2012-07-22T09:46:34Z</time>
      </trkpt>
      <trkpt lat="41.615837000" lon="2.441882100">
        <ele>442.80</ele>
        <time>2012-07-22T09:47:19Z</time>
      </trkpt>
      <trkpt lat="41.615841000" lon="2.441895100">
        <ele>442.80</ele>
        <time>2012-07-22T09:48:15Z</time>
      </trkpt>
      <trkpt lat="41.615849000" lon="2.441901100">
        <ele>442.80</ele>
        <time>2012-07-22T09:48:31Z</time>
      </trkpt>
      <trkpt lat="41.615849000" lon="2.441896100">
        <ele>442.80</ele>
        <time>2012-07-22T09:50:08Z</time>
      </trkpt>
      <trkpt lat="41.615845000" lon="2.441891100">
        <ele>442.80</ele>
        <time>2012-07-22T09:50:29Z</time>
      </trkpt>
      <trkpt lat="41.615841000" lon="2.441894100">
        <ele>442.80</ele>
        <time>2012-07-22T09:51:56Z</time>
      </trkpt>
      <trkpt lat="41.615837000" lon="2.441894100">
        <ele>442.80</ele>
        <time>2012-07-22T09:52:40Z</time>
      </trkpt>
      <trkpt lat="41.615837000" lon="2.441889100">
        <ele>442.80</ele>
        <time>2012-07-22T09:53:27Z</time>
      </trkpt>
      <trkpt lat="41.615833000" lon="2.441892100">
        <ele>442.80</ele>
        <time>2012-07-22T09:53:53Z</time>
      </trkpt>
      <trkpt lat="41.615837000" lon="2.441889100">
        <ele>442.80</ele>
        <time>2012-07-22T09:54:42Z</time>
      </trkpt>
      <trkpt lat="41.615837000" lon="2.441887100">
        <ele>442.80</ele>
        <time>2012-07-22T09:55:08Z</time>
      </trkpt>
      <trkpt lat="41.615833000" lon="2.441888100">
        <ele>442.80</ele>
        <time>2012-07-22T09:55:52Z</time>
      </trkpt>
      <trkpt lat="41.615833000" lon="2.441893100">
        <ele>442.80</ele>
        <time>2012-07-22T09:57:24Z</time>
      </trkpt>
      <trkpt lat="41.615837000" lon="2.441891100">
        <ele>442.80</ele>
        <time>2012-07-22T09:57:52Z</time>
      </trkpt>
      <trkpt lat="41.615837000" lon="2.441899100">
        <ele>442.80</ele>
        <time>2012-07-22T09:59:15Z</time>
      </trkpt>
      <trkpt lat="41.615833000" lon="2.441899100">
        <ele>442.80</ele>
        <time>2012-07-22T09:59:43Z</time>
      </trkpt>
      <trkpt lat="41.615837000" lon="2.441899100">
        <ele>442.80</ele>
        <time>2012-07-22T10:00:09Z</time>
      </trkpt>
      <trkpt lat="41.615845000" lon="2.441905100">
        <ele>442.80</ele>
        <time>2012-07-22T10:01:47Z</time>
      </trkpt>
      <trkpt lat="41.615845000" lon="2.441907100">
        <ele>442.80</ele>
        <time>2012-07-22T10:02:29Z</time>
      </trkpt>
      <trkpt lat="41.615845000" lon="2.441905100">
        <ele>442.80</ele>
        <time>2012-07-22T10:03:00Z</time>
      </trkpt>
      <trkpt lat="41.615841000" lon="2.441901100">
        <ele>442.80</ele>
        <time>2012-07-22T10:03:19Z</time>
      </trkpt>
      <trkpt lat="41.615845000" lon="2.441898100">
        <ele>442.80</ele>
        <time>2012-07-22T10:03:58Z</time>
      </trkpt>
      <trkpt lat="41.615845000" lon="2.441917100">
        <ele>442.80</ele>
        <time>2012-07-22T10:04:34Z</time>
      </trkpt>
      <trkpt lat="41.615845000" lon="2.441917100">
        <ele>442.80</ele>
        <time>2012-07-22T10:04:36Z</time>
      </trkpt>
      <trkpt lat="41.615833000" lon="2.442094100">
        <ele>443.30</ele>
        <time>2012-07-22T10:04:43Z</time>
      </trkpt>
      <trkpt lat="41.615879000" lon="2.442273100">
        <ele>443.30</ele>
        <time>2012-07-22T10:04:50Z</time>
      </trkpt>
      <trkpt lat="41.615891000" lon="2.442371100">
        <ele>443.30</ele>
        <time>2012-07-22T10:04:52Z</time>
      </trkpt>
      <trkpt lat="41.615868000" lon="2.442683100">
        <ele>443.30</ele>
        <time>2012-07-22T10:04:57Z</time>
      </trkpt>
      <trkpt lat="41.615891000" lon="2.443068100">
        <ele>443.30</ele>
        <time>2012-07-22T10:05:04Z</time>
      </trkpt>
      <trkpt lat="41.615921000" lon="2.443375100">
        <ele>443.30</ele>
        <time>2012-07-22T10:05:11Z</time>
      </trkpt>
      <trkpt lat="41.615940000" lon="2.443684100">
        <ele>443.30</ele>
        <time>2012-07-22T10:05:18Z</time>
      </trkpt>
      <trkpt lat="41.615963000" lon="2.443934100">
        <ele>442.30</ele>
        <time>2012-07-22T10:05:23Z</time>
      </trkpt>
      <trkpt lat="41.616051000" lon="2.444222100">
        <ele>441.90</ele>
        <time>2012-07-22T10:05:30Z</time>
      </trkpt>
      <trkpt lat="41.616127000" lon="2.444395100">
        <ele>441.40</ele>
        <time>2012-07-22T10:05:35Z</time>
      </trkpt>
      <trkpt lat="41.616131000" lon="2.444658100">
        <ele>440.40</ele>
        <time>2012-07-22T10:05:42Z</time>
      </trkpt>
      <trkpt lat="41.616104000" lon="2.444803100">
        <ele>439.90</ele>
        <time>2012-07-22T10:05:46Z</time>
      </trkpt>
      <trkpt lat="41.615963000" lon="2.444893100">
        <ele>439.50</ele>
        <time>2012-07-22T10:05:51Z</time>
      </trkpt>
      <trkpt lat="41.615871000" lon="2.444854100">
        <ele>439.50</ele>
        <time>2012-07-22T10:05:58Z</time>
      </trkpt>
      <trkpt lat="41.615784000" lon="2.444846100">
        <ele>440.90</ele>
        <time>2012-07-22T10:06:06Z</time>
      </trkpt>
      <trkpt lat="41.615639000" lon="2.444832100">
        <ele>442.80</ele>
        <time>2012-07-22T10:06:15Z</time>
      </trkpt>
      <trkpt lat="41.615471000" lon="2.444827100">
        <ele>444.30</ele>
        <time>2012-07-22T10:06:22Z</time>
      </trkpt>
      <trkpt lat="41.615311000" lon="2.444799100">
        <ele>444.80</ele>
        <time>2012-07-22T10:06:29Z</time>
      </trkpt>
      <trkpt lat="41.615166000" lon="2.444729100">
        <ele>444.80</ele>
        <time>2012-07-22T10:06:36Z</time>
      </trkpt>
      <trkpt lat="41.615025000" lon="2.444712100">
        <ele>444.80</ele>
        <time>2012-07-22T10:06:43Z</time>
      </trkpt>
      <trkpt lat="41.614883000" lon="2.444766100">
        <ele>442.80</ele>
        <time>2012-07-22T10:06:47Z</time>
      </trkpt>
      <trkpt lat="41.614727000" lon="2.444795100">
        <ele>441.90</ele>
        <time>2012-07-22T10:06:50Z</time>
      </trkpt>
      <trkpt lat="41.614521000" lon="2.444885100">
        <ele>437.50</ele>
        <time>2012-07-22T10:06:54Z</time>
      </trkpt>
      <trkpt lat="41.614437000" lon="2.445056100">
        <ele>435.10</ele>
        <time>2012-07-22T10:06:57Z</time>
      </trkpt>
      <trkpt lat="41.614399000" lon="2.445186100">
        <ele>436.10</ele>
        <time>2012-07-22T10:06:59Z</time>
      </trkpt>
      <trkpt lat="41.614330000" lon="2.445365100">
        <ele>435.10</ele>
        <time>2012-07-22T10:07:02Z</time>
      </trkpt>
      <trkpt lat="41.614262000" lon="2.445669100">
        <ele>435.10</ele>
        <time>2012-07-22T10:07:07Z</time>
      </trkpt>
      <trkpt lat="41.614151000" lon="2.445671100">
        <ele>436.60</ele>
        <time>2012-07-22T10:07:13Z</time>
      </trkpt>
      <trkpt lat="41.614098000" lon="2.445610100">
        <ele>436.60</ele>
        <time>2012-07-22T10:07:14Z</time>
      </trkpt>
      <trkpt lat="41.613911000" lon="2.445445100">
        <ele>436.60</ele>
        <time>2012-07-22T10:07:21Z</time>
      </trkpt>
      <trkpt lat="41.613792000" lon="2.445352100">
        <ele>437.50</ele>
        <time>2012-07-22T10:07:27Z</time>
      </trkpt>
      <trkpt lat="41.613651000" lon="2.445225100">
        <ele>438.00</ele>
        <time>2012-07-22T10:07:34Z</time>
      </trkpt>
      <trkpt lat="41.613514000" lon="2.445099100">
        <ele>439.00</ele>
        <time>2012-07-22T10:07:41Z</time>
      </trkpt>
      <trkpt lat="41.613361000" lon="2.444981100">
        <ele>439.00</ele>
        <time>2012-07-22T10:07:48Z</time>
      </trkpt>
      <trkpt lat="41.613342000" lon="2.444977100">
        <ele>439.00</ele>
        <time>2012-07-22T10:07:49Z</time>
      </trkpt>
      <trkpt lat="41.613270000" lon="2.445021100">
        <ele>439.00</ele>
        <time>2012-07-22T10:07:53Z</time>
      </trkpt>
      <trkpt lat="41.613201000" lon="2.445300100">
        <ele>437.50</ele>
        <time>2012-07-22T10:08:00Z</time>
      </trkpt>
      <trkpt lat="41.613228000" lon="2.445620100">
        <ele>437.50</ele>
        <time>2012-07-22T10:08:07Z</time>
      </trkpt>
      <trkpt lat="41.613167000" lon="2.445935100">
        <ele>435.60</ele>
        <time>2012-07-22T10:08:14Z</time>
      </trkpt>
      <trkpt lat="41.613110000" lon="2.446134100">
        <ele>433.20</ele>
        <time>2012-07-22T10:08:17Z</time>
      </trkpt>
      <trkpt lat="41.613010000" lon="2.446399100">
        <ele>428.90</ele>
        <time>2012-07-22T10:08:22Z</time>
      </trkpt>
      <trkpt lat="41.612980000" lon="2.446476100">
        <ele>427.90</ele>
        <time>2012-07-22T10:08:22Z</time>
      </trkpt>
      <trkpt lat="41.612835000" lon="2.447079100">
        <ele>425.00</ele>
        <time>2012-07-22T10:08:29Z</time>
      </trkpt>
      <trkpt lat="41.612801000" lon="2.447391100">
        <ele>424.60</ele>
        <time>2012-07-22T10:08:33Z</time>
      </trkpt>
      <trkpt lat="41.612812000" lon="2.447638100">
        <ele>423.60</ele>
        <time>2012-07-22T10:08:36Z</time>
      </trkpt>
      <trkpt lat="41.612869000" lon="2.447895100">
        <ele>419.80</ele>
        <time>2012-07-22T10:08:40Z</time>
      </trkpt>
      <trkpt lat="41.612873000" lon="2.447998100">
        <ele>416.90</ele>
        <time>2012-07-22T10:08:43Z</time>
      </trkpt>
      <trkpt lat="41.612797000" lon="2.448014100">
        <ele>414.00</ele>
        <time>2012-07-22T10:08:47Z</time>
      </trkpt>
      <trkpt lat="41.612659000" lon="2.447833100">
        <ele>413.00</ele>
        <time>2012-07-22T10:08:52Z</time>
      </trkpt>
      <trkpt lat="41.612545000" lon="2.447679100">
        <ele>413.00</ele>
        <time>2012-07-22T10:08:54Z</time>
      </trkpt>
      <trkpt lat="41.612309000" lon="2.447387100">
        <ele>409.70</ele>
        <time>2012-07-22T10:09:01Z</time>
      </trkpt>
      <trkpt lat="41.612251000" lon="2.447357100">
        <ele>408.20</ele>
        <time>2012-07-22T10:09:01Z</time>
      </trkpt>
      <trkpt lat="41.612053000" lon="2.447275100">
        <ele>403.90</ele>
        <time>2012-07-22T10:09:04Z</time>
      </trkpt>
      <trkpt lat="41.611958000" lon="2.447231100">
        <ele>400.50</ele>
        <time>2012-07-22T10:09:06Z</time>
      </trkpt>
      <trkpt lat="41.611908000" lon="2.447241100">
        <ele>397.20</ele>
        <time>2012-07-22T10:09:11Z</time>
      </trkpt>
      <trkpt lat="41.611839000" lon="2.447308100">
        <ele>400.00</ele>
        <time>2012-07-22T10:09:16Z</time>
      </trkpt>
      <trkpt lat="41.611794000" lon="2.447293100">
        <ele>400.50</ele>
        <time>2012-07-22T10:09:18Z</time>
      </trkpt>
      <trkpt lat="41.611771000" lon="2.447282100">
        <ele>401.50</ele>
        <time>2012-07-22T10:09:18Z</time>
      </trkpt>
      <trkpt lat="41.611652000" lon="2.447244100">
        <ele>398.60</ele>
        <time>2012-07-22T10:09:23Z</time>
      </trkpt>
      <trkpt lat="41.611588000" lon="2.447316100">
        <ele>393.30</ele>
        <time>2012-07-22T10:09:27Z</time>
      </trkpt>
      <trkpt lat="41.611580000" lon="2.447376100">
        <ele>390.90</ele>
        <time>2012-07-22T10:09:30Z</time>
      </trkpt>
      <trkpt lat="41.611565000" lon="2.447579100">
        <ele>389.50</ele>
        <time>2012-07-22T10:09:35Z</time>
      </trkpt>
      <trkpt lat="41.611580000" lon="2.447648100">
        <ele>389.50</ele>
        <time>2012-07-22T10:09:37Z</time>
      </trkpt>
      <trkpt lat="41.611515000" lon="2.447799100">
        <ele>389.50</ele>
        <time>2012-07-22T10:09:42Z</time>
      </trkpt>
      <trkpt lat="41.611355000" lon="2.447929100">
        <ele>386.10</ele>
        <time>2012-07-22T10:09:51Z</time>
      </trkpt>
      <trkpt lat="41.611324000" lon="2.447963100">
        <ele>385.10</ele>
        <time>2012-07-22T10:09:51Z</time>
      </trkpt>
      <trkpt lat="41.611195000" lon="2.448134100">
        <ele>381.30</ele>
        <time>2012-07-22T10:09:55Z</time>
      </trkpt>
      <trkpt lat="41.611012000" lon="2.448353100">
        <ele>377.90</ele>
        <time>2012-07-22T10:10:02Z</time>
      </trkpt>
      <trkpt lat="41.610943000" lon="2.448384100">
        <ele>377.50</ele>
        <time>2012-07-22T10:10:03Z</time>
      </trkpt>
      <trkpt lat="41.610722000" lon="2.448487100">
        <ele>375.50</ele>
        <time>2012-07-22T10:10:10Z</time>
      </trkpt>
      <trkpt lat="41.610611000" lon="2.448478100">
        <ele>372.60</ele>
        <time>2012-07-22T10:10:14Z</time>
      </trkpt>
      <trkpt lat="41.610542000" lon="2.448484100">
        <ele>370.70</ele>
        <time>2012-07-22T10:10:17Z</time>
      </trkpt>
      <trkpt lat="41.610428000" lon="2.448466100">
        <ele>368.80</ele>
        <time>2012-07-22T10:10:24Z</time>
      </trkpt>
      <trkpt lat="41.610317000" lon="2.448474100">
        <ele>366.40</ele>
        <time>2012-07-22T10:10:31Z</time>
      </trkpt>
      <trkpt lat="41.610142000" lon="2.448474100">
        <ele>362.50</ele>
        <time>2012-07-22T10:10:38Z</time>
      </trkpt>
      <trkpt lat="41.610073000" lon="2.448544100">
        <ele>359.70</ele>
        <time>2012-07-22T10:10:43Z</time>
      </trkpt>
      <trkpt lat="41.610092000" lon="2.448706100">
        <ele>359.20</ele>
        <time>2012-07-22T10:10:49Z</time>
      </trkpt>
      <trkpt lat="41.610104000" lon="2.448858100">
        <ele>358.20</ele>
        <time>2012-07-22T10:10:54Z</time>
      </trkpt>
      <trkpt lat="41.610138000" lon="2.448961100">
        <ele>356.80</ele>
        <time>2012-07-22T10:10:57Z</time>
      </trkpt>
      <trkpt lat="41.610165000" lon="2.449033100">
        <ele>354.40</ele>
        <time>2012-07-22T10:11:01Z</time>
      </trkpt>
      <trkpt lat="41.610188000" lon="2.449121100">
        <ele>350.10</ele>
        <time>2012-07-22T10:11:04Z</time>
      </trkpt>
      <trkpt lat="41.610264000" lon="2.449244100">
        <ele>347.60</ele>
        <time>2012-07-22T10:11:11Z</time>
      </trkpt>
      <trkpt lat="41.610432000" lon="2.449394100">
        <ele>347.60</ele>
        <time>2012-07-22T10:11:18Z</time>
      </trkpt>
      <trkpt lat="41.610504000" lon="2.449517100">
        <ele>347.20</ele>
        <time>2012-07-22T10:11:22Z</time>
      </trkpt>
      <trkpt lat="41.610508000" lon="2.449680100">
        <ele>344.30</ele>
        <time>2012-07-22T10:11:27Z</time>
      </trkpt>
      <trkpt lat="41.610477000" lon="2.449724100">
        <ele>341.90</ele>
        <time>2012-07-22T10:11:29Z</time>
      </trkpt>
      <trkpt lat="41.610439000" lon="2.449733100">
        <ele>337.60</ele>
        <time>2012-07-22T10:11:34Z</time>
      </trkpt>
      <trkpt lat="41.610439000" lon="2.449733100">
        <ele>337.60</ele>
        <time>2012-07-22T10:11:36Z</time>
      </trkpt>
      <trkpt lat="41.610310000" lon="2.449656100">
        <ele>338.50</ele>
        <time>2012-07-22T10:11:43Z</time>
      </trkpt>
      <trkpt lat="41.610111000" lon="2.449608100">
        <ele>336.60</ele>
        <time>2012-07-22T10:11:50Z</time>
      </trkpt>
      <trkpt lat="41.610023000" lon="2.449614100">
        <ele>333.20</ele>
        <time>2012-07-22T10:11:53Z</time>
      </trkpt>
      <trkpt lat="41.610001000" lon="2.449616100">
        <ele>332.30</ele>
        <time>2012-07-22T10:11:55Z</time>
      </trkpt>
      <trkpt lat="41.609829000" lon="2.449588100">
        <ele>327.50</ele>
        <time>2012-07-22T10:12:02Z</time>
      </trkpt>
      <trkpt lat="41.609806000" lon="2.449585100">
        <ele>327.50</ele>
        <time>2012-07-22T10:12:02Z</time>
      </trkpt>
      <trkpt lat="41.609619000" lon="2.449468100">
        <ele>327.50</ele>
        <time>2012-07-22T10:12:09Z</time>
      </trkpt>
      <trkpt lat="41.609463000" lon="2.449281100">
        <ele>327.50</ele>
        <time>2012-07-22T10:12:14Z</time>
      </trkpt>
      <trkpt lat="41.609402000" lon="2.449193100">
        <ele>327.50</ele>
        <time>2012-07-22T10:12:16Z</time>
      </trkpt>
      <trkpt lat="41.609287000" lon="2.448981100">
        <ele>327.00</ele>
        <time>2012-07-22T10:12:21Z</time>
      </trkpt>
      <trkpt lat="41.609180000" lon="2.448595100">
        <ele>326.00</ele>
        <time>2012-07-22T10:12:30Z</time>
      </trkpt>
      <trkpt lat="41.609196000" lon="2.448438100">
        <ele>325.50</ele>
        <time>2012-07-22T10:12:33Z</time>
      </trkpt>
      <trkpt lat="41.609089000" lon="2.448273100">
        <ele>324.10</ele>
        <time>2012-07-22T10:12:37Z</time>
      </trkpt>
      <trkpt lat="41.608921000" lon="2.448225100">
        <ele>324.60</ele>
        <time>2012-07-22T10:12:45Z</time>
      </trkpt>
      <trkpt lat="41.608730000" lon="2.448253100">
        <ele>323.10</ele>
        <time>2012-07-22T10:12:51Z</time>
      </trkpt>
      <trkpt lat="41.608608000" lon="2.448250100">
        <ele>319.80</ele>
        <time>2012-07-22T10:12:56Z</time>
      </trkpt>
      <trkpt lat="41.608562000" lon="2.448266100">
        <ele>317.40</ele>
        <time>2012-07-22T10:12:58Z</time>
      </trkpt>
      <trkpt lat="41.608513000" lon="2.448318100">
        <ele>315.00</ele>
        <time>2012-07-22T10:13:01Z</time>
      </trkpt>
      <trkpt lat="41.608482000" lon="2.448357100">
        <ele>313.50</ele>
        <time>2012-07-22T10:13:03Z</time>
      </trkpt>
      <trkpt lat="41.608402000" lon="2.448434100">
        <ele>313.00</ele>
        <time>2012-07-22T10:13:10Z</time>
      </trkpt>
      <trkpt lat="41.608391000" lon="2.448444100">
        <ele>313.00</ele>
        <time>2012-07-22T10:13:10Z</time>
      </trkpt>
      <trkpt lat="41.608330000" lon="2.448462100">
        <ele>313.00</ele>
        <time>2012-07-22T10:13:15Z</time>
      </trkpt>
      <trkpt lat="41.608242000" lon="2.448561100">
        <ele>310.60</ele>
        <time>2012-07-22T10:13:22Z</time>
      </trkpt>
      <trkpt lat="41.608223000" lon="2.448685100">
        <ele>307.30</ele>
        <time>2012-07-22T10:13:25Z</time>
      </trkpt>
      <trkpt lat="41.608093000" lon="2.448847100">
        <ele>303.00</ele>
        <time>2012-07-22T10:13:31Z</time>
      </trkpt>
      <trkpt lat="41.607971000" lon="2.448824100">
        <ele>302.50</ele>
        <time>2012-07-22T10:13:36Z</time>
      </trkpt>
      <trkpt lat="41.607941000" lon="2.448809100">
        <ele>302.00</ele>
        <time>2012-07-22T10:13:38Z</time>
      </trkpt>
      <trkpt lat="41.607822000" lon="2.448826100">
        <ele>302.00</ele>
        <time>2012-07-22T10:13:43Z</time>
      </trkpt>
      <trkpt lat="41.607780000" lon="2.448864100">
        <ele>301.50</ele>
        <time>2012-07-22T10:13:46Z</time>
      </trkpt>
      <trkpt lat="41.607723000" lon="2.448954100">
        <ele>301.00</ele>
        <time>2012-07-22T10:13:48Z</time>
      </trkpt>
      <trkpt lat="41.607563000" lon="2.449049100">
        <ele>299.10</ele>
        <time>2012-07-22T10:13:55Z</time>
      </trkpt>
      <trkpt lat="41.607494000" lon="2.449086100">
        <ele>298.60</ele>
        <time>2012-07-22T10:13:59Z</time>
      </trkpt>
      <trkpt lat="41.607384000" lon="2.449156100">
        <ele>295.70</ele>
        <time>2012-07-22T10:14:04Z</time>
      </trkpt>
      <trkpt lat="41.607239000" lon="2.449209100">
        <ele>292.40</ele>
        <time>2012-07-22T10:14:09Z</time>
      </trkpt>
      <trkpt lat="41.607075000" lon="2.449192100">
        <ele>291.90</ele>
        <time>2012-07-22T10:14:14Z</time>
      </trkpt>
      <trkpt lat="41.606857000" lon="2.449148100">
        <ele>291.90</ele>
        <time>2012-07-22T10:14:19Z</time>
      </trkpt>
      <trkpt lat="41.606712000" lon="2.449058100">
        <ele>290.50</ele>
        <time>2012-07-22T10:14:23Z</time>
      </trkpt>
      <trkpt lat="41.606647000" lon="2.448981100">
        <ele>285.60</ele>
        <time>2012-07-22T10:14:30Z</time>
      </trkpt>
      <trkpt lat="41.606647000" lon="2.448981100">
        <ele>285.60</ele>
        <time>2012-07-22T10:14:49Z</time>
      </trkpt>
      <trkpt lat="41.606617000" lon="2.449071100">
        <ele>286.60</ele>
        <time>2012-07-22T10:14:58Z</time>
      </trkpt>
      <trkpt lat="41.606590000" lon="2.449217100">
        <ele>286.60</ele>
        <time>2012-07-22T10:15:05Z</time>
      </trkpt>
      <trkpt lat="41.606647000" lon="2.449385100">
        <ele>285.60</ele>
        <time>2012-07-22T10:15:10Z</time>
      </trkpt>
      <trkpt lat="41.606678000" lon="2.449572100">
        <ele>282.80</ele>
        <time>2012-07-22T10:15:17Z</time>
      </trkpt>
      <trkpt lat="41.606731000" lon="2.449656100">
        <ele>278.40</ele>
        <time>2012-07-22T10:15:20Z</time>
      </trkpt>
      <trkpt lat="41.606739000" lon="2.449668100">
        <ele>277.50</ele>
        <time>2012-07-22T10:15:22Z</time>
      </trkpt>
      <trkpt lat="41.606773000" lon="2.449710100">
        <ele>275.60</ele>
        <time>2012-07-22T10:15:27Z</time>
      </trkpt>
      <trkpt lat="41.606792000" lon="2.449723100">
        <ele>275.60</ele>
        <time>2012-07-22T10:15:29Z</time>
      </trkpt>
      <trkpt lat="41.606892000" lon="2.449832100">
        <ele>275.60</ele>
        <time>2012-07-22T10:15:36Z</time>
      </trkpt>
      <trkpt lat="41.606968000" lon="2.449980100">
        <ele>275.60</ele>
        <time>2012-07-22T10:15:43Z</time>
      </trkpt>
      <trkpt lat="41.607006000" lon="2.450016100">
        <ele>275.60</ele>
        <time>2012-07-22T10:15:45Z</time>
      </trkpt>
      <trkpt lat="41.607044000" lon="2.450018100">
        <ele>275.60</ele>
        <time>2012-07-22T10:15:48Z</time>
      </trkpt>
      <trkpt lat="41.607216000" lon="2.449963100">
        <ele>275.10</ele>
        <time>2012-07-22T10:15:57Z</time>
      </trkpt>
      <trkpt lat="41.607269000" lon="2.449955100">
        <ele>274.10</ele>
        <time>2012-07-22T10:16:04Z</time>
      </trkpt>
      <trkpt lat="41.607269000" lon="2.449955100">
        <ele>274.10</ele>
        <time>2012-07-22T10:16:14Z</time>
      </trkpt>
      <trkpt lat="41.607273000" lon="2.449952100">
        <ele>273.10</ele>
        <time>2012-07-22T10:16:23Z</time>
      </trkpt>
      <trkpt lat="41.607281000" lon="2.449951100">
        <ele>273.10</ele>
        <time>2012-07-22T10:16:32Z</time>
      </trkpt>
      <trkpt lat="41.607304000" lon="2.449945100">
        <ele>272.70</ele>
        <time>2012-07-22T10:16:46Z</time>
      </trkpt>
      <trkpt lat="41.607307000" lon="2.449944100">
        <ele>272.70</ele>
        <time>2012-07-22T10:16:56Z</time>
      </trkpt>
      <trkpt lat="41.607346000" lon="2.449945100">
        <ele>272.70</ele>
        <time>2012-07-22T10:17:07Z</time>
      </trkpt>
      <trkpt lat="41.607349000" lon="2.449948100">
        <ele>272.20</ele>
        <time>2012-07-22T10:17:26Z</time>
      </trkpt>
      <trkpt lat="41.607388000" lon="2.450005100">
        <ele>272.20</ele>
        <time>2012-07-22T10:17:36Z</time>
      </trkpt>
      <trkpt lat="41.607403000" lon="2.450105100">
        <ele>272.20</ele>
        <time>2012-07-22T10:17:42Z</time>
      </trkpt>
      <trkpt lat="41.607399000" lon="2.450238100">
        <ele>272.20</ele>
        <time>2012-07-22T10:17:50Z</time>
      </trkpt>
      <trkpt lat="41.607403000" lon="2.450271100">
        <ele>273.60</ele>
        <time>2012-07-22T10:17:54Z</time>
      </trkpt>
      <trkpt lat="41.607403000" lon="2.450271100">
        <ele>273.60</ele>
        <time>2012-07-22T10:18:04Z</time>
      </trkpt>
      <trkpt lat="41.607410000" lon="2.450288100">
        <ele>276.00</ele>
        <time>2012-07-22T10:18:13Z</time>
      </trkpt>
      <trkpt lat="41.607410000" lon="2.450288100">
        <ele>276.00</ele>
        <time>2012-07-22T10:18:22Z</time>
      </trkpt>
      <trkpt lat="41.607407000" lon="2.450291100">
        <ele>277.50</ele>
        <time>2012-07-22T10:18:46Z</time>
      </trkpt>
      <trkpt lat="41.607410000" lon="2.450298100">
        <ele>277.50</ele>
        <time>2012-07-22T10:18:53Z</time>
      </trkpt>
      <trkpt lat="41.607410000" lon="2.450318100">
        <ele>277.50</ele>
        <time>2012-07-22T10:18:58Z</time>
      </trkpt>
      <trkpt lat="41.607372000" lon="2.450405100">
        <ele>277.50</ele>
        <time>2012-07-22T10:19:02Z</time>
      </trkpt>
      <trkpt lat="41.607216000" lon="2.450641100">
        <ele>277.50</ele>
        <time>2012-07-22T10:19:12Z</time>
      </trkpt>
      <trkpt lat="41.607124000" lon="2.450765100">
        <ele>278.40</ele>
        <time>2012-07-22T10:19:19Z</time>
      </trkpt>
      <trkpt lat="41.606956000" lon="2.450874100">
        <ele>278.90</ele>
        <time>2012-07-22T10:19:26Z</time>
      </trkpt>
      <trkpt lat="41.606758000" lon="2.451018100">
        <ele>279.40</ele>
        <time>2012-07-22T10:19:33Z</time>
      </trkpt>
      <trkpt lat="41.606327000" lon="2.451244100">
        <ele>279.40</ele>
        <time>2012-07-22T10:19:42Z</time>
      </trkpt>
      <trkpt lat="41.606125000" lon="2.451456100">
        <ele>276.00</ele>
        <time>2012-07-22T10:19:45Z</time>
      </trkpt>
      <trkpt lat="41.606049000" lon="2.451579100">
        <ele>275.10</ele>
        <time>2012-07-22T10:19:47Z</time>
      </trkpt>
      <trkpt lat="41.605915000" lon="2.451718100">
        <ele>274.60</ele>
        <time>2012-07-22T10:19:52Z</time>
      </trkpt>
      <trkpt lat="41.605713000" lon="2.451876100">
        <ele>273.10</ele>
        <time>2012-07-22T10:19:57Z</time>
      </trkpt>
      <trkpt lat="41.605701000" lon="2.451887100">
        <ele>273.60</ele>
        <time>2012-07-22T10:19:59Z</time>
      </trkpt>
      <trkpt lat="41.605625000" lon="2.451988100">
        <ele>272.20</ele>
        <time>2012-07-22T10:20:04Z</time>
      </trkpt>
      <trkpt lat="41.605637000" lon="2.452048100">
        <ele>271.70</ele>
        <time>2012-07-22T10:20:08Z</time>
      </trkpt>
      <trkpt lat="41.605656000" lon="2.452095100">
        <ele>271.70</ele>
        <time>2012-07-22T10:20:13Z</time>
      </trkpt>
      <trkpt lat="41.605633000" lon="2.452119100">
        <ele>271.20</ele>
        <time>2012-07-22T10:20:18Z</time>
      </trkpt>
      <trkpt lat="41.605507000" lon="2.452155100">
        <ele>270.80</ele>
        <time>2012-07-22T10:20:25Z</time>
      </trkpt>
      <trkpt lat="41.605389000" lon="2.452198100">
        <ele>269.80</ele>
        <time>2012-07-22T10:20:27Z</time>
      </trkpt>
      <trkpt lat="41.605190000" lon="2.452232100">
        <ele>265.50</ele>
        <time>2012-07-22T10:20:32Z</time>
      </trkpt>
      <trkpt lat="41.605022000" lon="2.452259100">
        <ele>261.60</ele>
        <time>2012-07-22T10:20:34Z</time>
      </trkpt>
      <trkpt lat="41.604927000" lon="2.452296100">
        <ele>257.80</ele>
        <time>2012-07-22T10:20:37Z</time>
      </trkpt>
      <trkpt lat="41.604900000" lon="2.452313100">
        <ele>257.30</ele>
        <time>2012-07-22T10:20:43Z</time>
      </trkpt>
      <trkpt lat="41.604900000" lon="2.452313100">
        <ele>257.30</ele>
        <time>2012-07-22T10:21:00Z</time>
      </trkpt>
      <trkpt lat="41.604900000" lon="2.452313100">
        <ele>257.30</ele>
        <time>2012-07-22T10:21:16Z</time>
      </trkpt>
      <trkpt lat="41.604900000" lon="2.452312100">
        <ele>260.60</ele>
        <time>2012-07-22T10:21:30Z</time>
      </trkpt>
      <trkpt lat="41.604866000" lon="2.452324100">
        <ele>260.60</ele>
        <time>2012-07-22T10:21:35Z</time>
      </trkpt>
      <trkpt lat="41.604790000" lon="2.452372100">
        <ele>260.20</ele>
        <time>2012-07-22T10:21:37Z</time>
      </trkpt>
      <trkpt lat="41.604622000" lon="2.452418100">
        <ele>257.80</ele>
        <time>2012-07-22T10:21:42Z</time>
      </trkpt>
      <trkpt lat="41.604416000" lon="2.452400100">
        <ele>252.50</ele>
        <time>2012-07-22T10:21:45Z</time>
      </trkpt>
      <trkpt lat="41.604321000" lon="2.452381100">
        <ele>248.60</ele>
        <time>2012-07-22T10:21:47Z</time>
      </trkpt>
      <trkpt lat="41.604240000" lon="2.452364100">
        <ele>245.30</ele>
        <time>2012-07-22T10:21:49Z</time>
      </trkpt>
      <trkpt lat="41.603939000" lon="2.452328100">
        <ele>240.50</ele>
        <time>2012-07-22T10:21:54Z</time>
      </trkpt>
      <trkpt lat="41.603794000" lon="2.452350100">
        <ele>238.10</ele>
        <time>2012-07-22T10:21:56Z</time>
      </trkpt>
      <trkpt lat="41.603531000" lon="2.452483100">
        <ele>232.30</ele>
        <time>2012-07-22T10:22:01Z</time>
      </trkpt>
      <trkpt lat="41.603336000" lon="2.452528100">
        <ele>228.40</ele>
        <time>2012-07-22T10:22:03Z</time>
      </trkpt>
      <trkpt lat="41.602959000" lon="2.452540100">
        <ele>224.10</ele>
        <time>2012-07-22T10:22:10Z</time>
      </trkpt>
      <trkpt lat="41.602936000" lon="2.452627100">
        <ele>223.60</ele>
        <time>2012-07-22T10:22:15Z</time>
      </trkpt>
      <trkpt lat="41.602955000" lon="2.452708100">
        <ele>223.60</ele>
        <time>2012-07-22T10:22:20Z</time>
      </trkpt>
      <trkpt lat="41.603039000" lon="2.452868100">
        <ele>223.60</ele>
        <time>2012-07-22T10:22:24Z</time>
      </trkpt>
      <trkpt lat="41.603153000" lon="2.453001100">
        <ele>223.60</ele>
        <time>2012-07-22T10:22:31Z</time>
      </trkpt>
      <trkpt lat="41.603256000" lon="2.453021100">
        <ele>223.60</ele>
        <time>2012-07-22T10:22:36Z</time>
      </trkpt>
      <trkpt lat="41.603390000" lon="2.453006100">
        <ele>225.10</ele>
        <time>2012-07-22T10:22:43Z</time>
      </trkpt>
      <trkpt lat="41.603527000" lon="2.453013100">
        <ele>226.10</ele>
        <time>2012-07-22T10:22:50Z</time>
      </trkpt>
      <trkpt lat="41.603668000" lon="2.453073100">
        <ele>227.00</ele>
        <time>2012-07-22T10:22:57Z</time>
      </trkpt>
      <trkpt lat="41.603771000" lon="2.453174100">
        <ele>228.00</ele>
        <time>2012-07-22T10:23:04Z</time>
      </trkpt>
      <trkpt lat="41.603859000" lon="2.453312100">
        <ele>228.00</ele>
        <time>2012-07-22T10:23:09Z</time>
      </trkpt>
      <trkpt lat="41.603951000" lon="2.453541100">
        <ele>228.90</ele>
        <time>2012-07-22T10:23:16Z</time>
      </trkpt>
      <trkpt lat="41.603992000" lon="2.453752100">
        <ele>228.90</ele>
        <time>2012-07-22T10:23:23Z</time>
      </trkpt>
      <trkpt lat="41.603989000" lon="2.454069100">
        <ele>229.40</ele>
        <time>2012-07-22T10:23:30Z</time>
      </trkpt>
      <trkpt lat="41.603912000" lon="2.454409100">
        <ele>229.90</ele>
        <time>2012-07-22T10:23:39Z</time>
      </trkpt>
      <trkpt lat="41.603912000" lon="2.454617100">
        <ele>231.30</ele>
        <time>2012-07-22T10:23:44Z</time>
      </trkpt>
      <trkpt lat="41.603966000" lon="2.454851100">
        <ele>232.30</ele>
        <time>2012-07-22T10:23:51Z</time>
      </trkpt>
      <trkpt lat="41.604073000" lon="2.455137100">
        <ele>232.30</ele>
        <time>2012-07-22T10:23:58Z</time>
      </trkpt>
      <trkpt lat="41.604179000" lon="2.455391100">
        <ele>232.80</ele>
        <time>2012-07-22T10:24:03Z</time>
      </trkpt>
      <trkpt lat="41.604286000" lon="2.455610100">
        <ele>232.80</ele>
        <time>2012-07-22T10:24:10Z</time>
      </trkpt>
      <trkpt lat="41.604382000" lon="2.455740100">
        <ele>233.30</ele>
        <time>2012-07-22T10:24:15Z</time>
      </trkpt>
      <trkpt lat="41.604561000" lon="2.455864100">
        <ele>233.70</ele>
        <time>2012-07-22T10:24:22Z</time>
      </trkpt>
      <trkpt lat="41.604759000" lon="2.455937100">
        <ele>234.70</ele>
        <time>2012-07-22T10:24:29Z</time>
      </trkpt>
      <trkpt lat="41.604897000" lon="2.456029100">
        <ele>235.70</ele>
        <time>2012-07-22T10:24:36Z</time>
      </trkpt>
      <trkpt lat="41.604969000" lon="2.456131100">
        <ele>237.10</ele>
        <time>2012-07-22T10:24:41Z</time>
      </trkpt>
      <trkpt lat="41.605057000" lon="2.456270100">
        <ele>239.50</ele>
        <time>2012-07-22T10:24:48Z</time>
      </trkpt>
      <trkpt lat="41.605064000" lon="2.456289100">
        <ele>240.50</ele>
        <time>2012-07-22T10:24:50Z</time>
      </trkpt>
      <trkpt lat="41.605087000" lon="2.456392100">
        <ele>243.80</ele>
        <time>2012-07-22T10:24:54Z</time>
      </trkpt>
      <trkpt lat="41.605091000" lon="2.456650100">
        <ele>245.80</ele>
        <time>2012-07-22T10:25:02Z</time>
      </trkpt>
      <trkpt lat="41.605076000" lon="2.456705100">
        <ele>245.80</ele>
        <time>2012-07-22T10:25:04Z</time>
      </trkpt>
      <trkpt lat="41.605022000" lon="2.456861100">
        <ele>245.80</ele>
        <time>2012-07-22T10:25:11Z</time>
      </trkpt>
      <trkpt lat="41.604996000" lon="2.456909100">
        <ele>245.80</ele>
        <time>2012-07-22T10:25:13Z</time>
      </trkpt>
      <trkpt lat="41.604904000" lon="2.457139100">
        <ele>246.20</ele>
        <time>2012-07-22T10:25:23Z</time>
      </trkpt>
      <trkpt lat="41.604809000" lon="2.457300100">
        <ele>247.20</ele>
        <time>2012-07-22T10:25:32Z</time>
      </trkpt>
      <trkpt lat="41.604748000" lon="2.457457100">
        <ele>248.60</ele>
        <time>2012-07-22T10:25:39Z</time>
      </trkpt>
      <trkpt lat="41.604713000" lon="2.457576100">
        <ele>251.00</ele>
        <time>2012-07-22T10:25:46Z</time>
      </trkpt>
      <trkpt lat="41.604706000" lon="2.457682100">
        <ele>255.40</ele>
        <time>2012-07-22T10:25:51Z</time>
      </trkpt>
      <trkpt lat="41.604713000" lon="2.457804100">
        <ele>255.90</ele>
        <time>2012-07-22T10:25:56Z</time>
      </trkpt>
      <trkpt lat="41.604725000" lon="2.457941100">
        <ele>255.90</ele>
        <time>2012-07-22T10:26:03Z</time>
      </trkpt>
      <trkpt lat="41.604710000" lon="2.458021100">
        <ele>255.90</ele>
        <time>2012-07-22T10:26:07Z</time>
      </trkpt>
      <trkpt lat="41.604679000" lon="2.458156100">
        <ele>256.30</ele>
        <time>2012-07-22T10:26:14Z</time>
      </trkpt>
      <trkpt lat="41.604675000" lon="2.458296100">
        <ele>259.20</ele>
        <time>2012-07-22T10:26:22Z</time>
      </trkpt>
      <trkpt lat="41.604660000" lon="2.458379100">
        <ele>262.60</ele>
        <time>2012-07-22T10:26:26Z</time>
      </trkpt>
      <trkpt lat="41.604610000" lon="2.458522100">
        <ele>264.00</ele>
        <time>2012-07-22T10:26:35Z</time>
      </trkpt>
      <trkpt lat="41.604538000" lon="2.458636100">
        <ele>264.50</ele>
        <time>2012-07-22T10:26:43Z</time>
      </trkpt>
      <trkpt lat="41.604477000" lon="2.458736100">
        <ele>265.90</ele>
        <time>2012-07-22T10:26:52Z</time>
      </trkpt>
      <trkpt lat="41.604465000" lon="2.458762100">
        <ele>265.90</ele>
        <time>2012-07-22T10:26:54Z</time>
      </trkpt>
      <trkpt lat="41.604435000" lon="2.458830100">
        <ele>266.40</ele>
        <time>2012-07-22T10:26:57Z</time>
      </trkpt>
      <trkpt lat="41.604424000" lon="2.458879100">
        <ele>266.90</ele>
        <time>2012-07-22T10:27:01Z</time>
      </trkpt>
      <trkpt lat="41.604488000" lon="2.459030100">
        <ele>268.80</ele>
        <time>2012-07-22T10:27:11Z</time>
      </trkpt>
      <trkpt lat="41.604561000" lon="2.459118100">
        <ele>270.30</ele>
        <time>2012-07-22T10:27:18Z</time>
      </trkpt>
      <trkpt lat="41.604637000" lon="2.459198100">
        <ele>271.70</ele>
        <time>2012-07-22T10:27:25Z</time>
      </trkpt>
      <trkpt lat="41.604752000" lon="2.459319100">
        <ele>273.60</ele>
        <time>2012-07-22T10:27:37Z</time>
      </trkpt>
      <trkpt lat="41.604809000" lon="2.459374100">
        <ele>274.10</ele>
        <time>2012-07-22T10:27:41Z</time>
      </trkpt>
      <trkpt lat="41.604832000" lon="2.459431100">
        <ele>275.10</ele>
        <time>2012-07-22T10:27:44Z</time>
      </trkpt>
      <trkpt lat="41.604820000" lon="2.459491100">
        <ele>275.60</ele>
        <time>2012-07-22T10:27:48Z</time>
      </trkpt>
      <trkpt lat="41.604744000" lon="2.459546100">
        <ele>277.00</ele>
        <time>2012-07-22T10:27:58Z</time>
      </trkpt>
      <trkpt lat="41.604641000" lon="2.459560100">
        <ele>278.00</ele>
        <time>2012-07-22T10:28:05Z</time>
      </trkpt>
      <trkpt lat="41.604515000" lon="2.459614100">
        <ele>279.40</ele>
        <time>2012-07-22T10:28:14Z</time>
      </trkpt>
      <trkpt lat="41.604393000" lon="2.459684100">
        <ele>280.40</ele>
        <time>2012-07-22T10:28:24Z</time>
      </trkpt>
      <trkpt lat="41.604313000" lon="2.459767100">
        <ele>282.30</ele>
        <time>2012-07-22T10:28:31Z</time>
      </trkpt>
      <trkpt lat="41.604244000" lon="2.459887100">
        <ele>283.20</ele>
        <time>2012-07-22T10:28:38Z</time>
      </trkpt>
      <trkpt lat="41.604218000" lon="2.459944100">
        <ele>283.70</ele>
        <time>2012-07-22T10:28:42Z</time>
      </trkpt>
      <trkpt lat="41.604202000" lon="2.460057100">
        <ele>284.70</ele>
        <time>2012-07-22T10:28:49Z</time>
      </trkpt>
      <trkpt lat="41.604198000" lon="2.460094100">
        <ele>285.60</ele>
        <time>2012-07-22T10:28:52Z</time>
      </trkpt>
      <trkpt lat="41.604198000" lon="2.460157100">
        <ele>286.10</ele>
        <time>2012-07-22T10:28:54Z</time>
      </trkpt>
      <trkpt lat="41.604271000" lon="2.460241100">
        <ele>287.10</ele>
        <time>2012-07-22T10:29:03Z</time>
      </trkpt>
      <trkpt lat="41.604359000" lon="2.460301100">
        <ele>289.00</ele>
        <time>2012-07-22T10:29:10Z</time>
      </trkpt>
      <trkpt lat="41.604420000" lon="2.460365100">
        <ele>290.00</ele>
        <time>2012-07-22T10:29:15Z</time>
      </trkpt>
      <trkpt lat="41.604496000" lon="2.460515100">
        <ele>291.40</ele>
        <time>2012-07-22T10:29:25Z</time>
      </trkpt>
      <trkpt lat="41.604588000" lon="2.460648100">
        <ele>292.40</ele>
        <time>2012-07-22T10:29:32Z</time>
      </trkpt>
      <trkpt lat="41.604652000" lon="2.460743100">
        <ele>293.30</ele>
        <time>2012-07-22T10:29:41Z</time>
      </trkpt>
      <trkpt lat="41.604733000" lon="2.460809100">
        <ele>294.30</ele>
        <time>2012-07-22T10:29:48Z</time>
      </trkpt>
      <trkpt lat="41.604855000" lon="2.460872100">
        <ele>295.30</ele>
        <time>2012-07-22T10:29:57Z</time>
      </trkpt>
      <trkpt lat="41.604977000" lon="2.460917100">
        <ele>296.20</ele>
        <time>2012-07-22T10:30:05Z</time>
      </trkpt>
      <trkpt lat="41.605049000" lon="2.460944100">
        <ele>297.70</ele>
        <time>2012-07-22T10:30:09Z</time>
      </trkpt>
      <trkpt lat="41.605129000" lon="2.461039100">
        <ele>298.60</ele>
        <time>2012-07-22T10:30:14Z</time>
      </trkpt>
      <trkpt lat="41.605160000" lon="2.461123100">
        <ele>300.10</ele>
        <time>2012-07-22T10:30:19Z</time>
      </trkpt>
      <trkpt lat="41.605133000" lon="2.461313100">
        <ele>302.00</ele>
        <time>2012-07-22T10:30:30Z</time>
      </trkpt>
      <trkpt lat="41.605110000" lon="2.461359100">
        <ele>303.00</ele>
        <time>2012-07-22T10:30:33Z</time>
      </trkpt>
      <trkpt lat="41.605064000" lon="2.461451100">
        <ele>303.90</ele>
        <time>2012-07-22T10:30:40Z</time>
      </trkpt>
      <trkpt lat="41.605015000" lon="2.461573100">
        <ele>307.30</ele>
        <time>2012-07-22T10:30:47Z</time>
      </trkpt>
      <trkpt lat="41.605003000" lon="2.461625100">
        <ele>309.20</ele>
        <time>2012-07-22T10:30:51Z</time>
      </trkpt>
      <trkpt lat="41.604992000" lon="2.461704100">
        <ele>310.20</ele>
        <time>2012-07-22T10:30:54Z</time>
      </trkpt>
      <trkpt lat="41.604977000" lon="2.461838100">
        <ele>310.60</ele>
        <time>2012-07-22T10:31:01Z</time>
      </trkpt>
      <trkpt lat="41.605015000" lon="2.461987100">
        <ele>310.60</ele>
        <time>2012-07-22T10:31:10Z</time>
      </trkpt>
      <trkpt lat="41.605045000" lon="2.462118100">
        <ele>311.60</ele>
        <time>2012-07-22T10:31:17Z</time>
      </trkpt>
      <trkpt lat="41.605091000" lon="2.462263100">
        <ele>313.50</ele>
        <time>2012-07-22T10:31:27Z</time>
      </trkpt>
      <trkpt lat="41.605141000" lon="2.462401100">
        <ele>315.00</ele>
        <time>2012-07-22T10:31:34Z</time>
      </trkpt>
      <trkpt lat="41.605171000" lon="2.462457100">
        <ele>315.90</ele>
        <time>2012-07-22T10:31:38Z</time>
      </trkpt>
      <trkpt lat="41.605259000" lon="2.462639100">
        <ele>317.90</ele>
        <time>2012-07-22T10:31:46Z</time>
      </trkpt>
      <trkpt lat="41.605301000" lon="2.462776100">
        <ele>321.20</ele>
        <time>2012-07-22T10:31:55Z</time>
      </trkpt>
      <trkpt lat="41.605324000" lon="2.462858100">
        <ele>324.60</ele>
        <time>2012-07-22T10:32:00Z</time>
      </trkpt>
      <trkpt lat="41.605324000" lon="2.462878100">
        <ele>325.10</ele>
        <time>2012-07-22T10:32:00Z</time>
      </trkpt>
      <trkpt lat="41.605370000" lon="2.462997100">
        <ele>324.60</ele>
        <time>2012-07-22T10:32:07Z</time>
      </trkpt>
      <trkpt lat="41.605358000" lon="2.463159100">
        <ele>324.60</ele>
        <time>2012-07-22T10:32:16Z</time>
      </trkpt>
      <trkpt lat="41.605270000" lon="2.463241100">
        <ele>324.60</ele>
        <time>2012-07-22T10:32:23Z</time>
      </trkpt>
      <trkpt lat="41.605179000" lon="2.463271100">
        <ele>324.60</ele>
        <time>2012-07-22T10:32:30Z</time>
      </trkpt>
      <trkpt lat="41.605072000" lon="2.463321100">
        <ele>325.10</ele>
        <time>2012-07-22T10:32:35Z</time>
      </trkpt>
      <trkpt lat="41.604939000" lon="2.463403100">
        <ele>325.10</ele>
        <time>2012-07-22T10:32:42Z</time>
      </trkpt>
      <trkpt lat="41.604809000" lon="2.463485100">
        <ele>325.50</ele>
        <time>2012-07-22T10:32:49Z</time>
      </trkpt>
      <trkpt lat="41.604691000" lon="2.463596100">
        <ele>326.00</ele>
        <time>2012-07-22T10:32:58Z</time>
      </trkpt>
      <trkpt lat="41.604588000" lon="2.463696100">
        <ele>327.00</ele>
        <time>2012-07-22T10:33:06Z</time>
      </trkpt>
      <trkpt lat="41.604481000" lon="2.463737100">
        <ele>328.40</ele>
        <time>2012-07-22T10:33:15Z</time>
      </trkpt>
      <trkpt lat="41.604412000" lon="2.463795100">
        <ele>329.40</ele>
        <time>2012-07-22T10:33:20Z</time>
      </trkpt>
      <trkpt lat="41.604385000" lon="2.463836100">
        <ele>329.40</ele>
        <time>2012-07-22T10:33:24Z</time>
      </trkpt>
      <trkpt lat="41.604408000" lon="2.463946100">
        <ele>330.40</ele>
        <time>2012-07-22T10:33:29Z</time>
      </trkpt>
      <trkpt lat="41.604401000" lon="2.464061100">
        <ele>330.40</ele>
        <time>2012-07-22T10:33:34Z</time>
      </trkpt>
      <trkpt lat="41.604404000" lon="2.464228100">
        <ele>330.80</ele>
        <time>2012-07-22T10:33:40Z</time>
      </trkpt>
      <trkpt lat="41.604443000" lon="2.464341100">
        <ele>330.80</ele>
        <time>2012-07-22T10:33:43Z</time>
      </trkpt>
      <trkpt lat="41.604588000" lon="2.464498100">
        <ele>331.30</ele>
        <time>2012-07-22T10:33:52Z</time>
      </trkpt>
      <trkpt lat="41.604694000" lon="2.464612100">
        <ele>331.30</ele>
        <time>2012-07-22T10:33:59Z</time>
      </trkpt>
      <trkpt lat="41.604824000" lon="2.464744100">
        <ele>331.80</ele>
        <time>2012-07-22T10:34:06Z</time>
      </trkpt>
      <trkpt lat="41.604958000" lon="2.464827100">
        <ele>331.80</ele>
        <time>2012-07-22T10:34:13Z</time>
      </trkpt>
      <trkpt lat="41.604992000" lon="2.464846100">
        <ele>331.80</ele>
        <time>2012-07-22T10:34:13Z</time>
      </trkpt>
      <trkpt lat="41.605156000" lon="2.465003100">
        <ele>331.80</ele>
        <time>2012-07-22T10:34:18Z</time>
      </trkpt>
      <trkpt lat="41.605415000" lon="2.465086100">
        <ele>331.30</ele>
        <time>2012-07-22T10:34:23Z</time>
      </trkpt>
      <trkpt lat="41.605663000" lon="2.465249100">
        <ele>330.40</ele>
        <time>2012-07-22T10:34:28Z</time>
      </trkpt>
      <trkpt lat="41.605843000" lon="2.465587100">
        <ele>329.40</ele>
        <time>2012-07-22T10:34:32Z</time>
      </trkpt>
      <trkpt lat="41.605877000" lon="2.465712100">
        <ele>328.90</ele>
        <time>2012-07-22T10:34:35Z</time>
      </trkpt>
      <trkpt lat="41.606022000" lon="2.465987100">
        <ele>328.00</ele>
        <time>2012-07-22T10:34:39Z</time>
      </trkpt>
      <trkpt lat="41.606110000" lon="2.466171100">
        <ele>328.00</ele>
        <time>2012-07-22T10:34:46Z</time>
      </trkpt>
      <trkpt lat="41.606129000" lon="2.466252100">
        <ele>328.00</ele>
        <time>2012-07-22T10:34:51Z</time>
      </trkpt>
      <trkpt lat="41.606155000" lon="2.466290100">
        <ele>328.00</ele>
        <time>2012-07-22T10:34:54Z</time>
      </trkpt>
      <trkpt lat="41.606174000" lon="2.466313100">
        <ele>328.00</ele>
        <time>2012-07-22T10:34:56Z</time>
      </trkpt>
      <trkpt lat="41.606197000" lon="2.466322100">
        <ele>329.40</ele>
        <time>2012-07-22T10:34:58Z</time>
      </trkpt>
      <trkpt lat="41.606304000" lon="2.466358100">
        <ele>330.80</ele>
        <time>2012-07-22T10:35:07Z</time>
      </trkpt>
      <trkpt lat="41.606411000" lon="2.466437100">
        <ele>332.30</ele>
        <time>2012-07-22T10:35:14Z</time>
      </trkpt>
      <trkpt lat="41.606419000" lon="2.466453100">
        <ele>332.30</ele>
        <time>2012-07-22T10:35:14Z</time>
      </trkpt>
      <trkpt lat="41.606411000" lon="2.466581100">
        <ele>333.20</ele>
        <time>2012-07-22T10:35:22Z</time>
      </trkpt>
      <trkpt lat="41.606327000" lon="2.466677100">
        <ele>335.20</ele>
        <time>2012-07-22T10:35:31Z</time>
      </trkpt>
      <trkpt lat="41.606216000" lon="2.466682100">
        <ele>335.60</ele>
        <time>2012-07-22T10:35:36Z</time>
      </trkpt>
      <trkpt lat="41.606163000" lon="2.466635100">
        <ele>335.60</ele>
        <time>2012-07-22T10:35:38Z</time>
      </trkpt>
      <trkpt lat="41.606003000" lon="2.466418100">
        <ele>335.60</ele>
        <time>2012-07-22T10:35:45Z</time>
      </trkpt>
      <trkpt lat="41.605984000" lon="2.466388100">
        <ele>335.60</ele>
        <time>2012-07-22T10:35:45Z</time>
      </trkpt>
      <trkpt lat="41.605854000" lon="2.466254100">
        <ele>335.60</ele>
        <time>2012-07-22T10:35:52Z</time>
      </trkpt>
      <trkpt lat="41.605682000" lon="2.466188100">
        <ele>335.60</ele>
        <time>2012-07-22T10:35:57Z</time>
      </trkpt>
      <trkpt lat="41.605572000" lon="2.466169100">
        <ele>336.10</ele>
        <time>2012-07-22T10:36:04Z</time>
      </trkpt>
      <trkpt lat="41.605507000" lon="2.466173100">
        <ele>336.60</ele>
        <time>2012-07-22T10:36:09Z</time>
      </trkpt>
      <trkpt lat="41.605408000" lon="2.466146100">
        <ele>337.60</ele>
        <time>2012-07-22T10:36:16Z</time>
      </trkpt>
      <trkpt lat="41.605377000" lon="2.466077100">
        <ele>338.50</ele>
        <time>2012-07-22T10:36:22Z</time>
      </trkpt>
      <trkpt lat="41.605377000" lon="2.466038100">
        <ele>339.00</ele>
        <time>2012-07-22T10:36:23Z</time>
      </trkpt>
      <trkpt lat="41.605469000" lon="2.465917100">
        <ele>340.00</ele>
        <time>2012-07-22T10:36:32Z</time>
      </trkpt>
      <trkpt lat="41.605480000" lon="2.465851100">
        <ele>340.00</ele>
        <time>2012-07-22T10:36:34Z</time>
      </trkpt>
      <trkpt lat="41.605450000" lon="2.465711100">
        <ele>341.40</ele>
        <time>2012-07-22T10:36:41Z</time>
      </trkpt>
      <trkpt lat="41.605316000" lon="2.465677100">
        <ele>342.90</ele>
        <time>2012-07-22T10:36:49Z</time>
      </trkpt>
      <trkpt lat="41.605202000" lon="2.465758100">
        <ele>344.80</ele>
        <time>2012-07-22T10:36:58Z</time>
      </trkpt>
      <trkpt lat="41.605110000" lon="2.465833100">
        <ele>345.70</ele>
        <time>2012-07-22T10:37:05Z</time>
      </trkpt>
      <trkpt lat="41.605072000" lon="2.465853100">
        <ele>346.20</ele>
        <time>2012-07-22T10:37:07Z</time>
      </trkpt>
      <trkpt lat="41.604958000" lon="2.465982100">
        <ele>348.10</ele>
        <time>2012-07-22T10:37:17Z</time>
      </trkpt>
      <trkpt lat="41.604881000" lon="2.466102100">
        <ele>349.10</ele>
        <time>2012-07-22T10:37:26Z</time>
      </trkpt>
      <trkpt lat="41.604797000" lon="2.466287100">
        <ele>351.00</ele>
        <time>2012-07-22T10:37:35Z</time>
      </trkpt>
      <trkpt lat="41.604771000" lon="2.466469100">
        <ele>352.00</ele>
        <time>2012-07-22T10:37:42Z</time>
      </trkpt>
      <trkpt lat="41.604736000" lon="2.466627100">
        <ele>353.40</ele>
        <time>2012-07-22T10:37:50Z</time>
      </trkpt>
      <trkpt lat="41.604748000" lon="2.466674100">
        <ele>354.40</ele>
        <time>2012-07-22T10:37:54Z</time>
      </trkpt>
      <trkpt lat="41.604794000" lon="2.466724100">
        <ele>355.30</ele>
        <time>2012-07-22T10:37:59Z</time>
      </trkpt>
      <trkpt lat="41.604855000" lon="2.466732100">
        <ele>356.80</ele>
        <time>2012-07-22T10:38:04Z</time>
      </trkpt>
      <trkpt lat="41.604927000" lon="2.466722100">
        <ele>357.80</ele>
        <time>2012-07-22T10:38:08Z</time>
      </trkpt>
      <trkpt lat="41.605068000" lon="2.466814100">
        <ele>359.70</ele>
        <time>2012-07-22T10:38:20Z</time>
      </trkpt>
      <trkpt lat="41.605164000" lon="2.466924100">
        <ele>361.10</ele>
        <time>2012-07-22T10:38:29Z</time>
      </trkpt>
      <trkpt lat="41.605263000" lon="2.467087100">
        <ele>363.00</ele>
        <time>2012-07-22T10:38:39Z</time>
      </trkpt>
      <trkpt lat="41.605293000" lon="2.467248100">
        <ele>364.00</ele>
        <time>2012-07-22T10:38:46Z</time>
      </trkpt>
      <trkpt lat="41.605289000" lon="2.467283100">
        <ele>364.00</ele>
        <time>2012-07-22T10:38:48Z</time>
      </trkpt>
      <trkpt lat="41.605240000" lon="2.467467100">
        <ele>365.00</ele>
        <time>2012-07-22T10:38:58Z</time>
      </trkpt>
      <trkpt lat="41.605171000" lon="2.467574100">
        <ele>365.90</ele>
        <time>2012-07-22T10:39:05Z</time>
      </trkpt>
      <trkpt lat="41.605061000" lon="2.467691100">
        <ele>366.40</ele>
        <time>2012-07-22T10:39:12Z</time>
      </trkpt>
      <trkpt lat="41.604923000" lon="2.467859100">
        <ele>366.90</ele>
        <time>2012-07-22T10:39:19Z</time>
      </trkpt>
      <trkpt lat="41.604839000" lon="2.468017100">
        <ele>366.90</ele>
        <time>2012-07-22T10:39:23Z</time>
      </trkpt>
      <trkpt lat="41.604649000" lon="2.468221100">
        <ele>366.90</ele>
        <time>2012-07-22T10:39:30Z</time>
      </trkpt>
      <trkpt lat="41.604511000" lon="2.468420100">
        <ele>366.90</ele>
        <time>2012-07-22T10:39:35Z</time>
      </trkpt>
      <trkpt lat="41.604404000" lon="2.468631100">
        <ele>366.90</ele>
        <time>2012-07-22T10:39:42Z</time>
      </trkpt>
      <trkpt lat="41.604401000" lon="2.468682100">
        <ele>366.90</ele>
        <time>2012-07-22T10:39:44Z</time>
      </trkpt>
      <trkpt lat="41.604462000" lon="2.468860100">
        <ele>366.90</ele>
        <time>2012-07-22T10:39:49Z</time>
      </trkpt>
      <trkpt lat="41.604584000" lon="2.469245100">
        <ele>366.90</ele>
        <time>2012-07-22T10:39:56Z</time>
      </trkpt>
      <trkpt lat="41.604649000" lon="2.469450100">
        <ele>366.40</ele>
        <time>2012-07-22T10:40:03Z</time>
      </trkpt>
      <trkpt lat="41.604660000" lon="2.469636100">
        <ele>366.40</ele>
        <time>2012-07-22T10:40:08Z</time>
      </trkpt>
      <trkpt lat="41.604626000" lon="2.469820100">
        <ele>367.40</ele>
        <time>2012-07-22T10:40:15Z</time>
      </trkpt>
      <trkpt lat="41.604649000" lon="2.470064100">
        <ele>368.30</ele>
        <time>2012-07-22T10:40:22Z</time>
      </trkpt>
      <trkpt lat="41.604717000" lon="2.470312100">
        <ele>369.80</ele>
        <time>2012-07-22T10:40:31Z</time>
      </trkpt>
      <trkpt lat="41.604759000" lon="2.470434100">
        <ele>370.70</ele>
        <time>2012-07-22T10:40:38Z</time>
      </trkpt>
      <trkpt lat="41.604816000" lon="2.470556100">
        <ele>375.00</ele>
        <time>2012-07-22T10:40:43Z</time>
      </trkpt>
      <trkpt lat="41.604839000" lon="2.470624100">
        <ele>377.00</ele>
        <time>2012-07-22T10:40:46Z</time>
      </trkpt>
      <trkpt lat="41.604908000" lon="2.470766100">
        <ele>377.00</ele>
        <time>2012-07-22T10:40:53Z</time>
      </trkpt>
      <trkpt lat="41.605026000" lon="2.470942100">
        <ele>377.50</ele>
        <time>2012-07-22T10:41:04Z</time>
      </trkpt>
      <trkpt lat="41.605106000" lon="2.471083100">
        <ele>378.90</ele>
        <time>2012-07-22T10:41:11Z</time>
      </trkpt>
      <trkpt lat="41.605232000" lon="2.471267100">
        <ele>380.30</ele>
        <time>2012-07-22T10:41:21Z</time>
      </trkpt>
      <trkpt lat="41.605339000" lon="2.471426100">
        <ele>381.80</ele>
        <time>2012-07-22T10:41:30Z</time>
      </trkpt>
      <trkpt lat="41.605408000" lon="2.471515100">
        <ele>382.70</ele>
        <time>2012-07-22T10:41:35Z</time>
      </trkpt>
      <trkpt lat="41.605553000" lon="2.471658100">
        <ele>384.20</ele>
        <time>2012-07-22T10:41:44Z</time>
      </trkpt>
      <trkpt lat="41.605728000" lon="2.471810100">
        <ele>384.70</ele>
        <time>2012-07-22T10:41:51Z</time>
      </trkpt>
      <trkpt lat="41.605801000" lon="2.471899100">
        <ele>384.70</ele>
        <time>2012-07-22T10:41:53Z</time>
      </trkpt>
      <trkpt lat="41.605968000" lon="2.472086100">
        <ele>384.70</ele>
        <time>2012-07-22T10:41:56Z</time>
      </trkpt>
      <trkpt lat="41.606079000" lon="2.472265100">
        <ele>384.70</ele>
        <time>2012-07-22T10:42:00Z</time>
      </trkpt>
      <trkpt lat="41.606155000" lon="2.472619100">
        <ele>384.70</ele>
        <time>2012-07-22T10:42:05Z</time>
      </trkpt>
      <trkpt lat="41.606121000" lon="2.472816100">
        <ele>384.70</ele>
        <time>2012-07-22T10:42:08Z</time>
      </trkpt>
      <trkpt lat="41.606041000" lon="2.473054100">
        <ele>383.70</ele>
        <time>2012-07-22T10:42:13Z</time>
      </trkpt>
      <trkpt lat="41.605946000" lon="2.473247100">
        <ele>383.70</ele>
        <time>2012-07-22T10:42:20Z</time>
      </trkpt>
      <trkpt lat="41.605869000" lon="2.473390100">
        <ele>383.70</ele>
        <time>2012-07-22T10:42:26Z</time>
      </trkpt>
      <trkpt lat="41.605812000" lon="2.473502100">
        <ele>385.10</ele>
        <time>2012-07-22T10:42:31Z</time>
      </trkpt>
      <trkpt lat="41.605690000" lon="2.473731100">
        <ele>386.60</ele>
        <time>2012-07-22T10:42:40Z</time>
      </trkpt>
      <trkpt lat="41.605587000" lon="2.473939100">
        <ele>387.50</ele>
        <time>2012-07-22T10:42:48Z</time>
      </trkpt>
      <trkpt lat="41.605518000" lon="2.474228100">
        <ele>388.50</ele>
        <time>2012-07-22T10:42:55Z</time>
      </trkpt>
      <trkpt lat="41.605541000" lon="2.474525100">
        <ele>388.50</ele>
        <time>2012-07-22T10:43:02Z</time>
      </trkpt>
      <trkpt lat="41.605621000" lon="2.474777100">
        <ele>388.50</ele>
        <time>2012-07-22T10:43:09Z</time>
      </trkpt>
      <trkpt lat="41.605759000" lon="2.475060100">
        <ele>389.50</ele>
        <time>2012-07-22T10:43:20Z</time>
      </trkpt>
      <trkpt lat="41.605850000" lon="2.475203100">
        <ele>390.00</ele>
        <time>2012-07-22T10:43:25Z</time>
      </trkpt>
      <trkpt lat="41.606010000" lon="2.475432100">
        <ele>390.90</ele>
        <time>2012-07-22T10:43:34Z</time>
      </trkpt>
      <trkpt lat="41.606113000" lon="2.475600100">
        <ele>391.90</ele>
        <time>2012-07-22T10:43:39Z</time>
      </trkpt>
      <trkpt lat="41.606186000" lon="2.475703100">
        <ele>392.80</ele>
        <time>2012-07-22T10:43:46Z</time>
      </trkpt>
      <trkpt lat="41.606262000" lon="2.475790100">
        <ele>393.30</ele>
        <time>2012-07-22T10:43:49Z</time>
      </trkpt>
      <trkpt lat="41.606365000" lon="2.475918100">
        <ele>394.80</ele>
        <time>2012-07-22T10:43:56Z</time>
      </trkpt>
      <trkpt lat="41.606438000" lon="2.476016100">
        <ele>396.20</ele>
        <time>2012-07-22T10:44:03Z</time>
      </trkpt>
      <trkpt lat="41.606583000" lon="2.476178100">
        <ele>398.10</ele>
        <time>2012-07-22T10:44:12Z</time>
      </trkpt>
      <trkpt lat="41.606647000" lon="2.476405100">
        <ele>399.60</ele>
        <time>2012-07-22T10:44:21Z</time>
      </trkpt>
      <trkpt lat="41.606705000" lon="2.476734100">
        <ele>399.60</ele>
        <time>2012-07-22T10:44:26Z</time>
      </trkpt>
      <trkpt lat="41.606857000" lon="2.477042100">
        <ele>399.60</ele>
        <time>2012-07-22T10:44:29Z</time>
      </trkpt>
      <trkpt lat="41.606968000" lon="2.477176100">
        <ele>399.60</ele>
        <time>2012-07-22T10:44:31Z</time>
      </trkpt>
      <trkpt lat="41.607204000" lon="2.477650100">
        <ele>397.60</ele>
        <time>2012-07-22T10:44:38Z</time>
      </trkpt>
      <trkpt lat="41.607368000" lon="2.478093100">
        <ele>397.20</ele>
        <time>2012-07-22T10:44:43Z</time>
      </trkpt>
      <trkpt lat="41.607445000" lon="2.478431100">
        <ele>396.70</ele>
        <time>2012-07-22T10:44:50Z</time>
      </trkpt>
      <trkpt lat="41.607479000" lon="2.478544100">
        <ele>396.70</ele>
        <time>2012-07-22T10:44:57Z</time>
      </trkpt>
      <trkpt lat="41.607479000" lon="2.478558100">
        <ele>396.70</ele>
        <time>2012-07-22T10:44:57Z</time>
      </trkpt>
      <trkpt lat="41.607315000" lon="2.478723100">
        <ele>396.70</ele>
        <time>2012-07-22T10:45:08Z</time>
      </trkpt>
      <trkpt lat="41.607075000" lon="2.478989100">
        <ele>395.70</ele>
        <time>2012-07-22T10:45:13Z</time>
      </trkpt>
      <trkpt lat="41.606953000" lon="2.479292100">
        <ele>394.30</ele>
        <time>2012-07-22T10:45:18Z</time>
      </trkpt>
      <trkpt lat="41.606922000" lon="2.479677100">
        <ele>390.40</ele>
        <time>2012-07-22T10:45:23Z</time>
      </trkpt>
      <trkpt lat="41.606907000" lon="2.479996100">
        <ele>386.60</ele>
        <time>2012-07-22T10:45:27Z</time>
      </trkpt>
      <trkpt lat="41.606895000" lon="2.480131100">
        <ele>384.20</ele>
        <time>2012-07-22T10:45:30Z</time>
      </trkpt>
      <trkpt lat="41.606773000" lon="2.480502100">
        <ele>380.30</ele>
        <time>2012-07-22T10:45:34Z</time>
      </trkpt>
      <trkpt lat="41.606789000" lon="2.480799100">
        <ele>378.90</ele>
        <time>2012-07-22T10:45:37Z</time>
      </trkpt>
      <trkpt lat="41.607044000" lon="2.481359100">
        <ele>378.40</ele>
        <time>2012-07-22T10:45:44Z</time>
      </trkpt>
      <trkpt lat="41.607166000" lon="2.481609100">
        <ele>378.40</ele>
        <time>2012-07-22T10:45:51Z</time>
      </trkpt>
      <trkpt lat="41.607327000" lon="2.481954100">
        <ele>379.40</ele>
        <time>2012-07-22T10:46:00Z</time>
      </trkpt>
      <trkpt lat="41.607380000" lon="2.482193100">
        <ele>380.30</ele>
        <time>2012-07-22T10:46:05Z</time>
      </trkpt>
      <trkpt lat="41.607426000" lon="2.482503100">
        <ele>380.30</ele>
        <time>2012-07-22T10:46:12Z</time>
      </trkpt>
      <trkpt lat="41.607456000" lon="2.482962100">
        <ele>380.30</ele>
        <time>2012-07-22T10:46:21Z</time>
      </trkpt>
      <trkpt lat="41.607513000" lon="2.483237100">
        <ele>380.30</ele>
        <time>2012-07-22T10:46:28Z</time>
      </trkpt>
      <trkpt lat="41.607605000" lon="2.483588100">
        <ele>380.80</ele>
        <time>2012-07-22T10:46:35Z</time>
      </trkpt>
      <trkpt lat="41.607674000" lon="2.483843100">
        <ele>381.30</ele>
        <time>2012-07-22T10:46:42Z</time>
      </trkpt>
      <trkpt lat="41.607712000" lon="2.484126100">
        <ele>382.70</ele>
        <time>2012-07-22T10:46:49Z</time>
      </trkpt>
      <trkpt lat="41.607769000" lon="2.484457100">
        <ele>383.70</ele>
        <time>2012-07-22T10:46:59Z</time>
      </trkpt>
      <trkpt lat="41.607796000" lon="2.484663100">
        <ele>384.70</ele>
        <time>2012-07-22T10:47:06Z</time>
      </trkpt>
      <trkpt lat="41.607838000" lon="2.484794100">
        <ele>386.10</ele>
        <time>2012-07-22T10:47:10Z</time>
      </trkpt>
      <trkpt lat="41.607891000" lon="2.485020100">
        <ele>387.10</ele>
        <time>2012-07-22T10:47:17Z</time>
      </trkpt>
      <trkpt lat="41.607986000" lon="2.485252100">
        <ele>388.50</ele>
        <time>2012-07-22T10:47:25Z</time>
      </trkpt>
      <trkpt lat="41.608070000" lon="2.485469100">
        <ele>389.50</ele>
        <time>2012-07-22T10:47:32Z</time>
      </trkpt>
      <trkpt lat="41.608109000" lon="2.485713100">
        <ele>390.90</ele>
        <time>2012-07-22T10:47:41Z</time>
      </trkpt>
      <trkpt lat="41.608135000" lon="2.485892100">
        <ele>392.80</ele>
        <time>2012-07-22T10:47:50Z</time>
      </trkpt>
      <trkpt lat="41.608150000" lon="2.485990100">
        <ele>396.20</ele>
        <time>2012-07-22T10:47:55Z</time>
      </trkpt>
      <trkpt lat="41.608150000" lon="2.486006100">
        <ele>397.20</ele>
        <time>2012-07-22T10:47:57Z</time>
      </trkpt>
      <trkpt lat="41.608173000" lon="2.486182100">
        <ele>398.60</ele>
        <time>2012-07-22T10:48:05Z</time>
      </trkpt>
      <trkpt lat="41.608189000" lon="2.486267100">
        <ele>398.60</ele>
        <time>2012-07-22T10:48:09Z</time>
      </trkpt>
      <trkpt lat="41.608219000" lon="2.486470100">
        <ele>400.00</ele>
        <time>2012-07-22T10:48:21Z</time>
      </trkpt>
      <trkpt lat="41.608265000" lon="2.486648100">
        <ele>401.50</ele>
        <time>2012-07-22T10:48:30Z</time>
      </trkpt>
      <trkpt lat="41.608280000" lon="2.486794100">
        <ele>403.40</ele>
        <time>2012-07-22T10:48:38Z</time>
      </trkpt>
      <trkpt lat="41.608288000" lon="2.486809100">
        <ele>403.40</ele>
        <time>2012-07-22T10:48:40Z</time>
      </trkpt>
      <trkpt lat="41.608288000" lon="2.486883100">
        <ele>404.40</ele>
        <time>2012-07-22T10:48:44Z</time>
      </trkpt>
      <trkpt lat="41.608303000" lon="2.486984100">
        <ele>405.30</ele>
        <time>2012-07-22T10:48:49Z</time>
      </trkpt>
      <trkpt lat="41.608315000" lon="2.487112100">
        <ele>405.30</ele>
        <time>2012-07-22T10:48:54Z</time>
      </trkpt>
      <trkpt lat="41.608299000" lon="2.487396100">
        <ele>406.30</ele>
        <time>2012-07-22T10:49:05Z</time>
      </trkpt>
      <trkpt lat="41.608261000" lon="2.487602100">
        <ele>407.30</ele>
        <time>2012-07-22T10:49:10Z</time>
      </trkpt>
      <trkpt lat="41.608257000" lon="2.487876100">
        <ele>406.80</ele>
        <time>2012-07-22T10:49:18Z</time>
      </trkpt>
      <trkpt lat="41.608299000" lon="2.488143100">
        <ele>407.30</ele>
        <time>2012-07-22T10:49:25Z</time>
      </trkpt>
      <trkpt lat="41.608326000" lon="2.488422100">
        <ele>407.30</ele>
        <time>2012-07-22T10:49:31Z</time>
      </trkpt>
      <trkpt lat="41.608337000" lon="2.488601100">
        <ele>407.30</ele>
        <time>2012-07-22T10:49:34Z</time>
      </trkpt>
      <trkpt lat="41.608238000" lon="2.488922100">
        <ele>407.30</ele>
        <time>2012-07-22T10:49:39Z</time>
      </trkpt>
      <trkpt lat="41.607975000" lon="2.489191100">
        <ele>405.80</ele>
        <time>2012-07-22T10:49:45Z</time>
      </trkpt>
      <trkpt lat="41.607914000" lon="2.489218100">
        <ele>405.80</ele>
        <time>2012-07-22T10:49:46Z</time>
      </trkpt>
      <trkpt lat="41.607395000" lon="2.489392100">
        <ele>404.90</ele>
        <time>2012-07-22T10:49:55Z</time>
      </trkpt>
      <trkpt lat="41.607212000" lon="2.489486100">
        <ele>404.40</ele>
        <time>2012-07-22T10:50:00Z</time>
      </trkpt>
      <trkpt lat="41.607056000" lon="2.489582100">
        <ele>404.40</ele>
        <time>2012-07-22T10:50:09Z</time>
      </trkpt>
      <trkpt lat="41.606995000" lon="2.489602100">
        <ele>405.80</ele>
        <time>2012-07-22T10:50:11Z</time>
      </trkpt>
      <trkpt lat="41.606869000" lon="2.489627100">
        <ele>409.70</ele>
        <time>2012-07-22T10:50:18Z</time>
      </trkpt>
      <trkpt lat="41.606800000" lon="2.489631100">
        <ele>412.50</ele>
        <time>2012-07-22T10:50:23Z</time>
      </trkpt>
      <trkpt lat="41.606686000" lon="2.489582100">
        <ele>413.00</ele>
        <time>2012-07-22T10:50:30Z</time>
      </trkpt>
      <trkpt lat="41.606636000" lon="2.489579100">
        <ele>413.00</ele>
        <time>2012-07-22T10:50:37Z</time>
      </trkpt>
      <trkpt lat="41.606625000" lon="2.489634100">
        <ele>413.00</ele>
        <time>2012-07-22T10:50:40Z</time>
      </trkpt>
      <trkpt lat="41.606628000" lon="2.489663100">
        <ele>413.00</ele>
        <time>2012-07-22T10:50:42Z</time>
      </trkpt>
      <trkpt lat="41.606598000" lon="2.489679100">
        <ele>413.00</ele>
        <time>2012-07-22T10:50:47Z</time>
      </trkpt>
      <trkpt lat="41.606571000" lon="2.489562100">
        <ele>413.00</ele>
        <time>2012-07-22T10:50:54Z</time>
      </trkpt>
      <trkpt lat="41.606518000" lon="2.489421100">
        <ele>413.00</ele>
        <time>2012-07-22T10:51:01Z</time>
      </trkpt>
      <trkpt lat="41.606506000" lon="2.489397100">
        <ele>413.00</ele>
        <time>2012-07-22T10:51:01Z</time>
      </trkpt>
      <trkpt lat="41.606445000" lon="2.489322100">
        <ele>414.50</ele>
        <time>2012-07-22T10:51:10Z</time>
      </trkpt>
      <trkpt lat="41.606388000" lon="2.489280100">
        <ele>415.90</ele>
        <time>2012-07-22T10:51:15Z</time>
      </trkpt>
      <trkpt lat="41.606266000" lon="2.489226100">
        <ele>417.40</ele>
        <time>2012-07-22T10:51:24Z</time>
      </trkpt>
      <trkpt lat="41.606220000" lon="2.489190100">
        <ele>417.80</ele>
        <time>2012-07-22T10:51:29Z</time>
      </trkpt>
      <trkpt lat="41.606167000" lon="2.489082100">
        <ele>419.80</ele>
        <time>2012-07-22T10:51:36Z</time>
      </trkpt>
      <trkpt lat="41.606144000" lon="2.489058100">
        <ele>419.80</ele>
        <time>2012-07-22T10:51:38Z</time>
      </trkpt>
      <trkpt lat="41.606052000" lon="2.488944100">
        <ele>421.70</ele>
        <time>2012-07-22T10:51:47Z</time>
      </trkpt>
      <trkpt lat="41.605972000" lon="2.488831100">
        <ele>423.10</ele>
        <time>2012-07-22T10:51:55Z</time>
      </trkpt>
      <trkpt lat="41.605961000" lon="2.488820100">
        <ele>423.10</ele>
        <time>2012-07-22T10:51:57Z</time>
      </trkpt>
      <trkpt lat="41.605873000" lon="2.488736100">
        <ele>425.00</ele>
        <time>2012-07-22T10:52:04Z</time>
      </trkpt>
      <trkpt lat="41.605778000" lon="2.488553100">
        <ele>427.00</ele>
        <time>2012-07-22T10:52:14Z</time>
      </trkpt>
      <trkpt lat="41.605732000" lon="2.488460100">
        <ele>427.90</ele>
        <time>2012-07-22T10:52:21Z</time>
      </trkpt>
      <trkpt lat="41.605698000" lon="2.488380100">
        <ele>428.90</ele>
        <time>2012-07-22T10:52:25Z</time>
      </trkpt>
      <trkpt lat="41.605633000" lon="2.488284100">
        <ele>429.90</ele>
        <time>2012-07-22T10:52:32Z</time>
      </trkpt>
      <trkpt lat="41.605625000" lon="2.488263100">
        <ele>430.30</ele>
        <time>2012-07-22T10:52:39Z</time>
      </trkpt>
      <trkpt lat="41.605591000" lon="2.488229100">
        <ele>430.80</ele>
        <time>2012-07-22T10:52:48Z</time>
      </trkpt>
      <trkpt lat="41.605579000" lon="2.488216100">
        <ele>431.30</ele>
        <time>2012-07-22T10:52:56Z</time>
      </trkpt>
      <trkpt lat="41.605568000" lon="2.488194100">
        <ele>431.30</ele>
        <time>2012-07-22T10:53:03Z</time>
      </trkpt>
      <trkpt lat="41.605560000" lon="2.488187100">
        <ele>431.80</ele>
        <time>2012-07-22T10:53:10Z</time>
      </trkpt>
      <trkpt lat="41.605560000" lon="2.488186100">
        <ele>431.80</ele>
        <time>2012-07-22T10:53:17Z</time>
      </trkpt>
      <trkpt lat="41.605473000" lon="2.488146100">
        <ele>432.20</ele>
        <time>2012-07-22T10:53:24Z</time>
      </trkpt>
      <trkpt lat="41.605438000" lon="2.488133100">
        <ele>433.20</ele>
        <time>2012-07-22T10:53:33Z</time>
      </trkpt>
      <trkpt lat="41.605438000" lon="2.488133100">
        <ele>433.20</ele>
        <time>2012-07-22T10:53:40Z</time>
      </trkpt>
      <trkpt lat="41.605354000" lon="2.488130100">
        <ele>434.20</ele>
        <time>2012-07-22T10:53:45Z</time>
      </trkpt>
      <trkpt lat="41.605293000" lon="2.488110100">
        <ele>435.10</ele>
        <time>2012-07-22T10:53:54Z</time>
      </trkpt>
      <trkpt lat="41.605247000" lon="2.488098100">
        <ele>435.60</ele>
        <time>2012-07-22T10:54:01Z</time>
      </trkpt>
      <trkpt lat="41.605232000" lon="2.488101100">
        <ele>436.10</ele>
        <time>2012-07-22T10:54:04Z</time>
      </trkpt>
      <trkpt lat="41.605099000" lon="2.488124100">
        <ele>437.50</ele>
        <time>2012-07-22T10:54:13Z</time>
      </trkpt>
      <trkpt lat="41.605019000" lon="2.488116100">
        <ele>439.00</ele>
        <time>2012-07-22T10:54:20Z</time>
      </trkpt>
      <trkpt lat="41.604908000" lon="2.488128100">
        <ele>440.40</ele>
        <time>2012-07-22T10:54:27Z</time>
      </trkpt>
      <trkpt lat="41.604881000" lon="2.488127100">
        <ele>440.40</ele>
        <time>2012-07-22T10:54:29Z</time>
      </trkpt>
      <trkpt lat="41.604794000" lon="2.488027100">
        <ele>442.30</ele>
        <time>2012-07-22T10:54:37Z</time>
      </trkpt>
      <trkpt lat="41.604767000" lon="2.488018100">
        <ele>442.80</ele>
        <time>2012-07-22T10:54:39Z</time>
      </trkpt>
      <trkpt lat="41.604733000" lon="2.487989100">
        <ele>443.80</ele>
        <time>2012-07-22T10:54:46Z</time>
      </trkpt>
      <trkpt lat="41.604733000" lon="2.487989100">
        <ele>443.80</ele>
        <time>2012-07-22T10:55:03Z</time>
      </trkpt>
      <trkpt lat="41.604721000" lon="2.487976100">
        <ele>446.20</ele>
        <time>2012-07-22T10:55:12Z</time>
      </trkpt>
      <trkpt lat="41.604660000" lon="2.487916100">
        <ele>447.60</ele>
        <time>2012-07-22T10:55:21Z</time>
      </trkpt>
      <trkpt lat="41.604610000" lon="2.487872100">
        <ele>448.10</ele>
        <time>2012-07-22T10:55:28Z</time>
      </trkpt>
      <trkpt lat="41.604580000" lon="2.487856100">
        <ele>449.10</ele>
        <time>2012-07-22T10:55:35Z</time>
      </trkpt>
      <trkpt lat="41.604568000" lon="2.487854100">
        <ele>449.50</ele>
        <time>2012-07-22T10:55:42Z</time>
      </trkpt>
      <trkpt lat="41.604519000" lon="2.487840100">
        <ele>451.00</ele>
        <time>2012-07-22T10:55:49Z</time>
      </trkpt>
      <trkpt lat="41.604439000" lon="2.487843100">
        <ele>451.50</ele>
        <time>2012-07-22T10:55:59Z</time>
      </trkpt>
      <trkpt lat="41.604393000" lon="2.487847100">
        <ele>452.90</ele>
        <time>2012-07-22T10:56:08Z</time>
      </trkpt>
      <trkpt lat="41.604382000" lon="2.487841100">
        <ele>452.90</ele>
        <time>2012-07-22T10:56:08Z</time>
      </trkpt>
      <trkpt lat="41.604313000" lon="2.487817100">
        <ele>454.40</ele>
        <time>2012-07-22T10:56:17Z</time>
      </trkpt>
      <trkpt lat="41.604233000" lon="2.487797100">
        <ele>455.30</ele>
        <time>2012-07-22T10:56:25Z</time>
      </trkpt>
      <trkpt lat="41.604187000" lon="2.487767100">
        <ele>455.80</ele>
        <time>2012-07-22T10:56:32Z</time>
      </trkpt>
      <trkpt lat="41.604176000" lon="2.487755100">
        <ele>455.80</ele>
        <time>2012-07-22T10:56:34Z</time>
      </trkpt>
      <trkpt lat="41.604111000" lon="2.487689100">
        <ele>456.80</ele>
        <time>2012-07-22T10:56:43Z</time>
      </trkpt>
      <trkpt lat="41.604069000" lon="2.487650100">
        <ele>458.20</ele>
        <time>2012-07-22T10:56:53Z</time>
      </trkpt>
      <trkpt lat="41.604050000" lon="2.487598100">
        <ele>459.20</ele>
        <time>2012-07-22T10:57:00Z</time>
      </trkpt>
      <trkpt lat="41.604015000" lon="2.487563100">
        <ele>460.10</ele>
        <time>2012-07-22T10:57:09Z</time>
      </trkpt>
      <trkpt lat="41.604015000" lon="2.487540100">
        <ele>460.60</ele>
        <time>2012-07-22T10:57:17Z</time>
      </trkpt>
      <trkpt lat="41.604015000" lon="2.487516100">
        <ele>461.60</ele>
        <time>2012-07-22T10:57:24Z</time>
      </trkpt>
      <trkpt lat="41.604015000" lon="2.487516100">
        <ele>461.60</ele>
        <time>2012-07-22T10:57:33Z</time>
      </trkpt>
      <trkpt lat="41.604008000" lon="2.487501100">
        <ele>463.50</ele>
        <time>2012-07-22T10:57:40Z</time>
      </trkpt>
      <trkpt lat="41.604008000" lon="2.487501100">
        <ele>463.50</ele>
        <time>2012-07-22T10:58:01Z</time>
      </trkpt>
      <trkpt lat="41.604031000" lon="2.487373100">
        <ele>464.50</ele>
        <time>2012-07-22T10:58:22Z</time>
      </trkpt>
      <trkpt lat="41.604000000" lon="2.487411100">
        <ele>464.50</ele>
        <time>2012-07-22T10:58:57Z</time>
      </trkpt>
      <trkpt lat="41.603916000" lon="2.487477100">
        <ele>464.50</ele>
        <time>2012-07-22T10:59:04Z</time>
      </trkpt>
      <trkpt lat="41.603897000" lon="2.487524100">
        <ele>464.90</ele>
        <time>2012-07-22T10:59:09Z</time>
      </trkpt>
      <trkpt lat="41.603909000" lon="2.487599100">
        <ele>466.40</ele>
        <time>2012-07-22T10:59:14Z</time>
      </trkpt>
      <trkpt lat="41.603943000" lon="2.487657100">
        <ele>466.90</ele>
        <time>2012-07-22T10:59:18Z</time>
      </trkpt>
      <trkpt lat="41.604004000" lon="2.487797100">
        <ele>468.80</ele>
        <time>2012-07-22T10:59:28Z</time>
      </trkpt>
      <trkpt lat="41.604019000" lon="2.487849100">
        <ele>469.30</ele>
        <time>2012-07-22T10:59:33Z</time>
      </trkpt>
      <trkpt lat="41.604061000" lon="2.487990100">
        <ele>471.70</ele>
        <time>2012-07-22T10:59:42Z</time>
      </trkpt>
      <trkpt lat="41.604080000" lon="2.488044100">
        <ele>472.60</ele>
        <time>2012-07-22T10:59:47Z</time>
      </trkpt>
      <trkpt lat="41.604145000" lon="2.488172100">
        <ele>474.50</ele>
        <time>2012-07-22T10:59:56Z</time>
      </trkpt>
      <trkpt lat="41.604179000" lon="2.488280100">
        <ele>476.50</ele>
        <time>2012-07-22T11:00:06Z</time>
      </trkpt>
      <trkpt lat="41.604183000" lon="2.488303100">
        <ele>476.50</ele>
        <time>2012-07-22T11:00:08Z</time>
      </trkpt>
      <trkpt lat="41.604187000" lon="2.488385100">
        <ele>477.40</ele>
        <time>2012-07-22T11:00:17Z</time>
      </trkpt>
      <trkpt lat="41.604214000" lon="2.488541100">
        <ele>479.40</ele>
        <time>2012-07-22T11:00:26Z</time>
      </trkpt>
      <trkpt lat="41.604221000" lon="2.488560100">
        <ele>479.40</ele>
        <time>2012-07-22T11:00:27Z</time>
      </trkpt>
      <trkpt lat="41.604294000" lon="2.488702100">
        <ele>480.80</ele>
        <time>2012-07-22T11:00:36Z</time>
      </trkpt>
      <trkpt lat="41.604298000" lon="2.488714100">
        <ele>480.80</ele>
        <time>2012-07-22T11:00:38Z</time>
      </trkpt>
      <trkpt lat="41.604321000" lon="2.488740100">
        <ele>480.80</ele>
        <time>2012-07-22T11:00:40Z</time>
      </trkpt>
      <trkpt lat="41.604359000" lon="2.488806100">
        <ele>481.80</ele>
        <time>2012-07-22T11:00:45Z</time>
      </trkpt>
      <trkpt lat="41.604454000" lon="2.488933100">
        <ele>483.20</ele>
        <time>2012-07-22T11:00:55Z</time>
      </trkpt>
      <trkpt lat="41.604538000" lon="2.489057100">
        <ele>484.60</ele>
        <time>2012-07-22T11:01:04Z</time>
      </trkpt>
      <trkpt lat="41.604576000" lon="2.489152100">
        <ele>486.60</ele>
        <time>2012-07-22T11:01:13Z</time>
      </trkpt>
      <trkpt lat="41.604584000" lon="2.489182100">
        <ele>487.00</ele>
        <time>2012-07-22T11:01:16Z</time>
      </trkpt>
      <trkpt lat="41.604637000" lon="2.489341100">
        <ele>488.50</ele>
        <time>2012-07-22T11:01:25Z</time>
      </trkpt>
      <trkpt lat="41.604649000" lon="2.489452100">
        <ele>489.90</ele>
        <time>2012-07-22T11:01:32Z</time>
      </trkpt>
      <trkpt lat="41.604652000" lon="2.489499100">
        <ele>490.40</ele>
        <time>2012-07-22T11:01:37Z</time>
      </trkpt>
      <trkpt lat="41.604649000" lon="2.489526100">
        <ele>491.40</ele>
        <time>2012-07-22T11:01:44Z</time>
      </trkpt>
      <trkpt lat="41.604645000" lon="2.489539100">
        <ele>491.90</ele>
        <time>2012-07-22T11:01:53Z</time>
      </trkpt>
      <trkpt lat="41.604637000" lon="2.489598100">
        <ele>492.30</ele>
        <time>2012-07-22T11:02:00Z</time>
      </trkpt>
      <trkpt lat="41.604630000" lon="2.489642100">
        <ele>492.80</ele>
        <time>2012-07-22T11:02:07Z</time>
      </trkpt>
      <trkpt lat="41.604641000" lon="2.489672100">
        <ele>493.80</ele>
        <time>2012-07-22T11:02:14Z</time>
      </trkpt>
      <trkpt lat="41.604637000" lon="2.489759100">
        <ele>494.70</ele>
        <time>2012-07-22T11:02:22Z</time>
      </trkpt>
      <trkpt lat="41.604637000" lon="2.489801100">
        <ele>495.20</ele>
        <time>2012-07-22T11:02:28Z</time>
      </trkpt>
      <trkpt lat="41.604637000" lon="2.489801100">
        <ele>495.20</ele>
        <time>2012-07-22T11:02:36Z</time>
      </trkpt>
      <trkpt lat="41.604622000" lon="2.489919100">
        <ele>496.70</ele>
        <time>2012-07-22T11:02:43Z</time>
      </trkpt>
      <trkpt lat="41.604614000" lon="2.490111100">
        <ele>498.60</ele>
        <time>2012-07-22T11:02:54Z</time>
      </trkpt>
      <trkpt lat="41.604614000" lon="2.490128100">
        <ele>499.10</ele>
        <time>2012-07-22T11:02:54Z</time>
      </trkpt>
      <trkpt lat="41.604637000" lon="2.490220100">
        <ele>500.00</ele>
        <time>2012-07-22T11:03:01Z</time>
      </trkpt>
      <trkpt lat="41.604652000" lon="2.490386100">
        <ele>501.50</ele>
        <time>2012-07-22T11:03:09Z</time>
      </trkpt>
      <trkpt lat="41.604656000" lon="2.490465100">
        <ele>502.00</ele>
        <time>2012-07-22T11:03:13Z</time>
      </trkpt>
      <trkpt lat="41.604668000" lon="2.490629100">
        <ele>503.40</ele>
        <time>2012-07-22T11:03:20Z</time>
      </trkpt>
      <trkpt lat="41.604668000" lon="2.490732100">
        <ele>504.40</ele>
        <time>2012-07-22T11:03:27Z</time>
      </trkpt>
      <trkpt lat="41.604664000" lon="2.490780100">
        <ele>504.80</ele>
        <time>2012-07-22T11:03:30Z</time>
      </trkpt>
      <trkpt lat="41.604652000" lon="2.490919100">
        <ele>505.80</ele>
        <time>2012-07-22T11:03:37Z</time>
      </trkpt>
      <trkpt lat="41.604656000" lon="2.490994100">
        <ele>506.30</ele>
        <time>2012-07-22T11:03:41Z</time>
      </trkpt>
      <trkpt lat="41.604652000" lon="2.491063100">
        <ele>506.80</ele>
        <time>2012-07-22T11:03:46Z</time>
      </trkpt>
      <trkpt lat="41.604671000" lon="2.491231100">
        <ele>508.70</ele>
        <time>2012-07-22T11:03:55Z</time>
      </trkpt>
      <trkpt lat="41.604668000" lon="2.491363100">
        <ele>510.10</ele>
        <time>2012-07-22T11:04:02Z</time>
      </trkpt>
      <trkpt lat="41.604675000" lon="2.491522100">
        <ele>511.60</ele>
        <time>2012-07-22T11:04:12Z</time>
      </trkpt>
      <trkpt lat="41.604683000" lon="2.491538100">
        <ele>511.60</ele>
        <time>2012-07-22T11:04:17Z</time>
      </trkpt>
      <trkpt lat="41.604683000" lon="2.491642100">
        <ele>513.00</ele>
        <time>2012-07-22T11:04:26Z</time>
      </trkpt>
      <trkpt lat="41.604679000" lon="2.491718100">
        <ele>514.00</ele>
        <time>2012-07-22T11:04:33Z</time>
      </trkpt>
      <trkpt lat="41.604694000" lon="2.491811100">
        <ele>514.90</ele>
        <time>2012-07-22T11:04:40Z</time>
      </trkpt>
      <trkpt lat="41.604702000" lon="2.491892100">
        <ele>516.40</ele>
        <time>2012-07-22T11:04:49Z</time>
      </trkpt>
      <trkpt lat="41.604702000" lon="2.491892100">
        <ele>516.40</ele>
        <time>2012-07-22T11:04:56Z</time>
      </trkpt>
      <trkpt lat="41.604763000" lon="2.492073100">
        <ele>517.80</ele>
        <time>2012-07-22T11:05:04Z</time>
      </trkpt>
      <trkpt lat="41.604805000" lon="2.492191100">
        <ele>518.30</ele>
        <time>2012-07-22T11:05:11Z</time>
      </trkpt>
      <trkpt lat="41.604900000" lon="2.492337100">
        <ele>518.80</ele>
        <time>2012-07-22T11:05:17Z</time>
      </trkpt>
      <trkpt lat="41.605042000" lon="2.492423100">
        <ele>518.80</ele>
        <time>2012-07-22T11:05:22Z</time>
      </trkpt>
      <trkpt lat="41.605156000" lon="2.492332100">
        <ele>518.80</ele>
        <time>2012-07-22T11:05:29Z</time>
      </trkpt>
      <trkpt lat="41.605236000" lon="2.492338100">
        <ele>517.80</ele>
        <time>2012-07-22T11:05:32Z</time>
      </trkpt>
      <trkpt lat="41.605370000" lon="2.492443100">
        <ele>516.80</ele>
        <time>2012-07-22T11:05:36Z</time>
      </trkpt>
      <trkpt lat="41.605473000" lon="2.492531100">
        <ele>514.00</ele>
        <time>2012-07-22T11:05:39Z</time>
      </trkpt>
      <trkpt lat="41.605480000" lon="2.492611100">
        <ele>511.60</ele>
        <time>2012-07-22T11:05:43Z</time>
      </trkpt>
      <trkpt lat="41.605518000" lon="2.492725100">
        <ele>515.40</ele>
        <time>2012-07-22T11:05:50Z</time>
      </trkpt>
      <trkpt lat="41.605583000" lon="2.492850100">
        <ele>517.80</ele>
        <time>2012-07-22T11:05:57Z</time>
      </trkpt>
      <trkpt lat="41.605610000" lon="2.492934100">
        <ele>517.80</ele>
        <time>2012-07-22T11:06:00Z</time>
      </trkpt>
      <trkpt lat="41.605621000" lon="2.492986100">
        <ele>517.80</ele>
        <time>2012-07-22T11:06:02Z</time>
      </trkpt>
      <trkpt lat="41.605690000" lon="2.493107100">
        <ele>516.80</ele>
        <time>2012-07-22T11:06:09Z</time>
      </trkpt>
      <trkpt lat="41.605743000" lon="2.493293100">
        <ele>516.80</ele>
        <time>2012-07-22T11:06:17Z</time>
      </trkpt>
      <trkpt lat="41.605736000" lon="2.493460100">
        <ele>516.80</ele>
        <time>2012-07-22T11:06:24Z</time>
      </trkpt>
      <trkpt lat="41.605698000" lon="2.493597100">
        <ele>518.30</ele>
        <time>2012-07-22T11:06:30Z</time>
      </trkpt>
      <trkpt lat="41.605694000" lon="2.493621100">
        <ele>518.30</ele>
        <time>2012-07-22T11:06:31Z</time>
      </trkpt>
      <trkpt lat="41.605637000" lon="2.493803100">
        <ele>518.30</ele>
        <time>2012-07-22T11:06:38Z</time>
      </trkpt>
      <trkpt lat="41.605579000" lon="2.493979100">
        <ele>519.70</ele>
        <time>2012-07-22T11:06:45Z</time>
      </trkpt>
      <trkpt lat="41.605530000" lon="2.494103100">
        <ele>520.70</ele>
        <time>2012-07-22T11:06:52Z</time>
      </trkpt>
      <trkpt lat="41.605453000" lon="2.494194100">
        <ele>521.20</ele>
        <time>2012-07-22T11:06:59Z</time>
      </trkpt>
      <trkpt lat="41.605423000" lon="2.494221100">
        <ele>521.20</ele>
        <time>2012-07-22T11:07:01Z</time>
      </trkpt>
      <trkpt lat="41.605408000" lon="2.494355100">
        <ele>521.70</ele>
        <time>2012-07-22T11:07:06Z</time>
      </trkpt>
      <trkpt lat="41.605419000" lon="2.494446100">
        <ele>521.70</ele>
        <time>2012-07-22T11:07:08Z</time>
      </trkpt>
      <trkpt lat="41.605507000" lon="2.494632100">
        <ele>521.70</ele>
        <time>2012-07-22T11:07:13Z</time>
      </trkpt>
      <trkpt lat="41.605598000" lon="2.494783100">
        <ele>521.70</ele>
        <time>2012-07-22T11:07:20Z</time>
      </trkpt>
      <trkpt lat="41.605679000" lon="2.494893100">
        <ele>521.70</ele>
        <time>2012-07-22T11:07:22Z</time>
      </trkpt>
      <trkpt lat="41.605743000" lon="2.495084100">
        <ele>521.70</ele>
        <time>2012-07-22T11:07:25Z</time>
      </trkpt>
      <trkpt lat="41.605705000" lon="2.495378100">
        <ele>520.20</ele>
        <time>2012-07-22T11:07:31Z</time>
      </trkpt>
      <trkpt lat="41.605618000" lon="2.495460100">
        <ele>520.20</ele>
        <time>2012-07-22T11:07:36Z</time>
      </trkpt>
      <trkpt lat="41.605568000" lon="2.495607100">
        <ele>520.20</ele>
        <time>2012-07-22T11:07:41Z</time>
      </trkpt>
      <trkpt lat="41.605534000" lon="2.495661100">
        <ele>519.70</ele>
        <time>2012-07-22T11:07:43Z</time>
      </trkpt>
      <trkpt lat="41.605461000" lon="2.495731100">
        <ele>519.70</ele>
        <time>2012-07-22T11:07:46Z</time>
      </trkpt>
      <trkpt lat="41.605408000" lon="2.495837100">
        <ele>519.70</ele>
        <time>2012-07-22T11:07:48Z</time>
      </trkpt>
      <trkpt lat="41.605434000" lon="2.496107100">
        <ele>519.20</ele>
        <time>2012-07-22T11:07:53Z</time>
      </trkpt>
      <trkpt lat="41.605438000" lon="2.496200100">
        <ele>519.20</ele>
        <time>2012-07-22T11:07:55Z</time>
      </trkpt>
      <trkpt lat="41.605465000" lon="2.496294100">
        <ele>517.80</ele>
        <time>2012-07-22T11:08:00Z</time>
      </trkpt>
      <trkpt lat="41.605560000" lon="2.496415100">
        <ele>515.90</ele>
        <time>2012-07-22T11:08:04Z</time>
      </trkpt>
      <trkpt lat="41.605713000" lon="2.496720100">
        <ele>510.10</ele>
        <time>2012-07-22T11:08:09Z</time>
      </trkpt>
      <trkpt lat="41.605755000" lon="2.496986100">
        <ele>508.20</ele>
        <time>2012-07-22T11:08:11Z</time>
      </trkpt>
      <trkpt lat="41.605812000" lon="2.497354100">
        <ele>507.70</ele>
        <time>2012-07-22T11:08:18Z</time>
      </trkpt>
      <trkpt lat="41.605862000" lon="2.497528100">
        <ele>507.70</ele>
        <time>2012-07-22T11:08:23Z</time>
      </trkpt>
      <trkpt lat="41.605896000" lon="2.497622100">
        <ele>509.20</ele>
        <time>2012-07-22T11:08:30Z</time>
      </trkpt>
      <trkpt lat="41.605900000" lon="2.497640100">
        <ele>509.20</ele>
        <time>2012-07-22T11:08:37Z</time>
      </trkpt>
      <trkpt lat="41.605900000" lon="2.497643100">
        <ele>509.20</ele>
        <time>2012-07-22T11:08:46Z</time>
      </trkpt>
      <trkpt lat="41.605900000" lon="2.497643100">
        <ele>509.20</ele>
        <time>2012-07-22T11:08:54Z</time>
      </trkpt>
      <trkpt lat="41.605896000" lon="2.497641100">
        <ele>509.60</ele>
        <time>2012-07-22T11:09:05Z</time>
      </trkpt>
      <trkpt lat="41.605896000" lon="2.497664100">
        <ele>509.60</ele>
        <time>2012-07-22T11:09:12Z</time>
      </trkpt>
      <trkpt lat="41.605820000" lon="2.497845100">
        <ele>509.60</ele>
        <time>2012-07-22T11:09:19Z</time>
      </trkpt>
      <trkpt lat="41.605797000" lon="2.498116100">
        <ele>508.70</ele>
        <time>2012-07-22T11:09:26Z</time>
      </trkpt>
      <trkpt lat="41.605762000" lon="2.498347100">
        <ele>508.70</ele>
        <time>2012-07-22T11:09:33Z</time>
      </trkpt>
      <trkpt lat="41.605747000" lon="2.498477100">
        <ele>508.70</ele>
        <time>2012-07-22T11:09:36Z</time>
      </trkpt>
      <trkpt lat="41.605743000" lon="2.498702100">
        <ele>509.20</ele>
        <time>2012-07-22T11:09:41Z</time>
      </trkpt>
      <trkpt lat="41.605721000" lon="2.499099100">
        <ele>509.20</ele>
        <time>2012-07-22T11:09:48Z</time>
      </trkpt>
      <trkpt lat="41.605717000" lon="2.499335100">
        <ele>509.60</ele>
        <time>2012-07-22T11:09:55Z</time>
      </trkpt>
      <trkpt lat="41.605721000" lon="2.499570100">
        <ele>510.10</ele>
        <time>2012-07-22T11:09:59Z</time>
      </trkpt>
      <trkpt lat="41.605671000" lon="2.499791100">
        <ele>510.10</ele>
        <time>2012-07-22T11:10:04Z</time>
      </trkpt>
      <trkpt lat="41.605659000" lon="2.499851100">
        <ele>510.10</ele>
        <time>2012-07-22T11:10:06Z</time>
      </trkpt>
      <trkpt lat="41.605640000" lon="2.500078100">
        <ele>511.60</ele>
        <time>2012-07-22T11:10:13Z</time>
      </trkpt>
      <trkpt lat="41.605694000" lon="2.500352100">
        <ele>512.50</ele>
        <time>2012-07-22T11:10:21Z</time>
      </trkpt>
      <trkpt lat="41.605896000" lon="2.500541100">
        <ele>512.50</ele>
        <time>2012-07-22T11:10:27Z</time>
      </trkpt>
      <trkpt lat="41.606125000" lon="2.500782100">
        <ele>512.50</ele>
        <time>2012-07-22T11:10:32Z</time>
      </trkpt>
      <trkpt lat="41.606213000" lon="2.500915100">
        <ele>511.10</ele>
        <time>2012-07-22T11:10:34Z</time>
      </trkpt>
      <trkpt lat="41.606503000" lon="2.501133100">
        <ele>505.80</ele>
        <time>2012-07-22T11:10:39Z</time>
      </trkpt>
      <trkpt lat="41.606571000" lon="2.501188100">
        <ele>501.50</ele>
        <time>2012-07-22T11:10:42Z</time>
      </trkpt>
      <trkpt lat="41.606575000" lon="2.501218100">
        <ele>500.00</ele>
        <time>2012-07-22T11:10:44Z</time>
      </trkpt>
      <trkpt lat="41.606438000" lon="2.501215100">
        <ele>500.00</ele>
        <time>2012-07-22T11:10:49Z</time>
      </trkpt>
      <trkpt lat="41.606201000" lon="2.501246100">
        <ele>500.00</ele>
        <time>2012-07-22T11:10:53Z</time>
      </trkpt>
      <trkpt lat="41.606068000" lon="2.501165100">
        <ele>499.10</ele>
        <time>2012-07-22T11:10:58Z</time>
      </trkpt>
      <trkpt lat="41.605900000" lon="2.500968100">
        <ele>497.60</ele>
        <time>2012-07-22T11:11:03Z</time>
      </trkpt>
      <trkpt lat="41.605881000" lon="2.500956100">
        <ele>497.60</ele>
        <time>2012-07-22T11:11:05Z</time>
      </trkpt>
      <trkpt lat="41.605701000" lon="2.500871100">
        <ele>496.70</ele>
        <time>2012-07-22T11:11:10Z</time>
      </trkpt>
      <trkpt lat="41.605518000" lon="2.500833100">
        <ele>495.70</ele>
        <time>2012-07-22T11:11:15Z</time>
      </trkpt>
      <trkpt lat="41.605396000" lon="2.500792100">
        <ele>491.90</ele>
        <time>2012-07-22T11:11:22Z</time>
      </trkpt>
      <trkpt lat="41.605343000" lon="2.500839100">
        <ele>487.00</ele>
        <time>2012-07-22T11:11:26Z</time>
      </trkpt>
      <trkpt lat="41.605289000" lon="2.500909100">
        <ele>484.20</ele>
        <time>2012-07-22T11:11:29Z</time>
      </trkpt>
      <trkpt lat="41.605206000" lon="2.500979100">
        <ele>483.20</ele>
        <time>2012-07-22T11:11:35Z</time>
      </trkpt>
      <trkpt lat="41.605183000" lon="2.500982100">
        <ele>482.20</ele>
        <time>2012-07-22T11:11:36Z</time>
      </trkpt>
      <trkpt lat="41.605141000" lon="2.501106100">
        <ele>479.80</ele>
        <time>2012-07-22T11:11:42Z</time>
      </trkpt>
      <trkpt lat="41.605221000" lon="2.501174100">
        <ele>478.90</ele>
        <time>2012-07-22T11:11:45Z</time>
      </trkpt>
      <trkpt lat="41.605225000" lon="2.501226100">
        <ele>478.90</ele>
        <time>2012-07-22T11:11:48Z</time>
      </trkpt>
      <trkpt lat="41.605286000" lon="2.501305100">
        <ele>477.90</ele>
        <time>2012-07-22T11:11:54Z</time>
      </trkpt>
      <trkpt lat="41.605373000" lon="2.501368100">
        <ele>477.00</ele>
        <time>2012-07-22T11:11:57Z</time>
      </trkpt>
      <trkpt lat="41.605465000" lon="2.501433100">
        <ele>477.40</ele>
        <time>2012-07-22T11:11:59Z</time>
      </trkpt>
      <trkpt lat="41.605633000" lon="2.501741100">
        <ele>472.10</ele>
        <time>2012-07-22T11:12:04Z</time>
      </trkpt>
      <trkpt lat="41.605774000" lon="2.501914100">
        <ele>466.90</ele>
        <time>2012-07-22T11:12:08Z</time>
      </trkpt>
      <trkpt lat="41.605793000" lon="2.502027100">
        <ele>467.30</ele>
        <time>2012-07-22T11:12:11Z</time>
      </trkpt>
      <trkpt lat="41.605801000" lon="2.502158100">
        <ele>469.70</ele>
        <time>2012-07-22T11:12:15Z</time>
      </trkpt>
      <trkpt lat="41.605797000" lon="2.502191100">
        <ele>471.20</ele>
        <time>2012-07-22T11:12:16Z</time>
      </trkpt>
      <trkpt lat="41.605778000" lon="2.502364100">
        <ele>476.00</ele>
        <time>2012-07-22T11:12:20Z</time>
      </trkpt>
      <trkpt lat="41.605782000" lon="2.502617100">
        <ele>477.00</ele>
        <time>2012-07-22T11:12:27Z</time>
      </trkpt>
      <trkpt lat="41.605843000" lon="2.502841100">
        <ele>475.50</ele>
        <time>2012-07-22T11:12:32Z</time>
      </trkpt>
      <trkpt lat="41.605915000" lon="2.503093100">
        <ele>475.50</ele>
        <time>2012-07-22T11:12:39Z</time>
      </trkpt>
      <trkpt lat="41.605907000" lon="2.503157100">
        <ele>475.50</ele>
        <time>2012-07-22T11:12:41Z</time>
      </trkpt>
      <trkpt lat="41.605938000" lon="2.503324100">
        <ele>475.50</ele>
        <time>2012-07-22T11:12:46Z</time>
      </trkpt>
      <trkpt lat="41.605961000" lon="2.503479100">
        <ele>477.00</ele>
        <time>2012-07-22T11:12:51Z</time>
      </trkpt>
      <trkpt lat="41.605934000" lon="2.503845100">
        <ele>477.00</ele>
        <time>2012-07-22T11:12:58Z</time>
      </trkpt>
      <trkpt lat="41.605816000" lon="2.504183100">
        <ele>477.00</ele>
        <time>2012-07-22T11:13:05Z</time>
      </trkpt>
      <trkpt lat="41.605743000" lon="2.504553100">
        <ele>473.10</ele>
        <time>2012-07-22T11:13:10Z</time>
      </trkpt>
      <trkpt lat="41.605736000" lon="2.504689100">
        <ele>470.70</ele>
        <time>2012-07-22T11:13:12Z</time>
      </trkpt>
      <trkpt lat="41.605751000" lon="2.504985100">
        <ele>467.30</ele>
        <time>2012-07-22T11:13:16Z</time>
      </trkpt>
      <trkpt lat="41.605713000" lon="2.505416100">
        <ele>467.30</ele>
        <time>2012-07-22T11:13:24Z</time>
      </trkpt>
      <trkpt lat="41.605701000" lon="2.505440100">
        <ele>466.90</ele>
        <time>2012-07-22T11:13:24Z</time>
      </trkpt>
      <trkpt lat="41.605644000" lon="2.505666100">
        <ele>464.50</ele>
        <time>2012-07-22T11:13:31Z</time>
      </trkpt>
      <trkpt lat="41.605625000" lon="2.505773100">
        <ele>462.00</ele>
        <time>2012-07-22T11:13:33Z</time>
      </trkpt>
      <trkpt lat="41.605576000" lon="2.505929100">
        <ele>457.20</ele>
        <time>2012-07-22T11:13:35Z</time>
      </trkpt>
      <trkpt lat="41.605553000" lon="2.506042100">
        <ele>452.90</ele>
        <time>2012-07-22T11:13:38Z</time>
      </trkpt>
      <trkpt lat="41.605499000" lon="2.506158100">
        <ele>451.00</ele>
        <time>2012-07-22T11:13:42Z</time>
      </trkpt>
      <trkpt lat="41.605404000" lon="2.506465100">
        <ele>451.50</ele>
        <time>2012-07-22T11:13:47Z</time>
      </trkpt>
      <trkpt lat="41.605434000" lon="2.506695100">
        <ele>452.40</ele>
        <time>2012-07-22T11:13:52Z</time>
      </trkpt>
      <trkpt lat="41.605450000" lon="2.506748100">
        <ele>452.40</ele>
        <time>2012-07-22T11:13:57Z</time>
      </trkpt>
      <trkpt lat="41.605488000" lon="2.506799100">
        <ele>453.40</ele>
        <time>2012-07-22T11:14:10Z</time>
      </trkpt>
      <trkpt lat="41.605568000" lon="2.506865100">
        <ele>453.40</ele>
        <time>2012-07-22T11:14:13Z</time>
      </trkpt>
      <trkpt lat="41.605705000" lon="2.507135100">
        <ele>452.90</ele>
        <time>2012-07-22T11:14:18Z</time>
      </trkpt>
      <trkpt lat="41.605740000" lon="2.507190100">
        <ele>452.90</ele>
        <time>2012-07-22T11:14:18Z</time>
      </trkpt>
      <trkpt lat="41.605839000" lon="2.507367100">
        <ele>451.50</ele>
        <time>2012-07-22T11:14:22Z</time>
      </trkpt>
      <trkpt lat="41.605877000" lon="2.507438100">
        <ele>452.00</ele>
        <time>2012-07-22T11:14:22Z</time>
      </trkpt>
      <trkpt lat="41.605968000" lon="2.507782100">
        <ele>448.10</ele>
        <time>2012-07-22T11:14:27Z</time>
      </trkpt>
      <trkpt lat="41.606018000" lon="2.507993100">
        <ele>443.30</ele>
        <time>2012-07-22T11:14:29Z</time>
      </trkpt>
      <trkpt lat="41.606091000" lon="2.508085100">
        <ele>440.40</ele>
        <time>2012-07-22T11:14:32Z</time>
      </trkpt>
      <trkpt lat="41.606213000" lon="2.508158100">
        <ele>441.90</ele>
        <time>2012-07-22T11:14:37Z</time>
      </trkpt>
      <trkpt lat="41.606258000" lon="2.508192100">
        <ele>444.80</ele>
        <time>2012-07-22T11:14:39Z</time>
      </trkpt>
      <trkpt lat="41.606411000" lon="2.508366100">
        <ele>446.20</ele>
        <time>2012-07-22T11:14:46Z</time>
      </trkpt>
      <trkpt lat="41.606571000" lon="2.508394100">
        <ele>442.30</ele>
        <time>2012-07-22T11:14:50Z</time>
      </trkpt>
      <trkpt lat="41.606693000" lon="2.508347100">
        <ele>438.50</ele>
        <time>2012-07-22T11:14:53Z</time>
      </trkpt>
      <trkpt lat="41.606895000" lon="2.508273100">
        <ele>438.50</ele>
        <time>2012-07-22T11:14:58Z</time>
      </trkpt>
      <trkpt lat="41.606979000" lon="2.508249100">
        <ele>440.40</ele>
        <time>2012-07-22T11:15:00Z</time>
      </trkpt>
      <trkpt lat="41.607071000" lon="2.508216100">
        <ele>441.40</ele>
        <time>2012-07-22T11:15:02Z</time>
      </trkpt>
      <trkpt lat="41.607166000" lon="2.508188100">
        <ele>441.90</ele>
        <time>2012-07-22T11:15:05Z</time>
      </trkpt>
      <trkpt lat="41.607361000" lon="2.508150100">
        <ele>439.00</ele>
        <time>2012-07-22T11:15:09Z</time>
      </trkpt>
      <trkpt lat="41.607395000" lon="2.508132100">
        <ele>437.50</ele>
        <time>2012-07-22T11:15:11Z</time>
      </trkpt>
      <trkpt lat="41.607513000" lon="2.508062100">
        <ele>432.70</ele>
        <time>2012-07-22T11:15:14Z</time>
      </trkpt>
      <trkpt lat="41.607628000" lon="2.508020100">
        <ele>429.40</ele>
        <time>2012-07-22T11:15:16Z</time>
      </trkpt>
      <trkpt lat="41.607750000" lon="2.507980100">
        <ele>427.00</ele>
        <time>2012-07-22T11:15:18Z</time>
      </trkpt>
      <trkpt lat="41.607868000" lon="2.507950100">
        <ele>424.60</ele>
        <time>2012-07-22T11:15:19Z</time>
      </trkpt>
      <trkpt lat="41.608177000" lon="2.507924100">
        <ele>420.20</ele>
        <time>2012-07-22T11:15:26Z</time>
      </trkpt>
      <trkpt lat="41.608265000" lon="2.507915100">
        <ele>418.80</ele>
        <time>2012-07-22T11:15:28Z</time>
      </trkpt>
      <trkpt lat="41.608475000" lon="2.507822100">
        <ele>417.80</ele>
        <time>2012-07-22T11:15:31Z</time>
      </trkpt>
      <trkpt lat="41.608624000" lon="2.507614100">
        <ele>415.00</ele>
        <time>2012-07-22T11:15:37Z</time>
      </trkpt>
      <trkpt lat="41.608665000" lon="2.507479100">
        <ele>412.10</ele>
        <time>2012-07-22T11:15:40Z</time>
      </trkpt>
      <trkpt lat="41.608711000" lon="2.507454100">
        <ele>407.70</ele>
        <time>2012-07-22T11:15:45Z</time>
      </trkpt>
      <trkpt lat="41.608711000" lon="2.507457100">
        <ele>409.20</ele>
        <time>2012-07-22T11:15:59Z</time>
      </trkpt>
      <trkpt lat="41.608711000" lon="2.507458100">
        <ele>409.70</ele>
        <time>2012-07-22T11:16:06Z</time>
      </trkpt>
      <trkpt lat="41.608719000" lon="2.507639100">
        <ele>409.70</ele>
        <time>2012-07-22T11:16:12Z</time>
      </trkpt>
      <trkpt lat="41.608742000" lon="2.507750100">
        <ele>409.70</ele>
        <time>2012-07-22T11:16:13Z</time>
      </trkpt>
      <trkpt lat="41.608810000" lon="2.507913100">
        <ele>409.70</ele>
        <time>2012-07-22T11:16:17Z</time>
      </trkpt>
      <trkpt lat="41.608734000" lon="2.508058100">
        <ele>404.90</ele>
        <time>2012-07-22T11:16:22Z</time>
      </trkpt>
      <trkpt lat="41.608650000" lon="2.508138100">
        <ele>404.40</ele>
        <time>2012-07-22T11:16:24Z</time>
      </trkpt>
      <trkpt lat="41.608566000" lon="2.508212100">
        <ele>403.90</ele>
        <time>2012-07-22T11:16:27Z</time>
      </trkpt>
      <trkpt lat="41.608402000" lon="2.508479100">
        <ele>403.40</ele>
        <time>2012-07-22T11:16:31Z</time>
      </trkpt>
      <trkpt lat="41.608360000" lon="2.508626100">
        <ele>403.40</ele>
        <time>2012-07-22T11:16:32Z</time>
      </trkpt>
      <trkpt lat="41.608177000" lon="2.508893100">
        <ele>398.60</ele>
        <time>2012-07-22T11:16:36Z</time>
      </trkpt>
      <trkpt lat="41.608074000" lon="2.508975100">
        <ele>396.20</ele>
        <time>2012-07-22T11:16:38Z</time>
      </trkpt>
      <trkpt lat="41.607960000" lon="2.509115100">
        <ele>394.80</ele>
        <time>2012-07-22T11:16:43Z</time>
      </trkpt>
      <trkpt lat="41.607883000" lon="2.509156100">
        <ele>397.60</ele>
        <time>2012-07-22T11:16:46Z</time>
      </trkpt>
      <trkpt lat="41.607857000" lon="2.509161100">
        <ele>399.10</ele>
        <time>2012-07-22T11:16:48Z</time>
      </trkpt>
      <trkpt lat="41.607716000" lon="2.509340100">
        <ele>402.90</ele>
        <time>2012-07-22T11:16:53Z</time>
      </trkpt>
      <trkpt lat="41.607517000" lon="2.509570100">
        <ele>400.00</ele>
        <time>2012-07-22T11:17:00Z</time>
      </trkpt>
      <trkpt lat="41.607342000" lon="2.509678100">
        <ele>399.60</ele>
        <time>2012-07-22T11:17:07Z</time>
      </trkpt>
      <trkpt lat="41.607243000" lon="2.509748100">
        <ele>402.90</ele>
        <time>2012-07-22T11:17:11Z</time>
      </trkpt>
      <trkpt lat="41.607159000" lon="2.509830100">
        <ele>405.30</ele>
        <time>2012-07-22T11:17:14Z</time>
      </trkpt>
      <trkpt lat="41.607082000" lon="2.510128100">
        <ele>402.90</ele>
        <time>2012-07-22T11:17:19Z</time>
      </trkpt>
      <trkpt lat="41.607189000" lon="2.510468100">
        <ele>396.20</ele>
        <time>2012-07-22T11:17:23Z</time>
      </trkpt>
      <trkpt lat="41.607281000" lon="2.510635100">
        <ele>393.30</ele>
        <time>2012-07-22T11:17:25Z</time>
      </trkpt>
      <trkpt lat="41.607494000" lon="2.510839100">
        <ele>390.00</ele>
        <time>2012-07-22T11:17:30Z</time>
      </trkpt>
      <trkpt lat="41.607586000" lon="2.510896100">
        <ele>390.40</ele>
        <time>2012-07-22T11:17:32Z</time>
      </trkpt>
      <trkpt lat="41.607754000" lon="2.511065100">
        <ele>390.40</ele>
        <time>2012-07-22T11:17:37Z</time>
      </trkpt>
      <trkpt lat="41.607708000" lon="2.511234100">
        <ele>389.50</ele>
        <time>2012-07-22T11:17:42Z</time>
      </trkpt>
      <trkpt lat="41.607609000" lon="2.511230100">
        <ele>386.10</ele>
        <time>2012-07-22T11:17:44Z</time>
      </trkpt>
      <trkpt lat="41.607555000" lon="2.511209100">
        <ele>385.10</ele>
        <time>2012-07-22T11:17:44Z</time>
      </trkpt>
      <trkpt lat="41.607311000" lon="2.511127100">
        <ele>379.40</ele>
        <time>2012-07-22T11:17:49Z</time>
      </trkpt>
      <trkpt lat="41.607258000" lon="2.511112100">
        <ele>379.40</ele>
        <time>2012-07-22T11:17:49Z</time>
      </trkpt>
      <trkpt lat="41.607162000" lon="2.511056100">
        <ele>377.00</ele>
        <time>2012-07-22T11:17:53Z</time>
      </trkpt>
      <trkpt lat="41.607037000" lon="2.510968100">
        <ele>377.00</ele>
        <time>2012-07-22T11:17:59Z</time>
      </trkpt>
      <trkpt lat="41.606991000" lon="2.510872100">
        <ele>376.50</ele>
        <time>2012-07-22T11:18:03Z</time>
      </trkpt>
      <trkpt lat="41.606922000" lon="2.510900100">
        <ele>373.10</ele>
        <time>2012-07-22T11:18:08Z</time>
      </trkpt>
      <trkpt lat="41.606903000" lon="2.510955100">
        <ele>368.30</ele>
        <time>2012-07-22T11:18:12Z</time>
      </trkpt>
      <trkpt lat="41.606834000" lon="2.510934100">
        <ele>365.40</ele>
        <time>2012-07-22T11:18:15Z</time>
      </trkpt>
      <trkpt lat="41.606712000" lon="2.511002100">
        <ele>365.90</ele>
        <time>2012-07-22T11:18:19Z</time>
      </trkpt>
      <trkpt lat="41.606647000" lon="2.511074100">
        <ele>365.90</ele>
        <time>2012-07-22T11:18:22Z</time>
      </trkpt>
      <trkpt lat="41.606617000" lon="2.511094100">
        <ele>365.90</ele>
        <time>2012-07-22T11:18:27Z</time>
      </trkpt>
      <trkpt lat="41.606586000" lon="2.511110100">
        <ele>365.90</ele>
        <time>2012-07-22T11:18:34Z</time>
      </trkpt>
      <trkpt lat="41.606495000" lon="2.511256100">
        <ele>365.90</ele>
        <time>2012-07-22T11:18:50Z</time>
      </trkpt>
      <trkpt lat="41.606449000" lon="2.511323100">
        <ele>367.80</ele>
        <time>2012-07-22T11:18:59Z</time>
      </trkpt>
      <trkpt lat="41.606426000" lon="2.511357100">
        <ele>368.30</ele>
        <time>2012-07-22T11:19:06Z</time>
      </trkpt>
      <trkpt lat="41.606300000" lon="2.511472100">
        <ele>369.30</ele>
        <time>2012-07-22T11:19:14Z</time>
      </trkpt>
      <trkpt lat="41.606213000" lon="2.511567100">
        <ele>370.20</ele>
        <time>2012-07-22T11:19:23Z</time>
      </trkpt>
      <trkpt lat="41.606182000" lon="2.511594100">
        <ele>370.70</ele>
        <time>2012-07-22T11:19:25Z</time>
      </trkpt>
      <trkpt lat="41.606125000" lon="2.511665100">
        <ele>372.60</ele>
        <time>2012-07-22T11:19:34Z</time>
      </trkpt>
      <trkpt lat="41.606079000" lon="2.511705100">
        <ele>373.10</ele>
        <time>2012-07-22T11:19:37Z</time>
      </trkpt>
      <trkpt lat="41.606041000" lon="2.511878100">
        <ele>373.60</ele>
        <time>2012-07-22T11:19:44Z</time>
      </trkpt>
      <trkpt lat="41.606030000" lon="2.511918100">
        <ele>373.60</ele>
        <time>2012-07-22T11:19:44Z</time>
      </trkpt>
      <trkpt lat="41.605984000" lon="2.512020100">
        <ele>373.60</ele>
        <time>2012-07-22T11:19:46Z</time>
      </trkpt>
      <trkpt lat="41.605911000" lon="2.512100100">
        <ele>373.60</ele>
        <time>2012-07-22T11:19:51Z</time>
      </trkpt>
      <trkpt lat="41.605804000" lon="2.512238100">
        <ele>373.60</ele>
        <time>2012-07-22T11:19:58Z</time>
      </trkpt>
      <trkpt lat="41.605743000" lon="2.512337100">
        <ele>373.60</ele>
        <time>2012-07-22T11:20:03Z</time>
      </trkpt>
      <trkpt lat="41.605709000" lon="2.512376100">
        <ele>374.10</ele>
        <time>2012-07-22T11:20:08Z</time>
      </trkpt>
      <trkpt lat="41.605686000" lon="2.512437100">
        <ele>374.60</ele>
        <time>2012-07-22T11:20:15Z</time>
      </trkpt>
      <trkpt lat="41.605671000" lon="2.512471100">
        <ele>375.00</ele>
        <time>2012-07-22T11:20:19Z</time>
      </trkpt>
      <trkpt lat="41.605591000" lon="2.512504100">
        <ele>375.00</ele>
        <time>2012-07-22T11:20:24Z</time>
      </trkpt>
      <trkpt lat="41.605541000" lon="2.512467100">
        <ele>375.00</ele>
        <time>2012-07-22T11:20:26Z</time>
      </trkpt>
      <trkpt lat="41.605385000" lon="2.512357100">
        <ele>372.60</ele>
        <time>2012-07-22T11:20:33Z</time>
      </trkpt>
      <trkpt lat="41.605328000" lon="2.512285100">
        <ele>368.80</ele>
        <time>2012-07-22T11:20:36Z</time>
      </trkpt>
      <trkpt lat="41.605309000" lon="2.512273100">
        <ele>365.90</ele>
        <time>2012-07-22T11:20:42Z</time>
      </trkpt>
      <trkpt lat="41.605217000" lon="2.512196100">
        <ele>365.90</ele>
        <time>2012-07-22T11:20:47Z</time>
      </trkpt>
      <trkpt lat="41.605099000" lon="2.512072100">
        <ele>365.00</ele>
        <time>2012-07-22T11:20:52Z</time>
      </trkpt>
      <trkpt lat="41.605003000" lon="2.512007100">
        <ele>364.00</ele>
        <time>2012-07-22T11:20:54Z</time>
      </trkpt>
      <trkpt lat="41.604870000" lon="2.511973100">
        <ele>359.70</ele>
        <time>2012-07-22T11:20:59Z</time>
      </trkpt>
      <trkpt lat="41.604767000" lon="2.511954100">
        <ele>355.30</ele>
        <time>2012-07-22T11:21:01Z</time>
      </trkpt>
      <trkpt lat="41.604610000" lon="2.511847100">
        <ele>350.50</ele>
        <time>2012-07-22T11:21:06Z</time>
      </trkpt>
      <trkpt lat="41.604557000" lon="2.511772100">
        <ele>349.60</ele>
        <time>2012-07-22T11:21:08Z</time>
      </trkpt>
      <trkpt lat="41.604507000" lon="2.511671100">
        <ele>349.60</ele>
        <time>2012-07-22T11:21:09Z</time>
      </trkpt>
      <trkpt lat="41.604389000" lon="2.511470100">
        <ele>349.60</ele>
        <time>2012-07-22T11:21:16Z</time>
      </trkpt>
      <trkpt lat="41.604324000" lon="2.511405100">
        <ele>348.60</ele>
        <time>2012-07-22T11:21:23Z</time>
      </trkpt>
      <trkpt lat="41.604286000" lon="2.511400100">
        <ele>347.60</ele>
        <time>2012-07-22T11:21:25Z</time>
      </trkpt>
      <trkpt lat="41.604164000" lon="2.511404100">
        <ele>342.90</ele>
        <time>2012-07-22T11:21:29Z</time>
      </trkpt>
      <trkpt lat="41.604023000" lon="2.511339100">
        <ele>337.10</ele>
        <time>2012-07-22T11:21:32Z</time>
      </trkpt>
      <trkpt lat="41.603992000" lon="2.511310100">
        <ele>336.60</ele>
        <time>2012-07-22T11:21:37Z</time>
      </trkpt>
      <trkpt lat="41.603985000" lon="2.511311100">
        <ele>340.40</ele>
        <time>2012-07-22T11:21:42Z</time>
      </trkpt>
      <trkpt lat="41.603951000" lon="2.511306100">
        <ele>341.90</ele>
        <time>2012-07-22T11:21:51Z</time>
      </trkpt>
      <trkpt lat="41.603943000" lon="2.511309100">
        <ele>341.90</ele>
        <time>2012-07-22T11:21:53Z</time>
      </trkpt>
      <trkpt lat="41.603912000" lon="2.511333100">
        <ele>340.40</ele>
        <time>2012-07-22T11:21:55Z</time>
      </trkpt>
      <trkpt lat="41.603867000" lon="2.511366100">
        <ele>337.10</ele>
        <time>2012-07-22T11:21:58Z</time>
      </trkpt>
      <trkpt lat="41.603802000" lon="2.511383100">
        <ele>333.70</ele>
        <time>2012-07-22T11:22:00Z</time>
      </trkpt>
      <trkpt lat="41.603741000" lon="2.511408100">
        <ele>329.40</ele>
        <time>2012-07-22T11:22:02Z</time>
      </trkpt>
      <trkpt lat="41.603714000" lon="2.511423100">
        <ele>326.00</ele>
        <time>2012-07-22T11:22:03Z</time>
      </trkpt>
      <trkpt lat="41.603710000" lon="2.511427100">
        <ele>324.60</ele>
        <time>2012-07-22T11:22:05Z</time>
      </trkpt>
      <trkpt lat="41.603710000" lon="2.511427100">
        <ele>324.60</ele>
        <time>2012-07-22T11:22:10Z</time>
      </trkpt>
      <trkpt lat="41.603699000" lon="2.511570100">
        <ele>331.30</ele>
        <time>2012-07-22T11:22:16Z</time>
      </trkpt>
      <trkpt lat="41.603668000" lon="2.511635100">
        <ele>330.80</ele>
        <time>2012-07-22T11:22:17Z</time>
      </trkpt>
      <trkpt lat="41.603680000" lon="2.511710100">
        <ele>330.80</ele>
        <time>2012-07-22T11:22:19Z</time>
      </trkpt>
      <trkpt lat="41.603783000" lon="2.511950100">
        <ele>325.50</ele>
        <time>2012-07-22T11:22:24Z</time>
      </trkpt>
      <trkpt lat="41.603893000" lon="2.512197100">
        <ele>322.20</ele>
        <time>2012-07-22T11:22:26Z</time>
      </trkpt>
      <trkpt lat="41.603966000" lon="2.512588100">
        <ele>319.30</ele>
        <time>2012-07-22T11:22:31Z</time>
      </trkpt>
      <trkpt lat="41.603931000" lon="2.513045100">
        <ele>318.30</ele>
        <time>2012-07-22T11:22:35Z</time>
      </trkpt>
      <trkpt lat="41.604000000" lon="2.513508100">
        <ele>314.50</ele>
        <time>2012-07-22T11:22:38Z</time>
      </trkpt>
      <trkpt lat="41.604061000" lon="2.513752100">
        <ele>311.60</ele>
        <time>2012-07-22T11:22:40Z</time>
      </trkpt>
      <trkpt lat="41.604004000" lon="2.514086100">
        <ele>306.30</ele>
        <time>2012-07-22T11:22:43Z</time>
      </trkpt>
      <trkpt lat="41.603874000" lon="2.514336100">
        <ele>303.00</ele>
        <time>2012-07-22T11:22:45Z</time>
      </trkpt>
      <trkpt lat="41.603809000" lon="2.514476100">
        <ele>301.00</ele>
        <time>2012-07-22T11:22:47Z</time>
      </trkpt>
      <trkpt lat="41.603714000" lon="2.514951100">
        <ele>296.70</ele>
        <time>2012-07-22T11:22:49Z</time>
      </trkpt>
      <trkpt lat="41.603703000" lon="2.515545100">
        <ele>295.30</ele>
        <time>2012-07-22T11:22:54Z</time>
      </trkpt>
      <trkpt lat="41.603619000" lon="2.515872100">
        <ele>295.70</ele>
        <time>2012-07-22T11:22:57Z</time>
      </trkpt>
      <trkpt lat="41.603569000" lon="2.516056100">
        <ele>299.10</ele>
        <time>2012-07-22T11:22:59Z</time>
      </trkpt>
      <trkpt lat="41.603573000" lon="2.516416100">
        <ele>302.50</ele>
        <time>2012-07-22T11:23:04Z</time>
      </trkpt>
      <trkpt lat="41.603607000" lon="2.516718100">
        <ele>303.00</ele>
        <time>2012-07-22T11:23:11Z</time>
      </trkpt>
      <trkpt lat="41.603561000" lon="2.516932100">
        <ele>303.00</ele>
        <time>2012-07-22T11:23:17Z</time>
      </trkpt>
      <trkpt lat="41.603394000" lon="2.517064100">
        <ele>303.00</ele>
        <time>2012-07-22T11:23:22Z</time>
      </trkpt>
      <trkpt lat="41.603218000" lon="2.517221100">
        <ele>303.40</ele>
        <time>2012-07-22T11:23:29Z</time>
      </trkpt>
      <trkpt lat="41.603165000" lon="2.517463100">
        <ele>303.40</ele>
        <time>2012-07-22T11:23:34Z</time>
      </trkpt>
      <trkpt lat="41.603146000" lon="2.517580100">
        <ele>303.40</ele>
        <time>2012-07-22T11:23:36Z</time>
      </trkpt>
      <trkpt lat="41.603142000" lon="2.517770100">
        <ele>303.40</ele>
        <time>2012-07-22T11:23:39Z</time>
      </trkpt>
      <trkpt lat="41.603237000" lon="2.518313100">
        <ele>303.40</ele>
        <time>2012-07-22T11:23:46Z</time>
      </trkpt>
      <trkpt lat="41.603256000" lon="2.518646100">
        <ele>302.00</ele>
        <time>2012-07-22T11:23:50Z</time>
      </trkpt>
      <trkpt lat="41.603321000" lon="2.519097100">
        <ele>301.00</ele>
        <time>2012-07-22T11:23:57Z</time>
      </trkpt>
      <trkpt lat="41.603344000" lon="2.519260100">
        <ele>300.50</ele>
        <time>2012-07-22T11:23:58Z</time>
      </trkpt>
      <trkpt lat="41.603477000" lon="2.519552100">
        <ele>300.10</ele>
        <time>2012-07-22T11:24:02Z</time>
      </trkpt>
      <trkpt lat="41.603611000" lon="2.519839100">
        <ele>298.60</ele>
        <time>2012-07-22T11:24:07Z</time>
      </trkpt>
      <trkpt lat="41.603577000" lon="2.519922100">
        <ele>298.60</ele>
        <time>2012-07-22T11:24:09Z</time>
      </trkpt>
      <trkpt lat="41.603363000" lon="2.520439100">
        <ele>293.80</ele>
        <time>2012-07-22T11:24:14Z</time>
      </trkpt>
      <trkpt lat="41.603153000" lon="2.520720100">
        <ele>290.50</ele>
        <time>2012-07-22T11:24:18Z</time>
      </trkpt>
      <trkpt lat="41.603062000" lon="2.520794100">
        <ele>290.90</ele>
        <time>2012-07-22T11:24:19Z</time>
      </trkpt>
      <trkpt lat="41.602909000" lon="2.520886100">
        <ele>294.80</ele>
        <time>2012-07-22T11:24:23Z</time>
      </trkpt>
      <trkpt lat="41.602806000" lon="2.520968100">
        <ele>298.60</ele>
        <time>2012-07-22T11:24:28Z</time>
      </trkpt>
      <trkpt lat="41.602783000" lon="2.520980100">
        <ele>300.10</ele>
        <time>2012-07-22T11:24:28Z</time>
      </trkpt>
      <trkpt lat="41.602703000" lon="2.521193100">
        <ele>300.10</ele>
        <time>2012-07-22T11:24:35Z</time>
      </trkpt>
      <trkpt lat="41.602776000" lon="2.521448100">
        <ele>298.60</ele>
        <time>2012-07-22T11:24:40Z</time>
      </trkpt>
      <trkpt lat="41.602806000" lon="2.521487100">
        <ele>298.60</ele>
        <time>2012-07-22T11:24:40Z</time>
      </trkpt>
      <trkpt lat="41.602943000" lon="2.521624100">
        <ele>297.70</ele>
        <time>2012-07-22T11:24:45Z</time>
      </trkpt>
      <trkpt lat="41.603222000" lon="2.521705100">
        <ele>297.20</ele>
        <time>2012-07-22T11:24:51Z</time>
      </trkpt>
      <trkpt lat="41.603275000" lon="2.521705100">
        <ele>296.70</ele>
        <time>2012-07-22T11:24:52Z</time>
      </trkpt>
      <trkpt lat="41.603596000" lon="2.521670100">
        <ele>296.20</ele>
        <time>2012-07-22T11:24:56Z</time>
      </trkpt>
      <trkpt lat="41.603771000" lon="2.521800100">
        <ele>292.90</ele>
        <time>2012-07-22T11:24:59Z</time>
      </trkpt>
      <trkpt lat="41.603863000" lon="2.521995100">
        <ele>290.00</ele>
        <time>2012-07-22T11:25:03Z</time>
      </trkpt>
      <trkpt lat="41.603882000" lon="2.522177100">
        <ele>288.00</ele>
        <time>2012-07-22T11:25:05Z</time>
      </trkpt>
      <trkpt lat="41.603863000" lon="2.522621100">
        <ele>283.20</ele>
        <time>2012-07-22T11:25:08Z</time>
      </trkpt>
      <trkpt lat="41.603840000" lon="2.522853100">
        <ele>278.90</ele>
        <time>2012-07-22T11:25:12Z</time>
      </trkpt>
      <trkpt lat="41.603832000" lon="2.522916100">
        <ele>278.00</ele>
        <time>2012-07-22T11:25:13Z</time>
      </trkpt>
      <trkpt lat="41.603836000" lon="2.523180100">
        <ele>273.10</ele>
        <time>2012-07-22T11:25:17Z</time>
      </trkpt>
      <trkpt lat="41.603817000" lon="2.523403100">
        <ele>271.20</ele>
        <time>2012-07-22T11:25:22Z</time>
      </trkpt>
      <trkpt lat="41.603710000" lon="2.523719100">
        <ele>271.20</ele>
        <time>2012-07-22T11:25:27Z</time>
      </trkpt>
      <trkpt lat="41.603485000" lon="2.524185100">
        <ele>271.20</ele>
        <time>2012-07-22T11:25:34Z</time>
      </trkpt>
      <trkpt lat="41.603458000" lon="2.524238100">
        <ele>271.20</ele>
        <time>2012-07-22T11:25:34Z</time>
      </trkpt>
      <trkpt lat="41.603394000" lon="2.524480100">
        <ele>271.20</ele>
        <time>2012-07-22T11:25:38Z</time>
      </trkpt>
      <trkpt lat="41.603382000" lon="2.524606100">
        <ele>271.20</ele>
        <time>2012-07-22T11:25:41Z</time>
      </trkpt>
      <trkpt lat="41.603424000" lon="2.524936100">
        <ele>272.70</ele>
        <time>2012-07-22T11:25:46Z</time>
      </trkpt>
      <trkpt lat="41.603626000" lon="2.525305100">
        <ele>274.10</ele>
        <time>2012-07-22T11:25:55Z</time>
      </trkpt>
      <trkpt lat="41.603748000" lon="2.525513100">
        <ele>278.00</ele>
        <time>2012-07-22T11:26:02Z</time>
      </trkpt>
      <trkpt lat="41.603821000" lon="2.525639100">
        <ele>281.30</ele>
        <time>2012-07-22T11:26:06Z</time>
      </trkpt>
      <trkpt lat="41.603867000" lon="2.525853100">
        <ele>282.30</ele>
        <time>2012-07-22T11:26:11Z</time>
      </trkpt>
      <trkpt lat="41.603714000" lon="2.526110100">
        <ele>282.30</ele>
        <time>2012-07-22T11:26:16Z</time>
      </trkpt>
      <trkpt lat="41.603535000" lon="2.526423100">
        <ele>280.80</ele>
        <time>2012-07-22T11:26:23Z</time>
      </trkpt>
      <trkpt lat="41.603405000" lon="2.526724100">
        <ele>279.90</ele>
        <time>2012-07-22T11:26:30Z</time>
      </trkpt>
      <trkpt lat="41.603291000" lon="2.527030100">
        <ele>278.90</ele>
        <time>2012-07-22T11:26:35Z</time>
      </trkpt>
      <trkpt lat="41.603249000" lon="2.527126100">
        <ele>278.00</ele>
        <time>2012-07-22T11:26:37Z</time>
      </trkpt>
      <trkpt lat="41.603172000" lon="2.527309100">
        <ele>273.10</ele>
        <time>2012-07-22T11:26:42Z</time>
      </trkpt>
      <trkpt lat="41.603088000" lon="2.527419100">
        <ele>269.30</ele>
        <time>2012-07-22T11:26:44Z</time>
      </trkpt>
      <trkpt lat="41.602974000" lon="2.527549100">
        <ele>266.40</ele>
        <time>2012-07-22T11:26:49Z</time>
      </trkpt>
      <trkpt lat="41.602943000" lon="2.527585100">
        <ele>266.90</ele>
        <time>2012-07-22T11:26:49Z</time>
      </trkpt>
      <trkpt lat="41.602814000" lon="2.527860100">
        <ele>266.90</ele>
        <time>2012-07-22T11:26:56Z</time>
      </trkpt>
      <trkpt lat="41.602760000" lon="2.528014100">
        <ele>266.90</ele>
        <time>2012-07-22T11:26:58Z</time>
      </trkpt>
      <trkpt lat="41.602795000" lon="2.528338100">
        <ele>266.90</ele>
        <time>2012-07-22T11:27:05Z</time>
      </trkpt>
      <trkpt lat="41.602898000" lon="2.528486100">
        <ele>265.90</ele>
        <time>2012-07-22T11:27:10Z</time>
      </trkpt>
      <trkpt lat="41.602951000" lon="2.528584100">
        <ele>262.10</ele>
        <time>2012-07-22T11:27:12Z</time>
      </trkpt>
      <trkpt lat="41.603027000" lon="2.528680100">
        <ele>258.70</ele>
        <time>2012-07-22T11:27:15Z</time>
      </trkpt>
      <trkpt lat="41.603172000" lon="2.528813100">
        <ele>254.90</ele>
        <time>2012-07-22T11:27:20Z</time>
      </trkpt>
      <trkpt lat="41.603199000" lon="2.528847100">
        <ele>255.40</ele>
        <time>2012-07-22T11:27:22Z</time>
      </trkpt>
      <trkpt lat="41.603214000" lon="2.528876100">
        <ele>254.40</ele>
        <time>2012-07-22T11:27:24Z</time>
      </trkpt>
      <trkpt lat="41.603321000" lon="2.528975100">
        <ele>253.40</ele>
        <time>2012-07-22T11:27:31Z</time>
      </trkpt>
      <trkpt lat="41.603432000" lon="2.529080100">
        <ele>250.10</ele>
        <time>2012-07-22T11:27:36Z</time>
      </trkpt>
      <trkpt lat="41.603493000" lon="2.529120100">
        <ele>246.70</ele>
        <time>2012-07-22T11:27:38Z</time>
      </trkpt>
      <trkpt lat="41.603535000" lon="2.529162100">
        <ele>244.80</ele>
        <time>2012-07-22T11:27:41Z</time>
      </trkpt>
      <trkpt lat="41.603649000" lon="2.529284100">
        <ele>241.90</ele>
        <time>2012-07-22T11:27:47Z</time>
      </trkpt>
      <trkpt lat="41.603771000" lon="2.529430100">
        <ele>240.00</ele>
        <time>2012-07-22T11:27:52Z</time>
      </trkpt>
      <trkpt lat="41.603821000" lon="2.529509100">
        <ele>238.10</ele>
        <time>2012-07-22T11:27:55Z</time>
      </trkpt>
      <trkpt lat="41.603954000" lon="2.529653100">
        <ele>234.70</ele>
        <time>2012-07-22T11:28:00Z</time>
      </trkpt>
      <trkpt lat="41.604027000" lon="2.529706100">
        <ele>232.80</ele>
        <time>2012-07-22T11:28:04Z</time>
      </trkpt>
      <trkpt lat="41.604042000" lon="2.529719100">
        <ele>232.80</ele>
        <time>2012-07-22T11:28:04Z</time>
      </trkpt>
      <trkpt lat="41.604073000" lon="2.529748100">
        <ele>231.80</ele>
        <time>2012-07-22T11:28:11Z</time>
      </trkpt>
      <trkpt lat="41.604095000" lon="2.529752100">
        <ele>231.80</ele>
        <time>2012-07-22T11:28:18Z</time>
      </trkpt>
      <trkpt lat="41.604118000" lon="2.529788100">
        <ele>231.80</ele>
        <time>2012-07-22T11:28:23Z</time>
      </trkpt>
      <trkpt lat="41.604168000" lon="2.529857100">
        <ele>231.80</ele>
        <time>2012-07-22T11:28:27Z</time>
      </trkpt>
      <trkpt lat="41.604309000" lon="2.530063100">
        <ele>229.40</ele>
        <time>2012-07-22T11:28:32Z</time>
      </trkpt>
      <trkpt lat="41.604366000" lon="2.530169100">
        <ele>227.50</ele>
        <time>2012-07-22T11:28:35Z</time>
      </trkpt>
      <trkpt lat="41.604443000" lon="2.530419100">
        <ele>222.70</ele>
        <time>2012-07-22T11:28:39Z</time>
      </trkpt>
      <trkpt lat="41.604595000" lon="2.530821100">
        <ele>218.40</ele>
        <time>2012-07-22T11:28:46Z</time>
      </trkpt>
      <trkpt lat="41.604610000" lon="2.530864100">
        <ele>217.90</ele>
        <time>2012-07-22T11:28:51Z</time>
      </trkpt>
      <trkpt lat="41.604637000" lon="2.530928100">
        <ele>217.90</ele>
        <time>2012-07-22T11:28:58Z</time>
      </trkpt>
      <trkpt lat="41.604664000" lon="2.530980100">
        <ele>217.90</ele>
        <time>2012-07-22T11:29:05Z</time>
      </trkpt>
      <trkpt lat="41.604671000" lon="2.530995100">
        <ele>217.40</ele>
        <time>2012-07-22T11:29:14Z</time>
      </trkpt>
      <trkpt lat="41.604679000" lon="2.531039100">
        <ele>217.40</ele>
        <time>2012-07-22T11:29:17Z</time>
      </trkpt>
      <trkpt lat="41.604733000" lon="2.531204100">
        <ele>215.50</ele>
        <time>2012-07-22T11:29:24Z</time>
      </trkpt>
      <trkpt lat="41.604755000" lon="2.531327100">
        <ele>211.10</ele>
        <time>2012-07-22T11:29:29Z</time>
      </trkpt>
      <trkpt lat="41.604774000" lon="2.531399100">
        <ele>208.70</ele>
        <time>2012-07-22T11:29:31Z</time>
      </trkpt>
      <trkpt lat="41.604836000" lon="2.531443100">
        <ele>205.40</ele>
        <time>2012-07-22T11:29:36Z</time>
      </trkpt>
      <trkpt lat="41.604847000" lon="2.531420100">
        <ele>205.90</ele>
        <time>2012-07-22T11:29:36Z</time>
      </trkpt>
      <trkpt lat="41.604885000" lon="2.531305100">
        <ele>205.40</ele>
        <time>2012-07-22T11:29:40Z</time>
      </trkpt>
      <trkpt lat="41.604980000" lon="2.530889100">
        <ele>204.90</ele>
        <time>2012-07-22T11:29:47Z</time>
      </trkpt>
      <trkpt lat="41.604992000" lon="2.530766100">
        <ele>204.40</ele>
        <time>2012-07-22T11:29:50Z</time>
      </trkpt>
      <trkpt lat="41.605042000" lon="2.530705100">
        <ele>201.10</ele>
        <time>2012-07-22T11:29:55Z</time>
      </trkpt>
      <trkpt lat="41.605042000" lon="2.530690100">
        <ele>197.70</ele>
        <time>2012-07-22T11:30:01Z</time>
      </trkpt>
      <trkpt lat="41.605042000" lon="2.530690100">
        <ele>197.70</ele>
        <time>2012-07-22T11:30:20Z</time>
      </trkpt>
      <trkpt lat="41.605042000" lon="2.530685100">
        <ele>199.10</ele>
        <time>2012-07-22T11:30:41Z</time>
      </trkpt>
      <trkpt lat="41.605049000" lon="2.530693100">
        <ele>199.10</ele>
        <time>2012-07-22T11:30:51Z</time>
      </trkpt>
      <trkpt lat="41.605125000" lon="2.530906100">
        <ele>197.70</ele>
        <time>2012-07-22T11:31:00Z</time>
      </trkpt>
      <trkpt lat="41.605171000" lon="2.531021100">
        <ele>193.80</ele>
        <time>2012-07-22T11:31:03Z</time>
      </trkpt>
      <trkpt lat="41.605213000" lon="2.531203100">
        <ele>189.50</ele>
        <time>2012-07-22T11:31:09Z</time>
      </trkpt>
      <trkpt lat="41.605240000" lon="2.531430100">
        <ele>188.10</ele>
        <time>2012-07-22T11:31:12Z</time>
      </trkpt>
      <trkpt lat="41.605247000" lon="2.531490100">
        <ele>188.60</ele>
        <time>2012-07-22T11:31:14Z</time>
      </trkpt>
      <trkpt lat="41.605270000" lon="2.531723100">
        <ele>185.70</ele>
        <time>2012-07-22T11:31:17Z</time>
      </trkpt>
      <trkpt lat="41.605324000" lon="2.531940100">
        <ele>182.80</ele>
        <time>2012-07-22T11:31:21Z</time>
      </trkpt>
      <trkpt lat="41.605385000" lon="2.532166100">
        <ele>180.40</ele>
        <time>2012-07-22T11:31:24Z</time>
      </trkpt>
      <trkpt lat="41.605446000" lon="2.532340100">
        <ele>178.90</ele>
        <time>2012-07-22T11:31:28Z</time>
      </trkpt>
      <trkpt lat="41.605465000" lon="2.532558100">
        <ele>175.60</ele>
        <time>2012-07-22T11:31:33Z</time>
      </trkpt>
      <trkpt lat="41.605553000" lon="2.532802100">
        <ele>173.20</ele>
        <time>2012-07-22T11:31:38Z</time>
      </trkpt>
      <trkpt lat="41.605663000" lon="2.533202100">
        <ele>171.20</ele>
        <time>2012-07-22T11:31:45Z</time>
      </trkpt>
      <trkpt lat="41.605602000" lon="2.533350100">
        <ele>168.40</ele>
        <time>2012-07-22T11:31:49Z</time>
      </trkpt>
      <trkpt lat="41.605576000" lon="2.533373100">
        <ele>166.90</ele>
        <time>2012-07-22T11:31:54Z</time>
      </trkpt>
      <trkpt lat="41.605576000" lon="2.533373100">
        <ele>166.90</ele>
        <time>2012-07-22T11:32:06Z</time>
      </trkpt>
      <trkpt lat="41.605576000" lon="2.533367100">
        <ele>167.40</ele>
        <time>2012-07-22T11:32:20Z</time>
      </trkpt>
      <trkpt lat="41.605518000" lon="2.533450100">
        <ele>167.40</ele>
        <time>2012-07-22T11:32:27Z</time>
      </trkpt>
      <trkpt lat="41.605522000" lon="2.533446100">
        <ele>167.40</ele>
        <time>2012-07-22T11:32:37Z</time>
      </trkpt>
      <trkpt lat="41.605515000" lon="2.533473100">
        <ele>167.40</ele>
        <time>2012-07-22T11:32:48Z</time>
      </trkpt>
      <trkpt lat="41.605507000" lon="2.533547100">
        <ele>167.40</ele>
        <time>2012-07-22T11:32:53Z</time>
      </trkpt>
      <trkpt lat="41.605473000" lon="2.533645100">
        <ele>166.00</ele>
        <time>2012-07-22T11:32:57Z</time>
      </trkpt>
      <trkpt lat="41.605423000" lon="2.533721100">
        <ele>166.00</ele>
        <time>2012-07-22T11:33:00Z</time>
      </trkpt>
      <trkpt lat="41.605270000" lon="2.533991100">
        <ele>163.60</ele>
        <time>2012-07-22T11:33:07Z</time>
      </trkpt>
      <trkpt lat="41.605160000" lon="2.534137100">
        <ele>160.70</ele>
        <time>2012-07-22T11:33:12Z</time>
      </trkpt>
      <trkpt lat="41.605026000" lon="2.534182100">
        <ele>156.80</ele>
        <time>2012-07-22T11:33:16Z</time>
      </trkpt>
      <trkpt lat="41.604958000" lon="2.534196100">
        <ele>154.40</ele>
        <time>2012-07-22T11:33:18Z</time>
      </trkpt>
      <trkpt lat="41.604713000" lon="2.534230100">
        <ele>151.50</ele>
        <time>2012-07-22T11:33:23Z</time>
      </trkpt>
      <trkpt lat="41.604561000" lon="2.534555100">
        <ele>150.60</ele>
        <time>2012-07-22T11:33:31Z</time>
      </trkpt>
      <trkpt lat="41.604515000" lon="2.534661100">
        <ele>150.10</ele>
        <time>2012-07-22T11:33:33Z</time>
      </trkpt>
      <trkpt lat="41.604465000" lon="2.534807100">
        <ele>145.80</ele>
        <time>2012-07-22T11:33:37Z</time>
      </trkpt>
      <trkpt lat="41.604465000" lon="2.534811100">
        <ele>142.40</ele>
        <time>2012-07-22T11:33:42Z</time>
      </trkpt>
      <trkpt lat="41.604465000" lon="2.534811100">
        <ele>142.40</ele>
        <time>2012-07-22T11:34:08Z</time>
      </trkpt>
      <trkpt lat="41.604469000" lon="2.534815100">
        <ele>144.80</ele>
        <time>2012-07-22T11:34:22Z</time>
      </trkpt>
      <trkpt lat="41.604469000" lon="2.534831100">
        <ele>144.80</ele>
        <time>2012-07-22T11:34:24Z</time>
      </trkpt>
      <trkpt lat="41.604530000" lon="2.534942100">
        <ele>144.80</ele>
        <time>2012-07-22T11:34:29Z</time>
      </trkpt>
      <trkpt lat="41.604572000" lon="2.535098100">
        <ele>144.80</ele>
        <time>2012-07-22T11:34:34Z</time>
      </trkpt>
      <trkpt lat="41.604664000" lon="2.535467100">
        <ele>143.40</ele>
        <time>2012-07-22T11:34:39Z</time>
      </trkpt>
      <trkpt lat="41.604839000" lon="2.535827100">
        <ele>142.40</ele>
        <time>2012-07-22T11:34:46Z</time>
      </trkpt>
      <trkpt lat="41.604958000" lon="2.535990100">
        <ele>139.10</ele>
        <time>2012-07-22T11:34:48Z</time>
      </trkpt>
      <trkpt lat="41.604977000" lon="2.536249100">
        <ele>134.20</ele>
        <time>2012-07-22T11:34:53Z</time>
      </trkpt>
      <trkpt lat="41.604721000" lon="2.536810100">
        <ele>129.40</ele>
        <time>2012-07-22T11:34:57Z</time>
      </trkpt>
      <trkpt lat="41.604500000" lon="2.537282100">
        <ele>126.10</ele>
        <time>2012-07-22T11:35:02Z</time>
      </trkpt>
      <trkpt lat="41.604168000" lon="2.537972100">
        <ele>123.20</ele>
        <time>2012-07-22T11:35:07Z</time>
      </trkpt>
      <trkpt lat="41.603874000" lon="2.538568100">
        <ele>120.30</ele>
        <time>2012-07-22T11:35:14Z</time>
      </trkpt>
      <trkpt lat="41.603748000" lon="2.538855100">
        <ele>117.90</ele>
        <time>2012-07-22T11:35:18Z</time>
      </trkpt>
      <trkpt lat="41.603729000" lon="2.538995100">
        <ele>116.50</ele>
        <time>2012-07-22T11:35:25Z</time>
      </trkpt>
      <trkpt lat="41.603729000" lon="2.539010100">
        <ele>116.50</ele>
        <time>2012-07-22T11:35:25Z</time>
      </trkpt>
      <trkpt lat="41.603783000" lon="2.539050100">
        <ele>116.50</ele>
        <time>2012-07-22T11:35:30Z</time>
      </trkpt>
      <trkpt lat="41.604053000" lon="2.539324100">
        <ele>116.50</ele>
        <time>2012-07-22T11:35:44Z</time>
      </trkpt>
      <trkpt lat="41.604176000" lon="2.539477100">
        <ele>116.50</ele>
        <time>2012-07-22T11:35:51Z</time>
      </trkpt>
      <trkpt lat="41.604355000" lon="2.539718100">
        <ele>116.50</ele>
        <time>2012-07-22T11:36:00Z</time>
      </trkpt>
      <trkpt lat="41.604412000" lon="2.539807100">
        <ele>116.00</ele>
        <time>2012-07-22T11:36:05Z</time>
      </trkpt>
      <trkpt lat="41.604420000" lon="2.539812100">
        <ele>115.50</ele>
        <time>2012-07-22T11:36:12Z</time>
      </trkpt>
      <trkpt lat="41.604420000" lon="2.539812100">
        <ele>115.50</ele>
        <time>2012-07-22T11:36:27Z</time>
      </trkpt>
      <trkpt lat="41.604416000" lon="2.539819100">
        <ele>115.00</ele>
        <time>2012-07-22T11:37:30Z</time>
      </trkpt>
      <trkpt lat="41.604416000" lon="2.539818100">
        <ele>115.00</ele>
        <time>2012-07-22T11:37:54Z</time>
      </trkpt>
      <trkpt lat="41.604412000" lon="2.539819100">
        <ele>115.00</ele>
        <time>2012-07-22T11:38:22Z</time>
      </trkpt>
      <trkpt lat="41.604412000" lon="2.539819100">
        <ele>115.00</ele>
        <time>2012-07-22T11:38:36Z</time>
      </trkpt>
      <trkpt lat="41.604416000" lon="2.539817100">
        <ele>114.50</ele>
        <time>2012-07-22T11:38:52Z</time>
      </trkpt>
      <trkpt lat="41.604416000" lon="2.539815100">
        <ele>114.50</ele>
        <time>2012-07-22T11:39:34Z</time>
      </trkpt>
      <trkpt lat="41.604416000" lon="2.539820100">
        <ele>114.50</ele>
        <time>2012-07-22T11:40:19Z</time>
      </trkpt>
      <trkpt lat="41.604424000" lon="2.539819100">
        <ele>114.50</ele>
        <time>2012-07-22T11:40:52Z</time>
      </trkpt>
      <trkpt lat="41.604424000" lon="2.539812100">
        <ele>114.50</ele>
        <time>2012-07-22T11:41:27Z</time>
      </trkpt>
      <trkpt lat="41.604424000" lon="2.539812100">
        <ele>114.50</ele>
        <time>2012-07-22T11:42:05Z</time>
      </trkpt>
      <trkpt lat="41.604424000" lon="2.539811100">
        <ele>114.10</ele>
        <time>2012-07-22T11:42:19Z</time>
      </trkpt>
      <trkpt lat="41.604424000" lon="2.539812100">
        <ele>114.10</ele>
        <time>2012-07-22T11:42:37Z</time>
      </trkpt>
      <trkpt lat="41.604427000" lon="2.539812100">
        <ele>114.10</ele>
        <time>2012-07-22T11:42:54Z</time>
      </trkpt>
      <trkpt lat="41.604427000" lon="2.539811100">
        <ele>114.10</ele>
        <time>2012-07-22T11:43:27Z</time>
      </trkpt>
      <trkpt lat="41.604427000" lon="2.539811100">
        <ele>114.10</ele>
        <time>2012-07-22T11:44:00Z</time>
      </trkpt>
      <trkpt lat="41.604424000" lon="2.539811100">
        <ele>113.60</ele>
        <time>2012-07-22T11:44:16Z</time>
      </trkpt>
      <trkpt lat="41.604538000" lon="2.539899100">
        <ele>113.60</ele>
        <time>2012-07-22T11:44:49Z</time>
      </trkpt>
      <trkpt lat="41.604698000" lon="2.539962100">
        <ele>113.60</ele>
        <time>2012-07-22T11:44:54Z</time>
      </trkpt>
      <trkpt lat="41.604931000" lon="2.540020100">
        <ele>113.10</ele>
        <time>2012-07-22T11:45:03Z</time>
      </trkpt>
      <trkpt lat="41.605156000" lon="2.540040100">
        <ele>113.10</ele>
        <time>2012-07-22T11:45:12Z</time>
      </trkpt>
      <trkpt lat="41.605358000" lon="2.540088100">
        <ele>113.10</ele>
        <time>2012-07-22T11:45:19Z</time>
      </trkpt>
      <trkpt lat="41.605587000" lon="2.540133100">
        <ele>114.50</ele>
        <time>2012-07-22T11:45:26Z</time>
      </trkpt>
      <trkpt lat="41.605812000" lon="2.540192100">
        <ele>115.00</ele>
        <time>2012-07-22T11:45:34Z</time>
      </trkpt>
      <trkpt lat="41.605988000" lon="2.540269100">
        <ele>116.00</ele>
        <time>2012-07-22T11:45:41Z</time>
      </trkpt>
      <trkpt lat="41.606049000" lon="2.540299100">
        <ele>116.50</ele>
        <time>2012-07-22T11:45:45Z</time>
      </trkpt>
      <trkpt lat="41.606071000" lon="2.540371100">
        <ele>116.50</ele>
        <time>2012-07-22T11:45:48Z</time>
      </trkpt>
      <trkpt lat="41.605968000" lon="2.540374100">
        <ele>116.90</ele>
        <time>2012-07-22T11:45:55Z</time>
      </trkpt>
      <trkpt lat="41.605911000" lon="2.540432100">
        <ele>116.90</ele>
        <time>2012-07-22T11:45:59Z</time>
      </trkpt>
      <trkpt lat="41.605972000" lon="2.540460100">
        <ele>117.40</ele>
        <time>2012-07-22T11:46:04Z</time>
      </trkpt>
      <trkpt lat="41.606098000" lon="2.540512100">
        <ele>117.90</ele>
        <time>2012-07-22T11:46:11Z</time>
      </trkpt>
      <trkpt lat="41.606190000" lon="2.540591100">
        <ele>118.40</ele>
        <time>2012-07-22T11:46:18Z</time>
      </trkpt>
      <trkpt lat="41.606358000" lon="2.540696100">
        <ele>118.90</ele>
        <time>2012-07-22T11:46:23Z</time>
      </trkpt>
      <trkpt lat="41.606503000" lon="2.540762100">
        <ele>118.90</ele>
        <time>2012-07-22T11:46:28Z</time>
      </trkpt>
      <trkpt lat="41.606560000" lon="2.540903100">
        <ele>119.30</ele>
        <time>2012-07-22T11:46:32Z</time>
      </trkpt>
      <trkpt lat="41.606647000" lon="2.541191100">
        <ele>120.80</ele>
        <time>2012-07-22T11:46:42Z</time>
      </trkpt>
      <trkpt lat="41.606709000" lon="2.541422100">
        <ele>121.70</ele>
        <time>2012-07-22T11:46:49Z</time>
      </trkpt>
      <trkpt lat="41.606785000" lon="2.541749100">
        <ele>123.20</ele>
        <time>2012-07-22T11:46:58Z</time>
      </trkpt>
      <trkpt lat="41.606888000" lon="2.542017100">
        <ele>125.10</ele>
        <time>2012-07-22T11:47:05Z</time>
      </trkpt>
      <trkpt lat="41.606972000" lon="2.542229100">
        <ele>126.60</ele>
        <time>2012-07-22T11:47:12Z</time>
      </trkpt>
      <trkpt lat="41.606983000" lon="2.542257100">
        <ele>127.00</ele>
        <time>2012-07-22T11:47:14Z</time>
      </trkpt>
      <trkpt lat="41.607048000" lon="2.542334100">
        <ele>128.00</ele>
        <time>2012-07-22T11:47:19Z</time>
      </trkpt>
      <trkpt lat="41.607048000" lon="2.542334100">
        <ele>128.00</ele>
        <time>2012-07-22T11:47:45Z</time>
      </trkpt>
      <trkpt lat="41.607052000" lon="2.542336100">
        <ele>129.90</ele>
        <time>2012-07-22T11:48:08Z</time>
      </trkpt>
    </trkseg>
  </trk>
</gpx>
